<?xml version="1.0" encoding="UTF-8" standalone="no" ?>
<gpx xmlns="http://www.topografix.com/GPX/1/1" xmlns:xsi="http://www.w3.org/2001/XMLSchema-instance" xsi:schemaLocation="http://www.topografix.com/GPX/1/1 http://www.topografix.com/GPX/1/1/gpx.xsd" version="1.1" creator="VisuGPX - https://www.visugpx.com">
  <metadata>
    <name>130525ROBCatarinetteSebastienPourraque</name>
    <desc><![CDATA[Beaucoup d\'arbres à terre, beaucoup de vent]]></desc>
  </metadata>
  <trk>
    <name><![CDATA[130525ROBCatarinetteSebastienPourraque]]></name>
    <trkseg>
      <trkpt lat="43.40403" lon="6.0655">
        <ele>230.60000610352</ele>
        <time>2013-05-25T12:02:15Z</time>
      </trkpt>
      <trkpt lat="43.40403" lon="6.0655">
        <ele>230.60000610352</ele>
        <time>2013-05-25T12:02:16Z</time>
      </trkpt>
      <trkpt lat="43.40403" lon="6.0655">
        <ele>230.60000610352</ele>
        <time>2013-05-25T12:02:18Z</time>
      </trkpt>
      <trkpt lat="43.40402" lon="6.0655">
        <ele>231</ele>
        <time>2013-05-25T12:02:23Z</time>
      </trkpt>
      <trkpt lat="43.40399" lon="6.06551">
        <ele>231</ele>
        <time>2013-05-25T12:02:31Z</time>
      </trkpt>
      <trkpt lat="43.40398" lon="6.0655">
        <ele>231</ele>
        <time>2013-05-25T12:02:32Z</time>
      </trkpt>
      <trkpt lat="43.40398" lon="6.06545">
        <ele>231</ele>
        <time>2013-05-25T12:02:35Z</time>
      </trkpt>
      <trkpt lat="43.404" lon="6.06541">
        <ele>231</ele>
        <time>2013-05-25T12:02:37Z</time>
      </trkpt>
      <trkpt lat="43.40402" lon="6.0653">
        <ele>231</ele>
        <time>2013-05-25T12:02:43Z</time>
      </trkpt>
      <trkpt lat="43.40405" lon="6.06511">
        <ele>231</ele>
        <time>2013-05-25T12:02:50Z</time>
      </trkpt>
      <trkpt lat="43.40409" lon="6.06493">
        <ele>231</ele>
        <time>2013-05-25T12:02:57Z</time>
      </trkpt>
      <trkpt lat="43.40412" lon="6.06481">
        <ele>230.60000610352</ele>
        <time>2013-05-25T12:03:02Z</time>
      </trkpt>
      <trkpt lat="43.40414" lon="6.06476">
        <ele>229.60000610352</ele>
        <time>2013-05-25T12:03:03Z</time>
      </trkpt>
      <trkpt lat="43.40415" lon="6.06473">
        <ele>229</ele>
        <time>2013-05-25T12:03:05Z</time>
      </trkpt>
      <trkpt lat="43.40416" lon="6.0647">
        <ele>228.60000610352</ele>
        <time>2013-05-25T12:03:06Z</time>
      </trkpt>
      <trkpt lat="43.40417" lon="6.06461">
        <ele>228.60000610352</ele>
        <time>2013-05-25T12:03:09Z</time>
      </trkpt>
      <trkpt lat="43.40417" lon="6.06454">
        <ele>228.19999694824</ele>
        <time>2013-05-25T12:03:11Z</time>
      </trkpt>
      <trkpt lat="43.40416" lon="6.06452">
        <ele>227.80000305176</ele>
        <time>2013-05-25T12:03:12Z</time>
      </trkpt>
      <trkpt lat="43.40413" lon="6.06443">
        <ele>228.19999694824</ele>
        <time>2013-05-25T12:03:15Z</time>
      </trkpt>
      <trkpt lat="43.40413" lon="6.0644">
        <ele>228.39999389648</ele>
        <time>2013-05-25T12:03:16Z</time>
      </trkpt>
      <trkpt lat="43.40412" lon="6.06437">
        <ele>228.60000610352</ele>
        <time>2013-05-25T12:03:17Z</time>
      </trkpt>
      <trkpt lat="43.40409" lon="6.06424">
        <ele>229.39999389648</ele>
        <time>2013-05-25T12:03:22Z</time>
      </trkpt>
      <trkpt lat="43.40406" lon="6.06418">
        <ele>230.80000305176</ele>
        <time>2013-05-25T12:03:25Z</time>
      </trkpt>
      <trkpt lat="43.40405" lon="6.06407">
        <ele>230.80000305176</ele>
        <time>2013-05-25T12:03:30Z</time>
      </trkpt>
      <trkpt lat="43.404" lon="6.06387">
        <ele>230.80000305176</ele>
        <time>2013-05-25T12:03:38Z</time>
      </trkpt>
      <trkpt lat="43.40398" lon="6.06377">
        <ele>230.80000305176</ele>
        <time>2013-05-25T12:03:42Z</time>
      </trkpt>
      <trkpt lat="43.40398" lon="6.06375">
        <ele>230.80000305176</ele>
        <time>2013-05-25T12:03:43Z</time>
      </trkpt>
      <trkpt lat="43.40393" lon="6.06358">
        <ele>230.80000305176</ele>
        <time>2013-05-25T12:03:50Z</time>
      </trkpt>
      <trkpt lat="43.40388" lon="6.06344">
        <ele>230.80000305176</ele>
        <time>2013-05-25T12:03:55Z</time>
      </trkpt>
      <trkpt lat="43.40379" lon="6.06325">
        <ele>230.80000305176</ele>
        <time>2013-05-25T12:04:02Z</time>
      </trkpt>
      <trkpt lat="43.40371" lon="6.06306">
        <ele>230.80000305176</ele>
        <time>2013-05-25T12:04:09Z</time>
      </trkpt>
      <trkpt lat="43.40366" lon="6.06293">
        <ele>230.80000305176</ele>
        <time>2013-05-25T12:04:14Z</time>
      </trkpt>
      <trkpt lat="43.40357" lon="6.0627">
        <ele>232.19999694824</ele>
        <time>2013-05-25T12:04:22Z</time>
      </trkpt>
      <trkpt lat="43.40356" lon="6.06268">
        <ele>233.19999694824</ele>
        <time>2013-05-25T12:04:23Z</time>
      </trkpt>
      <trkpt lat="43.40352" lon="6.06258">
        <ele>233.19999694824</ele>
        <time>2013-05-25T12:04:27Z</time>
      </trkpt>
      <trkpt lat="43.40346" lon="6.0624">
        <ele>233.19999694824</ele>
        <time>2013-05-25T12:04:34Z</time>
      </trkpt>
      <trkpt lat="43.40343" lon="6.0623">
        <ele>233.19999694824</ele>
        <time>2013-05-25T12:04:39Z</time>
      </trkpt>
      <trkpt lat="43.40349" lon="6.06224">
        <ele>233.19999694824</ele>
        <time>2013-05-25T12:04:44Z</time>
      </trkpt>
      <trkpt lat="43.40351" lon="6.06226">
        <ele>233.19999694824</ele>
        <time>2013-05-25T12:04:47Z</time>
      </trkpt>
      <trkpt lat="43.40356" lon="6.06229">
        <ele>233.19999694824</ele>
        <time>2013-05-25T12:04:49Z</time>
      </trkpt>
      <trkpt lat="43.40369" lon="6.06239">
        <ele>233.19999694824</ele>
        <time>2013-05-25T12:04:54Z</time>
      </trkpt>
      <trkpt lat="43.40371" lon="6.06237">
        <ele>233.19999694824</ele>
        <time>2013-05-25T12:04:55Z</time>
      </trkpt>
      <trkpt lat="43.40372" lon="6.06228">
        <ele>233.19999694824</ele>
        <time>2013-05-25T12:04:58Z</time>
      </trkpt>
      <trkpt lat="43.40372" lon="6.06208">
        <ele>233.19999694824</ele>
        <time>2013-05-25T12:05:05Z</time>
      </trkpt>
      <trkpt lat="43.40373" lon="6.06201">
        <ele>233.19999694824</ele>
        <time>2013-05-25T12:05:07Z</time>
      </trkpt>
      <trkpt lat="43.40373" lon="6.06198">
        <ele>233.19999694824</ele>
        <time>2013-05-25T12:05:08Z</time>
      </trkpt>
      <trkpt lat="43.40372" lon="6.06177">
        <ele>233.19999694824</ele>
        <time>2013-05-25T12:05:14Z</time>
      </trkpt>
      <trkpt lat="43.4037" lon="6.06161">
        <ele>232.60000610352</ele>
        <time>2013-05-25T12:05:18Z</time>
      </trkpt>
      <trkpt lat="43.40369" lon="6.06146">
        <ele>231</ele>
        <time>2013-05-25T12:05:22Z</time>
      </trkpt>
      <trkpt lat="43.40372" lon="6.06124">
        <ele>231</ele>
        <time>2013-05-25T12:05:27Z</time>
      </trkpt>
      <trkpt lat="43.40379" lon="6.06099">
        <ele>231</ele>
        <time>2013-05-25T12:05:32Z</time>
      </trkpt>
      <trkpt lat="43.40381" lon="6.06086">
        <ele>230</ele>
        <time>2013-05-25T12:05:36Z</time>
      </trkpt>
      <trkpt lat="43.40382" lon="6.06084">
        <ele>228.80000305176</ele>
        <time>2013-05-25T12:05:37Z</time>
      </trkpt>
      <trkpt lat="43.40392" lon="6.06076">
        <ele>226.19999694824</ele>
        <time>2013-05-25T12:05:41Z</time>
      </trkpt>
      <trkpt lat="43.40395" lon="6.06072">
        <ele>225.80000305176</ele>
        <time>2013-05-25T12:05:42Z</time>
      </trkpt>
      <trkpt lat="43.40397" lon="6.06069">
        <ele>225.19999694824</ele>
        <time>2013-05-25T12:05:43Z</time>
      </trkpt>
      <trkpt lat="43.404" lon="6.06066">
        <ele>224.60000610352</ele>
        <time>2013-05-25T12:05:44Z</time>
      </trkpt>
      <trkpt lat="43.40406" lon="6.06052">
        <ele>224.19999694824</ele>
        <time>2013-05-25T12:05:48Z</time>
      </trkpt>
      <trkpt lat="43.40407" lon="6.06047">
        <ele>223.80000305176</ele>
        <time>2013-05-25T12:05:49Z</time>
      </trkpt>
      <trkpt lat="43.40408" lon="6.06044">
        <ele>223.39999389648</ele>
        <time>2013-05-25T12:05:50Z</time>
      </trkpt>
      <trkpt lat="43.40408" lon="6.0604">
        <ele>223</ele>
        <time>2013-05-25T12:05:51Z</time>
      </trkpt>
      <trkpt lat="43.40409" lon="6.06036">
        <ele>222.60000610352</ele>
        <time>2013-05-25T12:05:52Z</time>
      </trkpt>
      <trkpt lat="43.40413" lon="6.06004">
        <ele>222.60000610352</ele>
        <time>2013-05-25T12:05:58Z</time>
      </trkpt>
      <trkpt lat="43.40417" lon="6.05978">
        <ele>222.19999694824</ele>
        <time>2013-05-25T12:06:02Z</time>
      </trkpt>
      <trkpt lat="43.40418" lon="6.0597">
        <ele>221.60000610352</ele>
        <time>2013-05-25T12:06:03Z</time>
      </trkpt>
      <trkpt lat="43.4042" lon="6.05963">
        <ele>221.19999694824</ele>
        <time>2013-05-25T12:06:04Z</time>
      </trkpt>
      <trkpt lat="43.40423" lon="6.05955">
        <ele>220.80000305176</ele>
        <time>2013-05-25T12:06:05Z</time>
      </trkpt>
      <trkpt lat="43.40425" lon="6.05948">
        <ele>220.19999694824</ele>
        <time>2013-05-25T12:06:06Z</time>
      </trkpt>
      <trkpt lat="43.40428" lon="6.05942">
        <ele>219.80000305176</ele>
        <time>2013-05-25T12:06:07Z</time>
      </trkpt>
      <trkpt lat="43.4043" lon="6.05937">
        <ele>219.19999694824</ele>
        <time>2013-05-25T12:06:08Z</time>
      </trkpt>
      <trkpt lat="43.40432" lon="6.05932">
        <ele>218.60000610352</ele>
        <time>2013-05-25T12:06:09Z</time>
      </trkpt>
      <trkpt lat="43.40434" lon="6.05927">
        <ele>218</ele>
        <time>2013-05-25T12:06:10Z</time>
      </trkpt>
      <trkpt lat="43.40442" lon="6.05908">
        <ele>218</ele>
        <time>2013-05-25T12:06:16Z</time>
      </trkpt>
      <trkpt lat="43.40441" lon="6.05906">
        <ele>217.60000610352</ele>
        <time>2013-05-25T12:06:20Z</time>
      </trkpt>
      <trkpt lat="43.40441" lon="6.05906">
        <ele>215.80000305176</ele>
        <time>2013-05-25T12:06:24Z</time>
      </trkpt>
      <trkpt lat="43.4044" lon="6.05903">
        <ele>215.80000305176</ele>
        <time>2013-05-25T12:06:30Z</time>
      </trkpt>
      <trkpt lat="43.40439" lon="6.05902">
        <ele>215.80000305176</ele>
        <time>2013-05-25T12:06:31Z</time>
      </trkpt>
      <trkpt lat="43.40435" lon="6.059">
        <ele>215.80000305176</ele>
        <time>2013-05-25T12:06:35Z</time>
      </trkpt>
      <trkpt lat="43.40432" lon="6.05896">
        <ele>216.60000610352</ele>
        <time>2013-05-25T12:06:38Z</time>
      </trkpt>
      <trkpt lat="43.40431" lon="6.05895">
        <ele>217</ele>
        <time>2013-05-25T12:06:39Z</time>
      </trkpt>
      <trkpt lat="43.40424" lon="6.05893">
        <ele>218</ele>
        <time>2013-05-25T12:06:42Z</time>
      </trkpt>
      <trkpt lat="43.40422" lon="6.05892">
        <ele>218</ele>
        <time>2013-05-25T12:06:43Z</time>
      </trkpt>
      <trkpt lat="43.40419" lon="6.05889">
        <ele>218</ele>
        <time>2013-05-25T12:06:46Z</time>
      </trkpt>
      <trkpt lat="43.40415" lon="6.05886">
        <ele>218</ele>
        <time>2013-05-25T12:06:48Z</time>
      </trkpt>
      <trkpt lat="43.40395" lon="6.05879">
        <ele>218</ele>
        <time>2013-05-25T12:06:57Z</time>
      </trkpt>
      <trkpt lat="43.40382" lon="6.05876">
        <ele>218</ele>
        <time>2013-05-25T12:07:02Z</time>
      </trkpt>
      <trkpt lat="43.40367" lon="6.05872">
        <ele>218</ele>
        <time>2013-05-25T12:07:09Z</time>
      </trkpt>
      <trkpt lat="43.40356" lon="6.05869">
        <ele>218</ele>
        <time>2013-05-25T12:07:15Z</time>
      </trkpt>
      <trkpt lat="43.40342" lon="6.05867">
        <ele>218</ele>
        <time>2013-05-25T12:07:22Z</time>
      </trkpt>
      <trkpt lat="43.40324" lon="6.05861">
        <ele>218</ele>
        <time>2013-05-25T12:07:27Z</time>
      </trkpt>
      <trkpt lat="43.40314" lon="6.0586">
        <ele>218.39999389648</ele>
        <time>2013-05-25T12:07:30Z</time>
      </trkpt>
      <trkpt lat="43.40311" lon="6.0586">
        <ele>218.80000305176</ele>
        <time>2013-05-25T12:07:31Z</time>
      </trkpt>
      <trkpt lat="43.40308" lon="6.0586">
        <ele>219.19999694824</ele>
        <time>2013-05-25T12:07:32Z</time>
      </trkpt>
      <trkpt lat="43.40305" lon="6.05859">
        <ele>219.60000610352</ele>
        <time>2013-05-25T12:07:33Z</time>
      </trkpt>
      <trkpt lat="43.40302" lon="6.05858">
        <ele>220</ele>
        <time>2013-05-25T12:07:34Z</time>
      </trkpt>
      <trkpt lat="43.40287" lon="6.05855">
        <ele>220</ele>
        <time>2013-05-25T12:07:39Z</time>
      </trkpt>
      <trkpt lat="43.40253" lon="6.05847">
        <ele>220</ele>
        <time>2013-05-25T12:07:51Z</time>
      </trkpt>
      <trkpt lat="43.40249" lon="6.05846">
        <ele>220.39999389648</ele>
        <time>2013-05-25T12:07:53Z</time>
      </trkpt>
      <trkpt lat="43.40247" lon="6.05845">
        <ele>221</ele>
        <time>2013-05-25T12:07:54Z</time>
      </trkpt>
      <trkpt lat="43.4022" lon="6.0584">
        <ele>222.19999694824</ele>
        <time>2013-05-25T12:08:03Z</time>
      </trkpt>
      <trkpt lat="43.40202" lon="6.05837">
        <ele>222.19999694824</ele>
        <time>2013-05-25T12:08:09Z</time>
      </trkpt>
      <trkpt lat="43.4018" lon="6.05832">
        <ele>222.19999694824</ele>
        <time>2013-05-25T12:08:17Z</time>
      </trkpt>
      <trkpt lat="43.40165" lon="6.0583">
        <ele>222.60000610352</ele>
        <time>2013-05-25T12:08:22Z</time>
      </trkpt>
      <trkpt lat="43.40158" lon="6.05828">
        <ele>224</ele>
        <time>2013-05-25T12:08:25Z</time>
      </trkpt>
      <trkpt lat="43.40155" lon="6.05828">
        <ele>224.39999389648</ele>
        <time>2013-05-25T12:08:26Z</time>
      </trkpt>
      <trkpt lat="43.40141" lon="6.05825">
        <ele>224.39999389648</ele>
        <time>2013-05-25T12:08:30Z</time>
      </trkpt>
      <trkpt lat="43.40127" lon="6.05821">
        <ele>224.39999389648</ele>
        <time>2013-05-25T12:08:35Z</time>
      </trkpt>
      <trkpt lat="43.40109" lon="6.05819">
        <ele>224.39999389648</ele>
        <time>2013-05-25T12:08:42Z</time>
      </trkpt>
      <trkpt lat="43.40086" lon="6.05814">
        <ele>224.80000305176</ele>
        <time>2013-05-25T12:08:50Z</time>
      </trkpt>
      <trkpt lat="43.40079" lon="6.05813">
        <ele>225.80000305176</ele>
        <time>2013-05-25T12:08:52Z</time>
      </trkpt>
      <trkpt lat="43.40073" lon="6.05812">
        <ele>226.80000305176</ele>
        <time>2013-05-25T12:08:54Z</time>
      </trkpt>
      <trkpt lat="43.40059" lon="6.05809">
        <ele>226.80000305176</ele>
        <time>2013-05-25T12:08:59Z</time>
      </trkpt>
      <trkpt lat="43.40038" lon="6.05804">
        <ele>226.80000305176</ele>
        <time>2013-05-25T12:09:07Z</time>
      </trkpt>
      <trkpt lat="43.40023" lon="6.058">
        <ele>227.19999694824</ele>
        <time>2013-05-25T12:09:12Z</time>
      </trkpt>
      <trkpt lat="43.40017" lon="6.05799">
        <ele>228.19999694824</ele>
        <time>2013-05-25T12:09:14Z</time>
      </trkpt>
      <trkpt lat="43.4001" lon="6.05798">
        <ele>229.39999389648</ele>
        <time>2013-05-25T12:09:16Z</time>
      </trkpt>
      <trkpt lat="43.39999" lon="6.05794">
        <ele>229.39999389648</ele>
        <time>2013-05-25T12:09:20Z</time>
      </trkpt>
      <trkpt lat="43.39988" lon="6.05789">
        <ele>229.39999389648</ele>
        <time>2013-05-25T12:09:25Z</time>
      </trkpt>
      <trkpt lat="43.39965" lon="6.05778">
        <ele>229.39999389648</ele>
        <time>2013-05-25T12:09:33Z</time>
      </trkpt>
      <trkpt lat="43.39948" lon="6.05767">
        <ele>229.39999389648</ele>
        <time>2013-05-25T12:09:40Z</time>
      </trkpt>
      <trkpt lat="43.39924" lon="6.05751">
        <ele>229.39999389648</ele>
        <time>2013-05-25T12:09:48Z</time>
      </trkpt>
      <trkpt lat="43.39906" lon="6.05733">
        <ele>229.39999389648</ele>
        <time>2013-05-25T12:09:55Z</time>
      </trkpt>
      <trkpt lat="43.39888" lon="6.05713">
        <ele>229.39999389648</ele>
        <time>2013-05-25T12:10:02Z</time>
      </trkpt>
      <trkpt lat="43.39867" lon="6.05685">
        <ele>229.39999389648</ele>
        <time>2013-05-25T12:10:11Z</time>
      </trkpt>
      <trkpt lat="43.39852" lon="6.05663">
        <ele>229.39999389648</ele>
        <time>2013-05-25T12:10:18Z</time>
      </trkpt>
      <trkpt lat="43.39845" lon="6.05645">
        <ele>228.39999389648</ele>
        <time>2013-05-25T12:10:23Z</time>
      </trkpt>
      <trkpt lat="43.3984" lon="6.05635">
        <ele>227.19999694824</ele>
        <time>2013-05-25T12:10:26Z</time>
      </trkpt>
      <trkpt lat="43.39833" lon="6.0562">
        <ele>227.19999694824</ele>
        <time>2013-05-25T12:10:30Z</time>
      </trkpt>
      <trkpt lat="43.39822" lon="6.0559">
        <ele>227.19999694824</ele>
        <time>2013-05-25T12:10:38Z</time>
      </trkpt>
      <trkpt lat="43.39814" lon="6.05569">
        <ele>227.19999694824</ele>
        <time>2013-05-25T12:10:44Z</time>
      </trkpt>
      <trkpt lat="43.39804" lon="6.05536">
        <ele>227.19999694824</ele>
        <time>2013-05-25T12:10:53Z</time>
      </trkpt>
      <trkpt lat="43.39793" lon="6.05523">
        <ele>227.19999694824</ele>
        <time>2013-05-25T12:10:58Z</time>
      </trkpt>
      <trkpt lat="43.39784" lon="6.05512">
        <ele>227.19999694824</ele>
        <time>2013-05-25T12:11:03Z</time>
      </trkpt>
      <trkpt lat="43.39782" lon="6.05509">
        <ele>227.60000610352</ele>
        <time>2013-05-25T12:11:04Z</time>
      </trkpt>
      <trkpt lat="43.39781" lon="6.05507">
        <ele>228</ele>
        <time>2013-05-25T12:11:05Z</time>
      </trkpt>
      <trkpt lat="43.3978" lon="6.05505">
        <ele>228.60000610352</ele>
        <time>2013-05-25T12:11:06Z</time>
      </trkpt>
      <trkpt lat="43.39779" lon="6.05503">
        <ele>229</ele>
        <time>2013-05-25T12:11:07Z</time>
      </trkpt>
      <trkpt lat="43.39779" lon="6.05501">
        <ele>229.60000610352</ele>
        <time>2013-05-25T12:11:08Z</time>
      </trkpt>
      <trkpt lat="43.39778" lon="6.05498">
        <ele>229.60000610352</ele>
        <time>2013-05-25T12:11:09Z</time>
      </trkpt>
      <trkpt lat="43.39775" lon="6.05486">
        <ele>230</ele>
        <time>2013-05-25T12:11:13Z</time>
      </trkpt>
      <trkpt lat="43.39771" lon="6.05471">
        <ele>232</ele>
        <time>2013-05-25T12:11:17Z</time>
      </trkpt>
      <trkpt lat="43.39765" lon="6.05449">
        <ele>232</ele>
        <time>2013-05-25T12:11:23Z</time>
      </trkpt>
      <trkpt lat="43.39757" lon="6.05412">
        <ele>232</ele>
        <time>2013-05-25T12:11:33Z</time>
      </trkpt>
      <trkpt lat="43.39751" lon="6.05392">
        <ele>232</ele>
        <time>2013-05-25T12:11:38Z</time>
      </trkpt>
      <trkpt lat="43.39749" lon="6.05385">
        <ele>232</ele>
        <time>2013-05-25T12:11:40Z</time>
      </trkpt>
      <trkpt lat="43.39744" lon="6.05368">
        <ele>231.39999389648</ele>
        <time>2013-05-25T12:11:46Z</time>
      </trkpt>
      <trkpt lat="43.39742" lon="6.05363">
        <ele>230.60000610352</ele>
        <time>2013-05-25T12:11:48Z</time>
      </trkpt>
      <trkpt lat="43.3974" lon="6.0536">
        <ele>230</ele>
        <time>2013-05-25T12:11:49Z</time>
      </trkpt>
      <trkpt lat="43.39739" lon="6.05357">
        <ele>229.60000610352</ele>
        <time>2013-05-25T12:11:50Z</time>
      </trkpt>
      <trkpt lat="43.39735" lon="6.05343">
        <ele>229.19999694824</ele>
        <time>2013-05-25T12:11:55Z</time>
      </trkpt>
      <trkpt lat="43.39732" lon="6.05337">
        <ele>228.19999694824</ele>
        <time>2013-05-25T12:11:57Z</time>
      </trkpt>
      <trkpt lat="43.3973" lon="6.05323">
        <ele>227.39999389648</ele>
        <time>2013-05-25T12:12:01Z</time>
      </trkpt>
      <trkpt lat="43.39724" lon="6.05294">
        <ele>227.39999389648</ele>
        <time>2013-05-25T12:12:08Z</time>
      </trkpt>
      <trkpt lat="43.39719" lon="6.05266">
        <ele>227.39999389648</ele>
        <time>2013-05-25T12:12:15Z</time>
      </trkpt>
      <trkpt lat="43.39717" lon="6.0523">
        <ele>227.39999389648</ele>
        <time>2013-05-25T12:12:24Z</time>
      </trkpt>
      <trkpt lat="43.39714" lon="6.05203">
        <ele>227.80000305176</ele>
        <time>2013-05-25T12:12:31Z</time>
      </trkpt>
      <trkpt lat="43.39713" lon="6.05199">
        <ele>228.19999694824</ele>
        <time>2013-05-25T12:12:32Z</time>
      </trkpt>
      <trkpt lat="43.39711" lon="6.05179">
        <ele>229.60000610352</ele>
        <time>2013-05-25T12:12:37Z</time>
      </trkpt>
      <trkpt lat="43.39706" lon="6.05145">
        <ele>229.60000610352</ele>
        <time>2013-05-25T12:12:47Z</time>
      </trkpt>
      <trkpt lat="43.39705" lon="6.05127">
        <ele>229.60000610352</ele>
        <time>2013-05-25T12:12:53Z</time>
      </trkpt>
      <trkpt lat="43.3969" lon="6.05072">
        <ele>229.60000610352</ele>
        <time>2013-05-25T12:13:09Z</time>
      </trkpt>
      <trkpt lat="43.3968" lon="6.05044">
        <ele>229.60000610352</ele>
        <time>2013-05-25T12:13:17Z</time>
      </trkpt>
      <trkpt lat="43.39677" lon="6.05038">
        <ele>230</ele>
        <time>2013-05-25T12:13:19Z</time>
      </trkpt>
      <trkpt lat="43.39676" lon="6.05034">
        <ele>230.39999389648</ele>
        <time>2013-05-25T12:13:20Z</time>
      </trkpt>
      <trkpt lat="43.39675" lon="6.05031">
        <ele>230.80000305176</ele>
        <time>2013-05-25T12:13:21Z</time>
      </trkpt>
      <trkpt lat="43.39673" lon="6.05025">
        <ele>231.60000610352</ele>
        <time>2013-05-25T12:13:23Z</time>
      </trkpt>
      <trkpt lat="43.39672" lon="6.05022">
        <ele>231.60000610352</ele>
        <time>2013-05-25T12:13:24Z</time>
      </trkpt>
      <trkpt lat="43.39663" lon="6.0501">
        <ele>231.60000610352</ele>
        <time>2013-05-25T12:13:30Z</time>
      </trkpt>
      <trkpt lat="43.39653" lon="6.05007">
        <ele>232</ele>
        <time>2013-05-25T12:13:36Z</time>
      </trkpt>
      <trkpt lat="43.39651" lon="6.05007">
        <ele>232.60000610352</ele>
        <time>2013-05-25T12:13:37Z</time>
      </trkpt>
      <trkpt lat="43.39648" lon="6.05008">
        <ele>233.39999389648</ele>
        <time>2013-05-25T12:13:39Z</time>
      </trkpt>
      <trkpt lat="43.39645" lon="6.05009">
        <ele>233.80000305176</ele>
        <time>2013-05-25T12:13:40Z</time>
      </trkpt>
      <trkpt lat="43.39641" lon="6.0501">
        <ele>233.80000305176</ele>
        <time>2013-05-25T12:13:43Z</time>
      </trkpt>
      <trkpt lat="43.39638" lon="6.0501">
        <ele>234.19999694824</ele>
        <time>2013-05-25T12:13:45Z</time>
      </trkpt>
      <trkpt lat="43.39636" lon="6.05008">
        <ele>234.60000610352</ele>
        <time>2013-05-25T12:13:46Z</time>
      </trkpt>
      <trkpt lat="43.39633" lon="6.05003">
        <ele>235.80000305176</ele>
        <time>2013-05-25T12:13:49Z</time>
      </trkpt>
      <trkpt lat="43.39628" lon="6.04987">
        <ele>236.60000610352</ele>
        <time>2013-05-25T12:13:56Z</time>
      </trkpt>
      <trkpt lat="43.39625" lon="6.04979">
        <ele>237.80000305176</ele>
        <time>2013-05-25T12:14:00Z</time>
      </trkpt>
      <trkpt lat="43.39618" lon="6.04962">
        <ele>237.80000305176</ele>
        <time>2013-05-25T12:14:08Z</time>
      </trkpt>
      <trkpt lat="43.39612" lon="6.04951">
        <ele>238.39999389648</ele>
        <time>2013-05-25T12:14:14Z</time>
      </trkpt>
      <trkpt lat="43.39611" lon="6.0495">
        <ele>239.19999694824</ele>
        <time>2013-05-25T12:14:15Z</time>
      </trkpt>
      <trkpt lat="43.39609" lon="6.04946">
        <ele>240</ele>
        <time>2013-05-25T12:14:17Z</time>
      </trkpt>
      <trkpt lat="43.39606" lon="6.0494">
        <ele>240</ele>
        <time>2013-05-25T12:14:21Z</time>
      </trkpt>
      <trkpt lat="43.39601" lon="6.04929">
        <ele>240.39999389648</ele>
        <time>2013-05-25T12:14:26Z</time>
      </trkpt>
      <trkpt lat="43.39597" lon="6.04921">
        <ele>242.19999694824</ele>
        <time>2013-05-25T12:14:30Z</time>
      </trkpt>
      <trkpt lat="43.39591" lon="6.04912">
        <ele>242.19999694824</ele>
        <time>2013-05-25T12:14:35Z</time>
      </trkpt>
      <trkpt lat="43.39584" lon="6.049">
        <ele>243.60000610352</ele>
        <time>2013-05-25T12:14:42Z</time>
      </trkpt>
      <trkpt lat="43.39577" lon="6.04886">
        <ele>244.39999389648</ele>
        <time>2013-05-25T12:14:49Z</time>
      </trkpt>
      <trkpt lat="43.39573" lon="6.0488">
        <ele>244.80000305176</ele>
        <time>2013-05-25T12:14:52Z</time>
      </trkpt>
      <trkpt lat="43.39571" lon="6.04878">
        <ele>245.19999694824</ele>
        <time>2013-05-25T12:14:53Z</time>
      </trkpt>
      <trkpt lat="43.39567" lon="6.04873">
        <ele>246.60000610352</ele>
        <time>2013-05-25T12:14:56Z</time>
      </trkpt>
      <trkpt lat="43.39563" lon="6.04866">
        <ele>246.60000610352</ele>
        <time>2013-05-25T12:15:01Z</time>
      </trkpt>
      <trkpt lat="43.39559" lon="6.0486">
        <ele>246.60000610352</ele>
        <time>2013-05-25T12:15:05Z</time>
      </trkpt>
      <trkpt lat="43.39557" lon="6.04857">
        <ele>246.60000610352</ele>
        <time>2013-05-25T12:15:07Z</time>
      </trkpt>
      <trkpt lat="43.39553" lon="6.04854">
        <ele>247</ele>
        <time>2013-05-25T12:15:10Z</time>
      </trkpt>
      <trkpt lat="43.39552" lon="6.04852">
        <ele>247.80000305176</ele>
        <time>2013-05-25T12:15:12Z</time>
      </trkpt>
      <trkpt lat="43.3955" lon="6.04851">
        <ele>248.39999389648</ele>
        <time>2013-05-25T12:15:13Z</time>
      </trkpt>
      <trkpt lat="43.39545" lon="6.04852">
        <ele>248.80000305176</ele>
        <time>2013-05-25T12:15:17Z</time>
      </trkpt>
      <trkpt lat="43.39544" lon="6.04853">
        <ele>249.19999694824</ele>
        <time>2013-05-25T12:15:18Z</time>
      </trkpt>
      <trkpt lat="43.39538" lon="6.04857">
        <ele>251</ele>
        <time>2013-05-25T12:15:22Z</time>
      </trkpt>
      <trkpt lat="43.3953" lon="6.04862">
        <ele>251.39999389648</ele>
        <time>2013-05-25T12:15:28Z</time>
      </trkpt>
      <trkpt lat="43.39525" lon="6.04868">
        <ele>253</ele>
        <time>2013-05-25T12:15:33Z</time>
      </trkpt>
      <trkpt lat="43.39521" lon="6.04872">
        <ele>253.39999389648</ele>
        <time>2013-05-25T12:15:37Z</time>
      </trkpt>
      <trkpt lat="43.3952" lon="6.04872">
        <ele>253.80000305176</ele>
        <time>2013-05-25T12:15:38Z</time>
      </trkpt>
      <trkpt lat="43.39519" lon="6.04874">
        <ele>254.19999694824</ele>
        <time>2013-05-25T12:15:39Z</time>
      </trkpt>
      <trkpt lat="43.39517" lon="6.04876">
        <ele>255</ele>
        <time>2013-05-25T12:15:41Z</time>
      </trkpt>
      <trkpt lat="43.39516" lon="6.04877">
        <ele>255</ele>
        <time>2013-05-25T12:15:43Z</time>
      </trkpt>
      <trkpt lat="43.39502" lon="6.04885">
        <ele>256.60000610352</ele>
        <time>2013-05-25T12:15:53Z</time>
      </trkpt>
      <trkpt lat="43.395" lon="6.04886">
        <ele>257</ele>
        <time>2013-05-25T12:15:54Z</time>
      </trkpt>
      <trkpt lat="43.39489" lon="6.04887">
        <ele>257</ele>
        <time>2013-05-25T12:16:00Z</time>
      </trkpt>
      <trkpt lat="43.39478" lon="6.04886">
        <ele>257</ele>
        <time>2013-05-25T12:16:06Z</time>
      </trkpt>
      <trkpt lat="43.39474" lon="6.04884">
        <ele>257</ele>
        <time>2013-05-25T12:16:08Z</time>
      </trkpt>
      <trkpt lat="43.39468" lon="6.04883">
        <ele>257</ele>
        <time>2013-05-25T12:16:11Z</time>
      </trkpt>
      <trkpt lat="43.39458" lon="6.04881">
        <ele>257</ele>
        <time>2013-05-25T12:16:15Z</time>
      </trkpt>
      <trkpt lat="43.39452" lon="6.0488">
        <ele>257</ele>
        <time>2013-05-25T12:16:18Z</time>
      </trkpt>
      <trkpt lat="43.39436" lon="6.04877">
        <ele>257</ele>
        <time>2013-05-25T12:16:26Z</time>
      </trkpt>
      <trkpt lat="43.39425" lon="6.04877">
        <ele>257</ele>
        <time>2013-05-25T12:16:32Z</time>
      </trkpt>
      <trkpt lat="43.39411" lon="6.04877">
        <ele>257</ele>
        <time>2013-05-25T12:16:40Z</time>
      </trkpt>
      <trkpt lat="43.39399" lon="6.04879">
        <ele>257.60000610352</ele>
        <time>2013-05-25T12:16:46Z</time>
      </trkpt>
      <trkpt lat="43.39392" lon="6.04881">
        <ele>259.20001220703</ele>
        <time>2013-05-25T12:16:50Z</time>
      </trkpt>
      <trkpt lat="43.39384" lon="6.04884">
        <ele>259.60000610352</ele>
        <time>2013-05-25T12:16:55Z</time>
      </trkpt>
      <trkpt lat="43.39379" lon="6.04887">
        <ele>260.79998779297</ele>
        <time>2013-05-25T12:16:58Z</time>
      </trkpt>
      <trkpt lat="43.39376" lon="6.04888">
        <ele>261.39999389648</ele>
        <time>2013-05-25T12:17:00Z</time>
      </trkpt>
      <trkpt lat="43.39364" lon="6.04893">
        <ele>261.39999389648</ele>
        <time>2013-05-25T12:17:06Z</time>
      </trkpt>
      <trkpt lat="43.39362" lon="6.04894">
        <ele>261.39999389648</ele>
        <time>2013-05-25T12:17:07Z</time>
      </trkpt>
      <trkpt lat="43.39351" lon="6.04903">
        <ele>261.39999389648</ele>
        <time>2013-05-25T12:17:13Z</time>
      </trkpt>
      <trkpt lat="43.39348" lon="6.04904">
        <ele>261.39999389648</ele>
        <time>2013-05-25T12:17:14Z</time>
      </trkpt>
      <trkpt lat="43.39335" lon="6.04914">
        <ele>261.39999389648</ele>
        <time>2013-05-25T12:17:19Z</time>
      </trkpt>
      <trkpt lat="43.39333" lon="6.04916">
        <ele>261.39999389648</ele>
        <time>2013-05-25T12:17:20Z</time>
      </trkpt>
      <trkpt lat="43.39323" lon="6.04922">
        <ele>261.39999389648</ele>
        <time>2013-05-25T12:17:26Z</time>
      </trkpt>
      <trkpt lat="43.39315" lon="6.04926">
        <ele>261.39999389648</ele>
        <time>2013-05-25T12:17:31Z</time>
      </trkpt>
      <trkpt lat="43.39312" lon="6.04928">
        <ele>262.60000610352</ele>
        <time>2013-05-25T12:17:33Z</time>
      </trkpt>
      <trkpt lat="43.39309" lon="6.04929">
        <ele>263.60000610352</ele>
        <time>2013-05-25T12:17:35Z</time>
      </trkpt>
      <trkpt lat="43.39299" lon="6.04933">
        <ele>263.60000610352</ele>
        <time>2013-05-25T12:17:40Z</time>
      </trkpt>
      <trkpt lat="43.39294" lon="6.04936">
        <ele>264.39999389648</ele>
        <time>2013-05-25T12:17:44Z</time>
      </trkpt>
      <trkpt lat="43.39292" lon="6.04937">
        <ele>264.79998779297</ele>
        <time>2013-05-25T12:17:45Z</time>
      </trkpt>
      <trkpt lat="43.39283" lon="6.04942">
        <ele>266</ele>
        <time>2013-05-25T12:17:51Z</time>
      </trkpt>
      <trkpt lat="43.39276" lon="6.04945">
        <ele>267.60000610352</ele>
        <time>2013-05-25T12:17:55Z</time>
      </trkpt>
      <trkpt lat="43.39269" lon="6.04949">
        <ele>269</ele>
        <time>2013-05-25T12:18:00Z</time>
      </trkpt>
      <trkpt lat="43.39266" lon="6.04951">
        <ele>269.79998779297</ele>
        <time>2013-05-25T12:18:02Z</time>
      </trkpt>
      <trkpt lat="43.39254" lon="6.04959">
        <ele>269.79998779297</ele>
        <time>2013-05-25T12:18:10Z</time>
      </trkpt>
      <trkpt lat="43.39251" lon="6.04963">
        <ele>269.79998779297</ele>
        <time>2013-05-25T12:18:13Z</time>
      </trkpt>
      <trkpt lat="43.39248" lon="6.04964">
        <ele>269.79998779297</ele>
        <time>2013-05-25T12:18:15Z</time>
      </trkpt>
      <trkpt lat="43.39245" lon="6.04965">
        <ele>269.79998779297</ele>
        <time>2013-05-25T12:18:17Z</time>
      </trkpt>
      <trkpt lat="43.39241" lon="6.04967">
        <ele>271.60000610352</ele>
        <time>2013-05-25T12:18:22Z</time>
      </trkpt>
      <trkpt lat="43.3924" lon="6.04968">
        <ele>272</ele>
        <time>2013-05-25T12:18:23Z</time>
      </trkpt>
      <trkpt lat="43.39234" lon="6.04969">
        <ele>272</ele>
        <time>2013-05-25T12:18:27Z</time>
      </trkpt>
      <trkpt lat="43.3923" lon="6.04971">
        <ele>272.79998779297</ele>
        <time>2013-05-25T12:18:30Z</time>
      </trkpt>
      <trkpt lat="43.39228" lon="6.04972">
        <ele>273.79998779297</ele>
        <time>2013-05-25T12:18:32Z</time>
      </trkpt>
      <trkpt lat="43.39217" lon="6.04978">
        <ele>275.20001220703</ele>
        <time>2013-05-25T12:18:40Z</time>
      </trkpt>
      <trkpt lat="43.39213" lon="6.04979">
        <ele>276.39999389648</ele>
        <time>2013-05-25T12:18:43Z</time>
      </trkpt>
      <trkpt lat="43.39211" lon="6.04981">
        <ele>276.39999389648</ele>
        <time>2013-05-25T12:18:45Z</time>
      </trkpt>
      <trkpt lat="43.39209" lon="6.04982">
        <ele>276.39999389648</ele>
        <time>2013-05-25T12:18:47Z</time>
      </trkpt>
      <trkpt lat="43.39205" lon="6.04988">
        <ele>277.20001220703</ele>
        <time>2013-05-25T12:18:52Z</time>
      </trkpt>
      <trkpt lat="43.39204" lon="6.04988">
        <ele>277.60000610352</ele>
        <time>2013-05-25T12:18:53Z</time>
      </trkpt>
      <trkpt lat="43.39203" lon="6.0499">
        <ele>278.60000610352</ele>
        <time>2013-05-25T12:18:55Z</time>
      </trkpt>
      <trkpt lat="43.39202" lon="6.04991">
        <ele>278.60000610352</ele>
        <time>2013-05-25T12:18:56Z</time>
      </trkpt>
      <trkpt lat="43.39202" lon="6.04994">
        <ele>278.60000610352</ele>
        <time>2013-05-25T12:18:58Z</time>
      </trkpt>
      <trkpt lat="43.39202" lon="6.04995">
        <ele>278.60000610352</ele>
        <time>2013-05-25T12:18:59Z</time>
      </trkpt>
      <trkpt lat="43.39201" lon="6.05001">
        <ele>278.60000610352</ele>
        <time>2013-05-25T12:19:03Z</time>
      </trkpt>
      <trkpt lat="43.392" lon="6.05009">
        <ele>278.60000610352</ele>
        <time>2013-05-25T12:19:08Z</time>
      </trkpt>
      <trkpt lat="43.39199" lon="6.05019">
        <ele>278.60000610352</ele>
        <time>2013-05-25T12:19:11Z</time>
      </trkpt>
      <trkpt lat="43.39198" lon="6.0503">
        <ele>278.60000610352</ele>
        <time>2013-05-25T12:19:13Z</time>
      </trkpt>
      <trkpt lat="43.39194" lon="6.05045">
        <ele>278.60000610352</ele>
        <time>2013-05-25T12:19:16Z</time>
      </trkpt>
      <trkpt lat="43.39191" lon="6.05056">
        <ele>278</ele>
        <time>2013-05-25T12:19:18Z</time>
      </trkpt>
      <trkpt lat="43.3919" lon="6.05061">
        <ele>277.60000610352</ele>
        <time>2013-05-25T12:19:19Z</time>
      </trkpt>
      <trkpt lat="43.39187" lon="6.05066">
        <ele>277.20001220703</ele>
        <time>2013-05-25T12:19:20Z</time>
      </trkpt>
      <trkpt lat="43.39185" lon="6.05071">
        <ele>276.79998779297</ele>
        <time>2013-05-25T12:19:21Z</time>
      </trkpt>
      <trkpt lat="43.39183" lon="6.05075">
        <ele>276.39999389648</ele>
        <time>2013-05-25T12:19:22Z</time>
      </trkpt>
      <trkpt lat="43.39176" lon="6.05088">
        <ele>276</ele>
        <time>2013-05-25T12:19:25Z</time>
      </trkpt>
      <trkpt lat="43.39174" lon="6.05091">
        <ele>275.39999389648</ele>
        <time>2013-05-25T12:19:26Z</time>
      </trkpt>
      <trkpt lat="43.39172" lon="6.05094">
        <ele>275</ele>
        <time>2013-05-25T12:19:27Z</time>
      </trkpt>
      <trkpt lat="43.39172" lon="6.05095">
        <ele>274.60000610352</ele>
        <time>2013-05-25T12:19:28Z</time>
      </trkpt>
      <trkpt lat="43.39171" lon="6.05096">
        <ele>274.20001220703</ele>
        <time>2013-05-25T12:19:29Z</time>
      </trkpt>
      <trkpt lat="43.39169" lon="6.05099">
        <ele>274.20001220703</ele>
        <time>2013-05-25T12:19:32Z</time>
      </trkpt>
      <trkpt lat="43.39164" lon="6.05103">
        <ele>274.20001220703</ele>
        <time>2013-05-25T12:19:35Z</time>
      </trkpt>
      <trkpt lat="43.39161" lon="6.05105">
        <ele>274.60000610352</ele>
        <time>2013-05-25T12:19:37Z</time>
      </trkpt>
      <trkpt lat="43.39161" lon="6.05105">
        <ele>275.20001220703</ele>
        <time>2013-05-25T12:19:38Z</time>
      </trkpt>
      <trkpt lat="43.39158" lon="6.05107">
        <ele>276</ele>
        <time>2013-05-25T12:19:40Z</time>
      </trkpt>
      <trkpt lat="43.39158" lon="6.05107">
        <ele>276.39999389648</ele>
        <time>2013-05-25T12:19:41Z</time>
      </trkpt>
      <trkpt lat="43.39146" lon="6.05106">
        <ele>276.39999389648</ele>
        <time>2013-05-25T12:19:51Z</time>
      </trkpt>
      <trkpt lat="43.39143" lon="6.05106">
        <ele>276.79998779297</ele>
        <time>2013-05-25T12:19:53Z</time>
      </trkpt>
      <trkpt lat="43.39136" lon="6.05105">
        <ele>278.39999389648</ele>
        <time>2013-05-25T12:19:57Z</time>
      </trkpt>
      <trkpt lat="43.39133" lon="6.05105">
        <ele>278.39999389648</ele>
        <time>2013-05-25T12:19:59Z</time>
      </trkpt>
      <trkpt lat="43.39127" lon="6.05106">
        <ele>278.39999389648</ele>
        <time>2013-05-25T12:20:04Z</time>
      </trkpt>
      <trkpt lat="43.39124" lon="6.05107">
        <ele>279.79998779297</ele>
        <time>2013-05-25T12:20:07Z</time>
      </trkpt>
      <trkpt lat="43.39124" lon="6.05107">
        <ele>280.20001220703</ele>
        <time>2013-05-25T12:20:08Z</time>
      </trkpt>
      <trkpt lat="43.39122" lon="6.05107">
        <ele>280.60000610352</ele>
        <time>2013-05-25T12:20:09Z</time>
      </trkpt>
      <trkpt lat="43.39118" lon="6.05107">
        <ele>280.60000610352</ele>
        <time>2013-05-25T12:20:12Z</time>
      </trkpt>
      <trkpt lat="43.39114" lon="6.05108">
        <ele>281</ele>
        <time>2013-05-25T12:20:16Z</time>
      </trkpt>
      <trkpt lat="43.39112" lon="6.05108">
        <ele>281.79998779297</ele>
        <time>2013-05-25T12:20:18Z</time>
      </trkpt>
      <trkpt lat="43.39111" lon="6.05109">
        <ele>282.60000610352</ele>
        <time>2013-05-25T12:20:20Z</time>
      </trkpt>
      <trkpt lat="43.39105" lon="6.05111">
        <ele>283</ele>
        <time>2013-05-25T12:20:25Z</time>
      </trkpt>
      <trkpt lat="43.39096" lon="6.05116">
        <ele>285.20001220703</ele>
        <time>2013-05-25T12:20:32Z</time>
      </trkpt>
      <trkpt lat="43.39095" lon="6.05117">
        <ele>285.60000610352</ele>
        <time>2013-05-25T12:20:33Z</time>
      </trkpt>
      <trkpt lat="43.39093" lon="6.05119">
        <ele>286.60000610352</ele>
        <time>2013-05-25T12:20:35Z</time>
      </trkpt>
      <trkpt lat="43.39092" lon="6.0512">
        <ele>287</ele>
        <time>2013-05-25T12:20:36Z</time>
      </trkpt>
      <trkpt lat="43.39089" lon="6.05125">
        <ele>287</ele>
        <time>2013-05-25T12:20:40Z</time>
      </trkpt>
      <trkpt lat="43.39088" lon="6.05132">
        <ele>288.60000610352</ele>
        <time>2013-05-25T12:20:45Z</time>
      </trkpt>
      <trkpt lat="43.39087" lon="6.05136">
        <ele>289</ele>
        <time>2013-05-25T12:20:48Z</time>
      </trkpt>
      <trkpt lat="43.39087" lon="6.0514">
        <ele>289.39999389648</ele>
        <time>2013-05-25T12:20:52Z</time>
      </trkpt>
      <trkpt lat="43.39086" lon="6.05143">
        <ele>290.20001220703</ele>
        <time>2013-05-25T12:20:54Z</time>
      </trkpt>
      <trkpt lat="43.39086" lon="6.05145">
        <ele>290.60000610352</ele>
        <time>2013-05-25T12:20:55Z</time>
      </trkpt>
      <trkpt lat="43.39086" lon="6.05146">
        <ele>291</ele>
        <time>2013-05-25T12:20:56Z</time>
      </trkpt>
      <trkpt lat="43.39084" lon="6.05149">
        <ele>291</ele>
        <time>2013-05-25T12:21:04Z</time>
      </trkpt>
      <trkpt lat="43.39084" lon="6.05149">
        <ele>291</ele>
        <time>2013-05-25T12:21:14Z</time>
      </trkpt>
      <trkpt lat="43.39084" lon="6.05149">
        <ele>291</ele>
        <time>2013-05-25T12:21:18Z</time>
      </trkpt>
      <trkpt lat="43.39083" lon="6.05154">
        <ele>291</ele>
        <time>2013-05-25T12:21:23Z</time>
      </trkpt>
      <trkpt lat="43.39082" lon="6.05157">
        <ele>291.60000610352</ele>
        <time>2013-05-25T12:21:26Z</time>
      </trkpt>
      <trkpt lat="43.39082" lon="6.05159">
        <ele>292.39999389648</ele>
        <time>2013-05-25T12:21:28Z</time>
      </trkpt>
      <trkpt lat="43.39082" lon="6.05162">
        <ele>293.20001220703</ele>
        <time>2013-05-25T12:21:30Z</time>
      </trkpt>
      <trkpt lat="43.3908" lon="6.05167">
        <ele>293.20001220703</ele>
        <time>2013-05-25T12:21:34Z</time>
      </trkpt>
      <trkpt lat="43.39076" lon="6.05175">
        <ele>293.20001220703</ele>
        <time>2013-05-25T12:21:42Z</time>
      </trkpt>
      <trkpt lat="43.39074" lon="6.05178">
        <ele>293.79998779297</ele>
        <time>2013-05-25T12:21:45Z</time>
      </trkpt>
      <trkpt lat="43.39068" lon="6.05189">
        <ele>295.60000610352</ele>
        <time>2013-05-25T12:21:56Z</time>
      </trkpt>
      <trkpt lat="43.39064" lon="6.05196">
        <ele>295.60000610352</ele>
        <time>2013-05-25T12:22:03Z</time>
      </trkpt>
      <trkpt lat="43.39062" lon="6.052">
        <ele>296</ele>
        <time>2013-05-25T12:22:06Z</time>
      </trkpt>
      <trkpt lat="43.3906" lon="6.05203">
        <ele>297.39999389648</ele>
        <time>2013-05-25T12:22:09Z</time>
      </trkpt>
      <trkpt lat="43.39059" lon="6.05204">
        <ele>297.79998779297</ele>
        <time>2013-05-25T12:22:10Z</time>
      </trkpt>
      <trkpt lat="43.39058" lon="6.05211">
        <ele>297.79998779297</ele>
        <time>2013-05-25T12:22:16Z</time>
      </trkpt>
      <trkpt lat="43.39058" lon="6.05212">
        <ele>297.79998779297</ele>
        <time>2013-05-25T12:22:17Z</time>
      </trkpt>
      <trkpt lat="43.39056" lon="6.0522">
        <ele>297.79998779297</ele>
        <time>2013-05-25T12:22:25Z</time>
      </trkpt>
      <trkpt lat="43.39056" lon="6.0522">
        <ele>298.20001220703</ele>
        <time>2013-05-25T12:22:35Z</time>
      </trkpt>
      <trkpt lat="43.39055" lon="6.05223">
        <ele>299.20001220703</ele>
        <time>2013-05-25T12:22:37Z</time>
      </trkpt>
      <trkpt lat="43.39054" lon="6.05226">
        <ele>300.20001220703</ele>
        <time>2013-05-25T12:22:39Z</time>
      </trkpt>
      <trkpt lat="43.39053" lon="6.05235">
        <ele>300.20001220703</ele>
        <time>2013-05-25T12:22:45Z</time>
      </trkpt>
      <trkpt lat="43.39052" lon="6.05237">
        <ele>300.20001220703</ele>
        <time>2013-05-25T12:22:47Z</time>
      </trkpt>
      <trkpt lat="43.39048" lon="6.05245">
        <ele>300.20001220703</ele>
        <time>2013-05-25T12:22:54Z</time>
      </trkpt>
      <trkpt lat="43.39044" lon="6.05251">
        <ele>302.20001220703</ele>
        <time>2013-05-25T12:23:00Z</time>
      </trkpt>
      <trkpt lat="43.39043" lon="6.05252">
        <ele>302.60000610352</ele>
        <time>2013-05-25T12:23:01Z</time>
      </trkpt>
      <trkpt lat="43.39036" lon="6.05249">
        <ele>304.79998779297</ele>
        <time>2013-05-25T12:23:09Z</time>
      </trkpt>
      <trkpt lat="43.39032" lon="6.05244">
        <ele>304.79998779297</ele>
        <time>2013-05-25T12:23:15Z</time>
      </trkpt>
      <trkpt lat="43.39027" lon="6.05232">
        <ele>305.20001220703</ele>
        <time>2013-05-25T12:23:25Z</time>
      </trkpt>
      <trkpt lat="43.39026" lon="6.05229">
        <ele>306</ele>
        <time>2013-05-25T12:23:27Z</time>
      </trkpt>
      <trkpt lat="43.39026" lon="6.05228">
        <ele>306.39999389648</ele>
        <time>2013-05-25T12:23:28Z</time>
      </trkpt>
      <trkpt lat="43.39027" lon="6.05227">
        <ele>307</ele>
        <time>2013-05-25T12:23:29Z</time>
      </trkpt>
      <trkpt lat="43.39025" lon="6.0522">
        <ele>307</ele>
        <time>2013-05-25T12:23:34Z</time>
      </trkpt>
      <trkpt lat="43.39024" lon="6.05213">
        <ele>309</ele>
        <time>2013-05-25T12:23:39Z</time>
      </trkpt>
      <trkpt lat="43.39024" lon="6.0521">
        <ele>309</ele>
        <time>2013-05-25T12:23:42Z</time>
      </trkpt>
      <trkpt lat="43.39024" lon="6.05209">
        <ele>309</ele>
        <time>2013-05-25T12:23:43Z</time>
      </trkpt>
      <trkpt lat="43.39024" lon="6.05203">
        <ele>309</ele>
        <time>2013-05-25T12:23:47Z</time>
      </trkpt>
      <trkpt lat="43.39025" lon="6.05191">
        <ele>310.39999389648</ele>
        <time>2013-05-25T12:23:57Z</time>
      </trkpt>
      <trkpt lat="43.39025" lon="6.0519">
        <ele>310.79998779297</ele>
        <time>2013-05-25T12:23:58Z</time>
      </trkpt>
      <trkpt lat="43.39025" lon="6.05188">
        <ele>311.20001220703</ele>
        <time>2013-05-25T12:23:59Z</time>
      </trkpt>
      <trkpt lat="43.39023" lon="6.05184">
        <ele>311.20001220703</ele>
        <time>2013-05-25T12:24:03Z</time>
      </trkpt>
      <trkpt lat="43.39022" lon="6.05181">
        <ele>311.60000610352</ele>
        <time>2013-05-25T12:24:06Z</time>
      </trkpt>
      <trkpt lat="43.39019" lon="6.05176">
        <ele>313.39999389648</ele>
        <time>2013-05-25T12:24:10Z</time>
      </trkpt>
      <trkpt lat="43.39017" lon="6.05175">
        <ele>313.39999389648</ele>
        <time>2013-05-25T12:24:12Z</time>
      </trkpt>
      <trkpt lat="43.39015" lon="6.05175">
        <ele>313.39999389648</ele>
        <time>2013-05-25T12:24:14Z</time>
      </trkpt>
      <trkpt lat="43.3901" lon="6.05173">
        <ele>313.39999389648</ele>
        <time>2013-05-25T12:24:20Z</time>
      </trkpt>
      <trkpt lat="43.39006" lon="6.05174">
        <ele>313.39999389648</ele>
        <time>2013-05-25T12:24:24Z</time>
      </trkpt>
      <trkpt lat="43.39004" lon="6.05177">
        <ele>313.39999389648</ele>
        <time>2013-05-25T12:24:27Z</time>
      </trkpt>
      <trkpt lat="43.39" lon="6.05183">
        <ele>315.79998779297</ele>
        <time>2013-05-25T12:24:34Z</time>
      </trkpt>
      <trkpt lat="43.38998" lon="6.0519">
        <ele>315.79998779297</ele>
        <time>2013-05-25T12:24:40Z</time>
      </trkpt>
      <trkpt lat="43.38997" lon="6.05199">
        <ele>317</ele>
        <time>2013-05-25T12:24:46Z</time>
      </trkpt>
      <trkpt lat="43.38995" lon="6.05212">
        <ele>318</ele>
        <time>2013-05-25T12:24:56Z</time>
      </trkpt>
      <trkpt lat="43.38995" lon="6.05221">
        <ele>318.79998779297</ele>
        <time>2013-05-25T12:25:02Z</time>
      </trkpt>
      <trkpt lat="43.38995" lon="6.05227">
        <ele>320</ele>
        <time>2013-05-25T12:25:06Z</time>
      </trkpt>
      <trkpt lat="43.38995" lon="6.05235">
        <ele>320</ele>
        <time>2013-05-25T12:25:11Z</time>
      </trkpt>
      <trkpt lat="43.38998" lon="6.05246">
        <ele>320</ele>
        <time>2013-05-25T12:25:18Z</time>
      </trkpt>
      <trkpt lat="43.39" lon="6.05261">
        <ele>320</ele>
        <time>2013-05-25T12:25:25Z</time>
      </trkpt>
      <trkpt lat="43.39001" lon="6.05266">
        <ele>320</ele>
        <time>2013-05-25T12:25:27Z</time>
      </trkpt>
      <trkpt lat="43.39005" lon="6.05274">
        <ele>320</ele>
        <time>2013-05-25T12:25:31Z</time>
      </trkpt>
      <trkpt lat="43.39007" lon="6.0528">
        <ele>320.39999389648</ele>
        <time>2013-05-25T12:25:34Z</time>
      </trkpt>
      <trkpt lat="43.39008" lon="6.05285">
        <ele>321.39999389648</ele>
        <time>2013-05-25T12:25:36Z</time>
      </trkpt>
      <trkpt lat="43.39009" lon="6.05288">
        <ele>322</ele>
        <time>2013-05-25T12:25:37Z</time>
      </trkpt>
      <trkpt lat="43.39014" lon="6.05305">
        <ele>322.39999389648</ele>
        <time>2013-05-25T12:25:43Z</time>
      </trkpt>
      <trkpt lat="43.39016" lon="6.0531">
        <ele>322.39999389648</ele>
        <time>2013-05-25T12:25:45Z</time>
      </trkpt>
      <trkpt lat="43.39023" lon="6.05327">
        <ele>322.39999389648</ele>
        <time>2013-05-25T12:25:53Z</time>
      </trkpt>
      <trkpt lat="43.39029" lon="6.05338">
        <ele>322.39999389648</ele>
        <time>2013-05-25T12:26:00Z</time>
      </trkpt>
      <trkpt lat="43.39033" lon="6.05348">
        <ele>322.39999389648</ele>
        <time>2013-05-25T12:26:05Z</time>
      </trkpt>
      <trkpt lat="43.39034" lon="6.05349">
        <ele>322.39999389648</ele>
        <time>2013-05-25T12:26:06Z</time>
      </trkpt>
      <trkpt lat="43.39038" lon="6.05354">
        <ele>323.20001220703</ele>
        <time>2013-05-25T12:26:10Z</time>
      </trkpt>
      <trkpt lat="43.39042" lon="6.05358">
        <ele>324.60000610352</ele>
        <time>2013-05-25T12:26:13Z</time>
      </trkpt>
      <trkpt lat="43.39048" lon="6.05365">
        <ele>324.60000610352</ele>
        <time>2013-05-25T12:26:18Z</time>
      </trkpt>
      <trkpt lat="43.39054" lon="6.05369">
        <ele>325</ele>
        <time>2013-05-25T12:26:22Z</time>
      </trkpt>
      <trkpt lat="43.3906" lon="6.05375">
        <ele>326.79998779297</ele>
        <time>2013-05-25T12:26:26Z</time>
      </trkpt>
      <trkpt lat="43.39069" lon="6.05379">
        <ele>326.79998779297</ele>
        <time>2013-05-25T12:26:32Z</time>
      </trkpt>
      <trkpt lat="43.39088" lon="6.05388">
        <ele>327.20001220703</ele>
        <time>2013-05-25T12:26:43Z</time>
      </trkpt>
      <trkpt lat="43.3909" lon="6.05392">
        <ele>328</ele>
        <time>2013-05-25T12:26:45Z</time>
      </trkpt>
      <trkpt lat="43.39101" lon="6.05405">
        <ele>328.79998779297</ele>
        <time>2013-05-25T12:26:53Z</time>
      </trkpt>
      <trkpt lat="43.39106" lon="6.05426">
        <ele>328.79998779297</ele>
        <time>2013-05-25T12:27:01Z</time>
      </trkpt>
      <trkpt lat="43.39111" lon="6.05443">
        <ele>328.79998779297</ele>
        <time>2013-05-25T12:27:07Z</time>
      </trkpt>
      <trkpt lat="43.39126" lon="6.05499">
        <ele>328.79998779297</ele>
        <time>2013-05-25T12:27:26Z</time>
      </trkpt>
      <trkpt lat="43.39128" lon="6.05525">
        <ele>328.79998779297</ele>
        <time>2013-05-25T12:27:34Z</time>
      </trkpt>
      <trkpt lat="43.39126" lon="6.05545">
        <ele>330.60000610352</ele>
        <time>2013-05-25T12:27:41Z</time>
      </trkpt>
      <trkpt lat="43.39125" lon="6.05548">
        <ele>331</ele>
        <time>2013-05-25T12:27:42Z</time>
      </trkpt>
      <trkpt lat="43.39124" lon="6.0555">
        <ele>331</ele>
        <time>2013-05-25T12:27:43Z</time>
      </trkpt>
      <trkpt lat="43.39118" lon="6.05567">
        <ele>331</ele>
        <time>2013-05-25T12:27:50Z</time>
      </trkpt>
      <trkpt lat="43.39103" lon="6.05584">
        <ele>331</ele>
        <time>2013-05-25T12:28:00Z</time>
      </trkpt>
      <trkpt lat="43.39095" lon="6.05601">
        <ele>331</ele>
        <time>2013-05-25T12:28:07Z</time>
      </trkpt>
      <trkpt lat="43.39091" lon="6.0561">
        <ele>332</ele>
        <time>2013-05-25T12:28:11Z</time>
      </trkpt>
      <trkpt lat="43.39089" lon="6.05613">
        <ele>332.79998779297</ele>
        <time>2013-05-25T12:28:13Z</time>
      </trkpt>
      <trkpt lat="43.39079" lon="6.0563">
        <ele>333.20001220703</ele>
        <time>2013-05-25T12:28:20Z</time>
      </trkpt>
      <trkpt lat="43.39071" lon="6.05638">
        <ele>334.60000610352</ele>
        <time>2013-05-25T12:28:25Z</time>
      </trkpt>
      <trkpt lat="43.39066" lon="6.05643">
        <ele>335.39999389648</ele>
        <time>2013-05-25T12:28:28Z</time>
      </trkpt>
      <trkpt lat="43.39064" lon="6.05646">
        <ele>335.39999389648</ele>
        <time>2013-05-25T12:28:30Z</time>
      </trkpt>
      <trkpt lat="43.39061" lon="6.05653">
        <ele>335.39999389648</ele>
        <time>2013-05-25T12:28:32Z</time>
      </trkpt>
      <trkpt lat="43.39061" lon="6.05667">
        <ele>335.39999389648</ele>
        <time>2013-05-25T12:28:37Z</time>
      </trkpt>
      <trkpt lat="43.39062" lon="6.05682">
        <ele>335.79998779297</ele>
        <time>2013-05-25T12:28:43Z</time>
      </trkpt>
      <trkpt lat="43.39062" lon="6.05684">
        <ele>336.20001220703</ele>
        <time>2013-05-25T12:28:44Z</time>
      </trkpt>
      <trkpt lat="43.39062" lon="6.05687">
        <ele>337</ele>
        <time>2013-05-25T12:28:46Z</time>
      </trkpt>
      <trkpt lat="43.39062" lon="6.05687">
        <ele>337.39999389648</ele>
        <time>2013-05-25T12:28:47Z</time>
      </trkpt>
      <trkpt lat="43.39064" lon="6.05692">
        <ele>337.39999389648</ele>
        <time>2013-05-25T12:28:51Z</time>
      </trkpt>
      <trkpt lat="43.39065" lon="6.05695">
        <ele>337.39999389648</ele>
        <time>2013-05-25T12:28:54Z</time>
      </trkpt>
      <trkpt lat="43.39068" lon="6.05702">
        <ele>337.39999389648</ele>
        <time>2013-05-25T12:29:00Z</time>
      </trkpt>
      <trkpt lat="43.3907" lon="6.05706">
        <ele>337.39999389648</ele>
        <time>2013-05-25T12:29:07Z</time>
      </trkpt>
      <trkpt lat="43.39071" lon="6.05711">
        <ele>337.39999389648</ele>
        <time>2013-05-25T12:29:12Z</time>
      </trkpt>
      <trkpt lat="43.3907" lon="6.05712">
        <ele>337.39999389648</ele>
        <time>2013-05-25T12:29:13Z</time>
      </trkpt>
      <trkpt lat="43.39069" lon="6.05713">
        <ele>337.39999389648</ele>
        <time>2013-05-25T12:29:17Z</time>
      </trkpt>
      <trkpt lat="43.3907" lon="6.05713">
        <ele>337.39999389648</ele>
        <time>2013-05-25T12:29:22Z</time>
      </trkpt>
      <trkpt lat="43.39071" lon="6.05712">
        <ele>337.39999389648</ele>
        <time>2013-05-25T12:29:28Z</time>
      </trkpt>
      <trkpt lat="43.39071" lon="6.05712">
        <ele>339.39999389648</ele>
        <time>2013-05-25T12:29:41Z</time>
      </trkpt>
      <trkpt lat="43.39071" lon="6.05712">
        <ele>339.39999389648</ele>
        <time>2013-05-25T12:29:51Z</time>
      </trkpt>
      <trkpt lat="43.39073" lon="6.05713">
        <ele>339.39999389648</ele>
        <time>2013-05-25T12:29:56Z</time>
      </trkpt>
      <trkpt lat="43.39073" lon="6.05713">
        <ele>339.39999389648</ele>
        <time>2013-05-25T12:30:02Z</time>
      </trkpt>
      <trkpt lat="43.39073" lon="6.05713">
        <ele>338.20001220703</ele>
        <time>2013-05-25T12:30:06Z</time>
      </trkpt>
      <trkpt lat="43.39073" lon="6.05713">
        <ele>337.79998779297</ele>
        <time>2013-05-25T12:30:07Z</time>
      </trkpt>
      <trkpt lat="43.39073" lon="6.05713">
        <ele>337.39999389648</ele>
        <time>2013-05-25T12:30:08Z</time>
      </trkpt>
      <trkpt lat="43.39073" lon="6.05713">
        <ele>339.60000610352</ele>
        <time>2013-05-25T12:30:22Z</time>
      </trkpt>
      <trkpt lat="43.39073" lon="6.05713">
        <ele>339.60000610352</ele>
        <time>2013-05-25T12:30:42Z</time>
      </trkpt>
      <trkpt lat="43.39073" lon="6.05713">
        <ele>339.60000610352</ele>
        <time>2013-05-25T12:30:50Z</time>
      </trkpt>
      <trkpt lat="43.39073" lon="6.05712">
        <ele>339.60000610352</ele>
        <time>2013-05-25T12:30:57Z</time>
      </trkpt>
      <trkpt lat="43.39072" lon="6.05712">
        <ele>339.60000610352</ele>
        <time>2013-05-25T12:31:02Z</time>
      </trkpt>
      <trkpt lat="43.39071" lon="6.05713">
        <ele>339.60000610352</ele>
        <time>2013-05-25T12:31:03Z</time>
      </trkpt>
      <trkpt lat="43.39067" lon="6.05713">
        <ele>339.60000610352</ele>
        <time>2013-05-25T12:31:06Z</time>
      </trkpt>
      <trkpt lat="43.39064" lon="6.05712">
        <ele>339.60000610352</ele>
        <time>2013-05-25T12:31:08Z</time>
      </trkpt>
      <trkpt lat="43.39059" lon="6.05709">
        <ele>339.60000610352</ele>
        <time>2013-05-25T12:31:11Z</time>
      </trkpt>
      <trkpt lat="43.39057" lon="6.05708">
        <ele>340</ele>
        <time>2013-05-25T12:31:13Z</time>
      </trkpt>
      <trkpt lat="43.39055" lon="6.05707">
        <ele>341</ele>
        <time>2013-05-25T12:31:15Z</time>
      </trkpt>
      <trkpt lat="43.39053" lon="6.05704">
        <ele>342</ele>
        <time>2013-05-25T12:31:17Z</time>
      </trkpt>
      <trkpt lat="43.39043" lon="6.05695">
        <ele>343.20001220703</ele>
        <time>2013-05-25T12:31:25Z</time>
      </trkpt>
      <trkpt lat="43.39042" lon="6.05692">
        <ele>344</ele>
        <time>2013-05-25T12:31:27Z</time>
      </trkpt>
      <trkpt lat="43.3904" lon="6.05689">
        <ele>344</ele>
        <time>2013-05-25T12:31:29Z</time>
      </trkpt>
      <trkpt lat="43.39039" lon="6.05688">
        <ele>344.60000610352</ele>
        <time>2013-05-25T12:31:30Z</time>
      </trkpt>
      <trkpt lat="43.39039" lon="6.05687">
        <ele>345</ele>
        <time>2013-05-25T12:31:31Z</time>
      </trkpt>
      <trkpt lat="43.39038" lon="6.05686">
        <ele>345.39999389648</ele>
        <time>2013-05-25T12:31:32Z</time>
      </trkpt>
      <trkpt lat="43.39037" lon="6.05684">
        <ele>345.79998779297</ele>
        <time>2013-05-25T12:31:33Z</time>
      </trkpt>
      <trkpt lat="43.39037" lon="6.05683">
        <ele>346.20001220703</ele>
        <time>2013-05-25T12:31:34Z</time>
      </trkpt>
      <trkpt lat="43.39035" lon="6.0568">
        <ele>346.20001220703</ele>
        <time>2013-05-25T12:31:36Z</time>
      </trkpt>
      <trkpt lat="43.39035" lon="6.0568">
        <ele>346.20001220703</ele>
        <time>2013-05-25T12:31:39Z</time>
      </trkpt>
      <trkpt lat="43.39035" lon="6.0568">
        <ele>347.39999389648</ele>
        <time>2013-05-25T12:31:42Z</time>
      </trkpt>
      <trkpt lat="43.39035" lon="6.0568">
        <ele>347.79998779297</ele>
        <time>2013-05-25T12:31:43Z</time>
      </trkpt>
      <trkpt lat="43.39035" lon="6.0568">
        <ele>348.20001220703</ele>
        <time>2013-05-25T12:31:54Z</time>
      </trkpt>
      <trkpt lat="43.39035" lon="6.0568">
        <ele>348.20001220703</ele>
        <time>2013-05-25T12:32:01Z</time>
      </trkpt>
      <trkpt lat="43.39035" lon="6.0568">
        <ele>348.20001220703</ele>
        <time>2013-05-25T12:32:09Z</time>
      </trkpt>
      <trkpt lat="43.39035" lon="6.05681">
        <ele>348.20001220703</ele>
        <time>2013-05-25T12:32:12Z</time>
      </trkpt>
      <trkpt lat="43.39035" lon="6.05681">
        <ele>348.20001220703</ele>
        <time>2013-05-25T12:32:16Z</time>
      </trkpt>
      <trkpt lat="43.39036" lon="6.05682">
        <ele>348.20001220703</ele>
        <time>2013-05-25T12:32:21Z</time>
      </trkpt>
      <trkpt lat="43.39036" lon="6.05683">
        <ele>348.20001220703</ele>
        <time>2013-05-25T12:32:26Z</time>
      </trkpt>
      <trkpt lat="43.39036" lon="6.05683">
        <ele>348.20001220703</ele>
        <time>2013-05-25T12:32:33Z</time>
      </trkpt>
      <trkpt lat="43.39036" lon="6.05682">
        <ele>348.20001220703</ele>
        <time>2013-05-25T12:32:34Z</time>
      </trkpt>
      <trkpt lat="43.39036" lon="6.0568">
        <ele>348.20001220703</ele>
        <time>2013-05-25T12:32:38Z</time>
      </trkpt>
      <trkpt lat="43.39036" lon="6.05682">
        <ele>348.20001220703</ele>
        <time>2013-05-25T12:32:44Z</time>
      </trkpt>
      <trkpt lat="43.39038" lon="6.05684">
        <ele>347.79998779297</ele>
        <time>2013-05-25T12:32:47Z</time>
      </trkpt>
      <trkpt lat="43.39038" lon="6.05685">
        <ele>347</ele>
        <time>2013-05-25T12:32:49Z</time>
      </trkpt>
      <trkpt lat="43.39038" lon="6.05685">
        <ele>346.20001220703</ele>
        <time>2013-05-25T12:32:52Z</time>
      </trkpt>
      <trkpt lat="43.39038" lon="6.05685">
        <ele>346.20001220703</ele>
        <time>2013-05-25T12:33:04Z</time>
      </trkpt>
      <trkpt lat="43.39037" lon="6.05683">
        <ele>346.20001220703</ele>
        <time>2013-05-25T12:33:07Z</time>
      </trkpt>
      <trkpt lat="43.39036" lon="6.05682">
        <ele>346.20001220703</ele>
        <time>2013-05-25T12:33:08Z</time>
      </trkpt>
      <trkpt lat="43.39035" lon="6.05679">
        <ele>346.20001220703</ele>
        <time>2013-05-25T12:33:12Z</time>
      </trkpt>
      <trkpt lat="43.39034" lon="6.05679">
        <ele>346.20001220703</ele>
        <time>2013-05-25T12:33:18Z</time>
      </trkpt>
      <trkpt lat="43.39034" lon="6.05678">
        <ele>346.20001220703</ele>
        <time>2013-05-25T12:33:25Z</time>
      </trkpt>
      <trkpt lat="43.39032" lon="6.05677">
        <ele>346.20001220703</ele>
        <time>2013-05-25T12:33:31Z</time>
      </trkpt>
      <trkpt lat="43.3903" lon="6.05675">
        <ele>346.60000610352</ele>
        <time>2013-05-25T12:33:35Z</time>
      </trkpt>
      <trkpt lat="43.39029" lon="6.05675">
        <ele>348</ele>
        <time>2013-05-25T12:33:38Z</time>
      </trkpt>
      <trkpt lat="43.39029" lon="6.05675">
        <ele>348.39999389648</ele>
        <time>2013-05-25T12:33:39Z</time>
      </trkpt>
      <trkpt lat="43.39028" lon="6.05676">
        <ele>348.39999389648</ele>
        <time>2013-05-25T12:33:43Z</time>
      </trkpt>
      <trkpt lat="43.39028" lon="6.05676">
        <ele>350</ele>
        <time>2013-05-25T12:34:04Z</time>
      </trkpt>
      <trkpt lat="43.39028" lon="6.05676">
        <ele>350.39999389648</ele>
        <time>2013-05-25T12:35:05Z</time>
      </trkpt>
      <trkpt lat="43.39028" lon="6.05676">
        <ele>348.39999389648</ele>
        <time>2013-05-25T12:35:17Z</time>
      </trkpt>
      <trkpt lat="43.39029" lon="6.05681">
        <ele>348.39999389648</ele>
        <time>2013-05-25T12:35:22Z</time>
      </trkpt>
      <trkpt lat="43.3903" lon="6.05687">
        <ele>349.60000610352</ele>
        <time>2013-05-25T12:35:26Z</time>
      </trkpt>
      <trkpt lat="43.3903" lon="6.05689">
        <ele>350</ele>
        <time>2013-05-25T12:35:27Z</time>
      </trkpt>
      <trkpt lat="43.3903" lon="6.05691">
        <ele>350.39999389648</ele>
        <time>2013-05-25T12:35:28Z</time>
      </trkpt>
      <trkpt lat="43.39029" lon="6.05697">
        <ele>350.39999389648</ele>
        <time>2013-05-25T12:35:32Z</time>
      </trkpt>
      <trkpt lat="43.39029" lon="6.05701">
        <ele>350.39999389648</ele>
        <time>2013-05-25T12:35:34Z</time>
      </trkpt>
      <trkpt lat="43.39029" lon="6.05703">
        <ele>350.39999389648</ele>
        <time>2013-05-25T12:35:35Z</time>
      </trkpt>
      <trkpt lat="43.39026" lon="6.05711">
        <ele>350.39999389648</ele>
        <time>2013-05-25T12:35:39Z</time>
      </trkpt>
      <trkpt lat="43.39025" lon="6.05718">
        <ele>351.79998779297</ele>
        <time>2013-05-25T12:35:43Z</time>
      </trkpt>
      <trkpt lat="43.39025" lon="6.05723">
        <ele>352.79998779297</ele>
        <time>2013-05-25T12:35:46Z</time>
      </trkpt>
      <trkpt lat="43.39026" lon="6.05727">
        <ele>352.79998779297</ele>
        <time>2013-05-25T12:35:49Z</time>
      </trkpt>
      <trkpt lat="43.39029" lon="6.05741">
        <ele>352.79998779297</ele>
        <time>2013-05-25T12:35:58Z</time>
      </trkpt>
      <trkpt lat="43.3903" lon="6.05743">
        <ele>352.79998779297</ele>
        <time>2013-05-25T12:35:59Z</time>
      </trkpt>
      <trkpt lat="43.3903" lon="6.05746">
        <ele>354</ele>
        <time>2013-05-25T12:36:01Z</time>
      </trkpt>
      <trkpt lat="43.39031" lon="6.05749">
        <ele>354.79998779297</ele>
        <time>2013-05-25T12:36:03Z</time>
      </trkpt>
      <trkpt lat="43.39032" lon="6.05753">
        <ele>355.60000610352</ele>
        <time>2013-05-25T12:36:06Z</time>
      </trkpt>
      <trkpt lat="43.39033" lon="6.05755">
        <ele>356.39999389648</ele>
        <time>2013-05-25T12:36:08Z</time>
      </trkpt>
      <trkpt lat="43.39033" lon="6.05756">
        <ele>356.79998779297</ele>
        <time>2013-05-25T12:36:09Z</time>
      </trkpt>
      <trkpt lat="43.39033" lon="6.05756">
        <ele>357.20001220703</ele>
        <time>2013-05-25T12:36:12Z</time>
      </trkpt>
      <trkpt lat="43.39033" lon="6.05756">
        <ele>359</ele>
        <time>2013-05-25T12:36:24Z</time>
      </trkpt>
      <trkpt lat="43.39033" lon="6.05756">
        <ele>359</ele>
        <time>2013-05-25T12:36:52Z</time>
      </trkpt>
      <trkpt lat="43.39033" lon="6.05756">
        <ele>359</ele>
        <time>2013-05-25T12:37:13Z</time>
      </trkpt>
      <trkpt lat="43.39033" lon="6.05756">
        <ele>359</ele>
        <time>2013-05-25T12:37:27Z</time>
      </trkpt>
      <trkpt lat="43.39033" lon="6.05756">
        <ele>359</ele>
        <time>2013-05-25T12:37:34Z</time>
      </trkpt>
      <trkpt lat="43.39033" lon="6.05756">
        <ele>359</ele>
        <time>2013-05-25T12:37:40Z</time>
      </trkpt>
      <trkpt lat="43.39031" lon="6.05742">
        <ele>359</ele>
        <time>2013-05-25T12:37:44Z</time>
      </trkpt>
      <trkpt lat="43.3903" lon="6.05736">
        <ele>357.79998779297</ele>
        <time>2013-05-25T12:37:46Z</time>
      </trkpt>
      <trkpt lat="43.39029" lon="6.05733">
        <ele>357</ele>
        <time>2013-05-25T12:37:47Z</time>
      </trkpt>
      <trkpt lat="43.39029" lon="6.0573">
        <ele>356.20001220703</ele>
        <time>2013-05-25T12:37:48Z</time>
      </trkpt>
      <trkpt lat="43.39028" lon="6.05728">
        <ele>355.39999389648</ele>
        <time>2013-05-25T12:37:49Z</time>
      </trkpt>
      <trkpt lat="43.39028" lon="6.05726">
        <ele>354.60000610352</ele>
        <time>2013-05-25T12:37:50Z</time>
      </trkpt>
      <trkpt lat="43.39028" lon="6.05723">
        <ele>353.79998779297</ele>
        <time>2013-05-25T12:37:51Z</time>
      </trkpt>
      <trkpt lat="43.39028" lon="6.05717">
        <ele>353.79998779297</ele>
        <time>2013-05-25T12:37:54Z</time>
      </trkpt>
      <trkpt lat="43.39027" lon="6.05717">
        <ele>353.79998779297</ele>
        <time>2013-05-25T12:37:59Z</time>
      </trkpt>
      <trkpt lat="43.39029" lon="6.05716">
        <ele>353.79998779297</ele>
        <time>2013-05-25T12:38:10Z</time>
      </trkpt>
      <trkpt lat="43.39029" lon="6.05716">
        <ele>353.79998779297</ele>
        <time>2013-05-25T12:38:17Z</time>
      </trkpt>
      <trkpt lat="43.39029" lon="6.05716">
        <ele>353.79998779297</ele>
        <time>2013-05-25T12:38:29Z</time>
      </trkpt>
      <trkpt lat="43.39028" lon="6.05716">
        <ele>353.79998779297</ele>
        <time>2013-05-25T12:38:54Z</time>
      </trkpt>
      <trkpt lat="43.39028" lon="6.05716">
        <ele>353.79998779297</ele>
        <time>2013-05-25T12:39:19Z</time>
      </trkpt>
      <trkpt lat="43.39028" lon="6.05716">
        <ele>353.79998779297</ele>
        <time>2013-05-25T12:39:42Z</time>
      </trkpt>
      <trkpt lat="43.39028" lon="6.05716">
        <ele>353.79998779297</ele>
        <time>2013-05-25T12:40:10Z</time>
      </trkpt>
      <trkpt lat="43.39028" lon="6.05716">
        <ele>353.39999389648</ele>
        <time>2013-05-25T12:40:35Z</time>
      </trkpt>
      <trkpt lat="43.39028" lon="6.05715">
        <ele>351.39999389648</ele>
        <time>2013-05-25T12:42:15Z</time>
      </trkpt>
      <trkpt lat="43.39028" lon="6.05715">
        <ele>351.39999389648</ele>
        <time>2013-05-25T12:42:28Z</time>
      </trkpt>
      <trkpt lat="43.39028" lon="6.05715">
        <ele>351.79998779297</ele>
        <time>2013-05-25T12:42:56Z</time>
      </trkpt>
      <trkpt lat="43.39028" lon="6.05715">
        <ele>352.20001220703</ele>
        <time>2013-05-25T12:43:16Z</time>
      </trkpt>
      <trkpt lat="43.39028" lon="6.05715">
        <ele>353.39999389648</ele>
        <time>2013-05-25T12:43:43Z</time>
      </trkpt>
      <trkpt lat="43.39028" lon="6.05715">
        <ele>353.39999389648</ele>
        <time>2013-05-25T12:43:57Z</time>
      </trkpt>
      <trkpt lat="43.39028" lon="6.05715">
        <ele>353.39999389648</ele>
        <time>2013-05-25T12:44:23Z</time>
      </trkpt>
      <trkpt lat="43.39028" lon="6.05715">
        <ele>353.39999389648</ele>
        <time>2013-05-25T12:44:46Z</time>
      </trkpt>
      <trkpt lat="43.39029" lon="6.05714">
        <ele>353.39999389648</ele>
        <time>2013-05-25T12:45:04Z</time>
      </trkpt>
      <trkpt lat="43.39029" lon="6.05714">
        <ele>353.39999389648</ele>
        <time>2013-05-25T12:45:28Z</time>
      </trkpt>
      <trkpt lat="43.39029" lon="6.05714">
        <ele>353.39999389648</ele>
        <time>2013-05-25T12:45:37Z</time>
      </trkpt>
      <trkpt lat="43.39029" lon="6.05714">
        <ele>353.39999389648</ele>
        <time>2013-05-25T12:45:50Z</time>
      </trkpt>
      <trkpt lat="43.39028" lon="6.05714">
        <ele>353.39999389648</ele>
        <time>2013-05-25T12:45:59Z</time>
      </trkpt>
      <trkpt lat="43.39028" lon="6.05714">
        <ele>353.39999389648</ele>
        <time>2013-05-25T12:46:01Z</time>
      </trkpt>
      <trkpt lat="43.39028" lon="6.05715">
        <ele>353.39999389648</ele>
        <time>2013-05-25T12:46:02Z</time>
      </trkpt>
      <trkpt lat="43.39028" lon="6.05717">
        <ele>353.39999389648</ele>
        <time>2013-05-25T12:46:05Z</time>
      </trkpt>
      <trkpt lat="43.39027" lon="6.05718">
        <ele>353.39999389648</ele>
        <time>2013-05-25T12:46:13Z</time>
      </trkpt>
      <trkpt lat="43.39027" lon="6.05718">
        <ele>353.39999389648</ele>
        <time>2013-05-25T12:46:23Z</time>
      </trkpt>
      <trkpt lat="43.39027" lon="6.05725">
        <ele>353.39999389648</ele>
        <time>2013-05-25T12:46:28Z</time>
      </trkpt>
      <trkpt lat="43.39028" lon="6.05729">
        <ele>353.39999389648</ele>
        <time>2013-05-25T12:46:31Z</time>
      </trkpt>
      <trkpt lat="43.39029" lon="6.05735">
        <ele>353.79998779297</ele>
        <time>2013-05-25T12:46:35Z</time>
      </trkpt>
      <trkpt lat="43.3903" lon="6.05738">
        <ele>354.60000610352</ele>
        <time>2013-05-25T12:46:37Z</time>
      </trkpt>
      <trkpt lat="43.3903" lon="6.05741">
        <ele>355.39999389648</ele>
        <time>2013-05-25T12:46:39Z</time>
      </trkpt>
      <trkpt lat="43.39031" lon="6.05744">
        <ele>355.79998779297</ele>
        <time>2013-05-25T12:46:41Z</time>
      </trkpt>
      <trkpt lat="43.39032" lon="6.05748">
        <ele>357.20001220703</ele>
        <time>2013-05-25T12:46:44Z</time>
      </trkpt>
      <trkpt lat="43.39033" lon="6.05753">
        <ele>359</ele>
        <time>2013-05-25T12:46:47Z</time>
      </trkpt>
      <trkpt lat="43.39034" lon="6.05755">
        <ele>360</ele>
        <time>2013-05-25T12:46:49Z</time>
      </trkpt>
      <trkpt lat="43.39035" lon="6.05758">
        <ele>360</ele>
        <time>2013-05-25T12:46:52Z</time>
      </trkpt>
      <trkpt lat="43.39035" lon="6.0576">
        <ele>360</ele>
        <time>2013-05-25T12:46:54Z</time>
      </trkpt>
      <trkpt lat="43.39035" lon="6.0576">
        <ele>360</ele>
        <time>2013-05-25T12:47:02Z</time>
      </trkpt>
      <trkpt lat="43.39035" lon="6.0576">
        <ele>360</ele>
        <time>2013-05-25T12:47:24Z</time>
      </trkpt>
      <trkpt lat="43.39035" lon="6.0576">
        <ele>360</ele>
        <time>2013-05-25T12:47:50Z</time>
      </trkpt>
      <trkpt lat="43.39035" lon="6.0576">
        <ele>360</ele>
        <time>2013-05-25T12:48:03Z</time>
      </trkpt>
      <trkpt lat="43.39035" lon="6.05759">
        <ele>360</ele>
        <time>2013-05-25T12:48:10Z</time>
      </trkpt>
      <trkpt lat="43.39035" lon="6.05759">
        <ele>360</ele>
        <time>2013-05-25T12:48:21Z</time>
      </trkpt>
      <trkpt lat="43.39035" lon="6.05759">
        <ele>360</ele>
        <time>2013-05-25T12:48:39Z</time>
      </trkpt>
      <trkpt lat="43.39035" lon="6.05761">
        <ele>361</ele>
        <time>2013-05-25T12:48:44Z</time>
      </trkpt>
      <trkpt lat="43.39035" lon="6.05763">
        <ele>361.79998779297</ele>
        <time>2013-05-25T12:48:46Z</time>
      </trkpt>
      <trkpt lat="43.39035" lon="6.05763">
        <ele>362.20001220703</ele>
        <time>2013-05-25T12:48:47Z</time>
      </trkpt>
      <trkpt lat="43.39034" lon="6.05765">
        <ele>362.20001220703</ele>
        <time>2013-05-25T12:48:52Z</time>
      </trkpt>
      <trkpt lat="43.39035" lon="6.05771">
        <ele>362.20001220703</ele>
        <time>2013-05-25T12:48:59Z</time>
      </trkpt>
      <trkpt lat="43.39035" lon="6.05774">
        <ele>362.20001220703</ele>
        <time>2013-05-25T12:49:06Z</time>
      </trkpt>
      <trkpt lat="43.39035" lon="6.05774">
        <ele>362.20001220703</ele>
        <time>2013-05-25T12:49:17Z</time>
      </trkpt>
      <trkpt lat="43.39035" lon="6.05775">
        <ele>362.20001220703</ele>
        <time>2013-05-25T12:49:24Z</time>
      </trkpt>
      <trkpt lat="43.39035" lon="6.05775">
        <ele>362.20001220703</ele>
        <time>2013-05-25T12:49:33Z</time>
      </trkpt>
      <trkpt lat="43.39035" lon="6.05782">
        <ele>362.60000610352</ele>
        <time>2013-05-25T12:49:37Z</time>
      </trkpt>
      <trkpt lat="43.39034" lon="6.05786">
        <ele>363.39999389648</ele>
        <time>2013-05-25T12:49:39Z</time>
      </trkpt>
      <trkpt lat="43.39034" lon="6.05791">
        <ele>364.20001220703</ele>
        <time>2013-05-25T12:49:41Z</time>
      </trkpt>
      <trkpt lat="43.39035" lon="6.05796">
        <ele>364.79998779297</ele>
        <time>2013-05-25T12:49:43Z</time>
      </trkpt>
      <trkpt lat="43.39035" lon="6.05799">
        <ele>365.20001220703</ele>
        <time>2013-05-25T12:49:44Z</time>
      </trkpt>
      <trkpt lat="43.39035" lon="6.05802">
        <ele>365.60000610352</ele>
        <time>2013-05-25T12:49:45Z</time>
      </trkpt>
      <trkpt lat="43.39035" lon="6.05805">
        <ele>366</ele>
        <time>2013-05-25T12:49:46Z</time>
      </trkpt>
      <trkpt lat="43.39035" lon="6.05807">
        <ele>366.60000610352</ele>
        <time>2013-05-25T12:49:47Z</time>
      </trkpt>
      <trkpt lat="43.39035" lon="6.0581">
        <ele>366.60000610352</ele>
        <time>2013-05-25T12:49:49Z</time>
      </trkpt>
      <trkpt lat="43.39035" lon="6.05813">
        <ele>366.60000610352</ele>
        <time>2013-05-25T12:49:51Z</time>
      </trkpt>
      <trkpt lat="43.39036" lon="6.05816">
        <ele>367.39999389648</ele>
        <time>2013-05-25T12:49:53Z</time>
      </trkpt>
      <trkpt lat="43.39036" lon="6.05817">
        <ele>367.79998779297</ele>
        <time>2013-05-25T12:49:54Z</time>
      </trkpt>
      <trkpt lat="43.39036" lon="6.05818">
        <ele>368.20001220703</ele>
        <time>2013-05-25T12:49:55Z</time>
      </trkpt>
      <trkpt lat="43.39036" lon="6.05818">
        <ele>368.60000610352</ele>
        <time>2013-05-25T12:49:56Z</time>
      </trkpt>
      <trkpt lat="43.39036" lon="6.05818">
        <ele>368.60000610352</ele>
        <time>2013-05-25T12:50:26Z</time>
      </trkpt>
      <trkpt lat="43.39036" lon="6.05818">
        <ele>368.60000610352</ele>
        <time>2013-05-25T12:50:36Z</time>
      </trkpt>
      <trkpt lat="43.39037" lon="6.05819">
        <ele>368.60000610352</ele>
        <time>2013-05-25T12:50:43Z</time>
      </trkpt>
      <trkpt lat="43.39037" lon="6.05819">
        <ele>368.60000610352</ele>
        <time>2013-05-25T12:50:59Z</time>
      </trkpt>
      <trkpt lat="43.39037" lon="6.05819">
        <ele>368.60000610352</ele>
        <time>2013-05-25T12:51:26Z</time>
      </trkpt>
      <trkpt lat="43.39037" lon="6.05819">
        <ele>368.60000610352</ele>
        <time>2013-05-25T12:51:43Z</time>
      </trkpt>
      <trkpt lat="43.39036" lon="6.0582">
        <ele>368.60000610352</ele>
        <time>2013-05-25T12:51:53Z</time>
      </trkpt>
      <trkpt lat="43.39036" lon="6.0582">
        <ele>368.60000610352</ele>
        <time>2013-05-25T12:52:13Z</time>
      </trkpt>
      <trkpt lat="43.39036" lon="6.0582">
        <ele>368.60000610352</ele>
        <time>2013-05-25T12:52:16Z</time>
      </trkpt>
      <trkpt lat="43.39036" lon="6.05821">
        <ele>368.60000610352</ele>
        <time>2013-05-25T12:52:29Z</time>
      </trkpt>
      <trkpt lat="43.39037" lon="6.0583">
        <ele>368.60000610352</ele>
        <time>2013-05-25T12:52:33Z</time>
      </trkpt>
      <trkpt lat="43.39037" lon="6.05836">
        <ele>368.60000610352</ele>
        <time>2013-05-25T12:52:35Z</time>
      </trkpt>
      <trkpt lat="43.39034" lon="6.05842">
        <ele>368.60000610352</ele>
        <time>2013-05-25T12:52:39Z</time>
      </trkpt>
      <trkpt lat="43.39032" lon="6.05845">
        <ele>368.60000610352</ele>
        <time>2013-05-25T12:52:41Z</time>
      </trkpt>
      <trkpt lat="43.39028" lon="6.05854">
        <ele>368.60000610352</ele>
        <time>2013-05-25T12:52:47Z</time>
      </trkpt>
      <trkpt lat="43.39022" lon="6.05866">
        <ele>368.60000610352</ele>
        <time>2013-05-25T12:52:54Z</time>
      </trkpt>
      <trkpt lat="43.39019" lon="6.05877">
        <ele>368.60000610352</ele>
        <time>2013-05-25T12:52:59Z</time>
      </trkpt>
      <trkpt lat="43.39016" lon="6.05886">
        <ele>368.60000610352</ele>
        <time>2013-05-25T12:53:04Z</time>
      </trkpt>
      <trkpt lat="43.39014" lon="6.05895">
        <ele>369.20001220703</ele>
        <time>2013-05-25T12:53:10Z</time>
      </trkpt>
      <trkpt lat="43.39014" lon="6.05897">
        <ele>369.60000610352</ele>
        <time>2013-05-25T12:53:11Z</time>
      </trkpt>
      <trkpt lat="43.39013" lon="6.05902">
        <ele>370.79998779297</ele>
        <time>2013-05-25T12:53:14Z</time>
      </trkpt>
      <trkpt lat="43.39012" lon="6.05907">
        <ele>370.79998779297</ele>
        <time>2013-05-25T12:53:18Z</time>
      </trkpt>
      <trkpt lat="43.39009" lon="6.05913">
        <ele>370.79998779297</ele>
        <time>2013-05-25T12:53:22Z</time>
      </trkpt>
      <trkpt lat="43.39004" lon="6.0592">
        <ele>372.60000610352</ele>
        <time>2013-05-25T12:53:28Z</time>
      </trkpt>
      <trkpt lat="43.39003" lon="6.05922">
        <ele>373</ele>
        <time>2013-05-25T12:53:29Z</time>
      </trkpt>
      <trkpt lat="43.39002" lon="6.05927">
        <ele>373</ele>
        <time>2013-05-25T12:53:32Z</time>
      </trkpt>
      <trkpt lat="43.39001" lon="6.05935">
        <ele>373</ele>
        <time>2013-05-25T12:53:37Z</time>
      </trkpt>
      <trkpt lat="43.39" lon="6.05938">
        <ele>373</ele>
        <time>2013-05-25T12:53:39Z</time>
      </trkpt>
      <trkpt lat="43.38999" lon="6.05944">
        <ele>373.39999389648</ele>
        <time>2013-05-25T12:53:43Z</time>
      </trkpt>
      <trkpt lat="43.38998" lon="6.05948">
        <ele>374.20001220703</ele>
        <time>2013-05-25T12:53:45Z</time>
      </trkpt>
      <trkpt lat="43.38998" lon="6.0595">
        <ele>374.60000610352</ele>
        <time>2013-05-25T12:53:46Z</time>
      </trkpt>
      <trkpt lat="43.38998" lon="6.05952">
        <ele>375</ele>
        <time>2013-05-25T12:53:47Z</time>
      </trkpt>
      <trkpt lat="43.39001" lon="6.05963">
        <ele>375</ele>
        <time>2013-05-25T12:53:52Z</time>
      </trkpt>
      <trkpt lat="43.39003" lon="6.05971">
        <ele>375</ele>
        <time>2013-05-25T12:53:56Z</time>
      </trkpt>
      <trkpt lat="43.39004" lon="6.05975">
        <ele>375</ele>
        <time>2013-05-25T12:53:58Z</time>
      </trkpt>
      <trkpt lat="43.39007" lon="6.05981">
        <ele>375</ele>
        <time>2013-05-25T12:54:02Z</time>
      </trkpt>
      <trkpt lat="43.39007" lon="6.05982">
        <ele>375</ele>
        <time>2013-05-25T12:54:03Z</time>
      </trkpt>
      <trkpt lat="43.39008" lon="6.05982">
        <ele>375</ele>
        <time>2013-05-25T12:54:09Z</time>
      </trkpt>
      <trkpt lat="43.39008" lon="6.05982">
        <ele>375</ele>
        <time>2013-05-25T12:54:17Z</time>
      </trkpt>
      <trkpt lat="43.39009" lon="6.05984">
        <ele>375</ele>
        <time>2013-05-25T12:54:22Z</time>
      </trkpt>
      <trkpt lat="43.39009" lon="6.05987">
        <ele>375</ele>
        <time>2013-05-25T12:54:28Z</time>
      </trkpt>
      <trkpt lat="43.39011" lon="6.05989">
        <ele>375</ele>
        <time>2013-05-25T12:54:34Z</time>
      </trkpt>
      <trkpt lat="43.39011" lon="6.05992">
        <ele>375</ele>
        <time>2013-05-25T12:54:39Z</time>
      </trkpt>
      <trkpt lat="43.39011" lon="6.05992">
        <ele>375</ele>
        <time>2013-05-25T12:54:40Z</time>
      </trkpt>
      <trkpt lat="43.39012" lon="6.05994">
        <ele>375</ele>
        <time>2013-05-25T12:54:46Z</time>
      </trkpt>
      <trkpt lat="43.39014" lon="6.06001">
        <ele>375</ele>
        <time>2013-05-25T12:54:53Z</time>
      </trkpt>
      <trkpt lat="43.39017" lon="6.06011">
        <ele>375</ele>
        <time>2013-05-25T12:54:58Z</time>
      </trkpt>
      <trkpt lat="43.39017" lon="6.06014">
        <ele>375.39999389648</ele>
        <time>2013-05-25T12:55:00Z</time>
      </trkpt>
      <trkpt lat="43.39017" lon="6.06016">
        <ele>375.79998779297</ele>
        <time>2013-05-25T12:55:01Z</time>
      </trkpt>
      <trkpt lat="43.39017" lon="6.06018">
        <ele>376.39999389648</ele>
        <time>2013-05-25T12:55:02Z</time>
      </trkpt>
      <trkpt lat="43.39017" lon="6.06021">
        <ele>377.20001220703</ele>
        <time>2013-05-25T12:55:04Z</time>
      </trkpt>
      <trkpt lat="43.39021" lon="6.06033">
        <ele>377.20001220703</ele>
        <time>2013-05-25T12:55:11Z</time>
      </trkpt>
      <trkpt lat="43.39023" lon="6.06044">
        <ele>377.60000610352</ele>
        <time>2013-05-25T12:55:17Z</time>
      </trkpt>
      <trkpt lat="43.39024" lon="6.0605">
        <ele>379.20001220703</ele>
        <time>2013-05-25T12:55:20Z</time>
      </trkpt>
      <trkpt lat="43.39027" lon="6.06062">
        <ele>379.20001220703</ele>
        <time>2013-05-25T12:55:25Z</time>
      </trkpt>
      <trkpt lat="43.3903" lon="6.06077">
        <ele>379.20001220703</ele>
        <time>2013-05-25T12:55:31Z</time>
      </trkpt>
      <trkpt lat="43.39033" lon="6.06085">
        <ele>379.20001220703</ele>
        <time>2013-05-25T12:55:37Z</time>
      </trkpt>
      <trkpt lat="43.39033" lon="6.06085">
        <ele>379.20001220703</ele>
        <time>2013-05-25T12:55:44Z</time>
      </trkpt>
      <trkpt lat="43.39033" lon="6.06087">
        <ele>379.20001220703</ele>
        <time>2013-05-25T12:55:49Z</time>
      </trkpt>
      <trkpt lat="43.39033" lon="6.06087">
        <ele>379.20001220703</ele>
        <time>2013-05-25T12:55:56Z</time>
      </trkpt>
      <trkpt lat="43.39033" lon="6.06089">
        <ele>379.20001220703</ele>
        <time>2013-05-25T12:56:03Z</time>
      </trkpt>
      <trkpt lat="43.39033" lon="6.06089">
        <ele>379.20001220703</ele>
        <time>2013-05-25T12:56:27Z</time>
      </trkpt>
      <trkpt lat="43.39033" lon="6.06089">
        <ele>379.20001220703</ele>
        <time>2013-05-25T12:56:38Z</time>
      </trkpt>
      <trkpt lat="43.39032" lon="6.06091">
        <ele>379.20001220703</ele>
        <time>2013-05-25T12:56:44Z</time>
      </trkpt>
      <trkpt lat="43.39032" lon="6.06093">
        <ele>379.20001220703</ele>
        <time>2013-05-25T12:56:51Z</time>
      </trkpt>
      <trkpt lat="43.39032" lon="6.06093">
        <ele>379.20001220703</ele>
        <time>2013-05-25T12:56:58Z</time>
      </trkpt>
      <trkpt lat="43.39032" lon="6.06104">
        <ele>379.20001220703</ele>
        <time>2013-05-25T12:57:04Z</time>
      </trkpt>
      <trkpt lat="43.39034" lon="6.06122">
        <ele>379.20001220703</ele>
        <time>2013-05-25T12:57:11Z</time>
      </trkpt>
      <trkpt lat="43.39035" lon="6.06141">
        <ele>379.20001220703</ele>
        <time>2013-05-25T12:57:19Z</time>
      </trkpt>
      <trkpt lat="43.39039" lon="6.06158">
        <ele>379.20001220703</ele>
        <time>2013-05-25T12:57:25Z</time>
      </trkpt>
      <trkpt lat="43.39038" lon="6.06167">
        <ele>379.20001220703</ele>
        <time>2013-05-25T12:57:30Z</time>
      </trkpt>
      <trkpt lat="43.39041" lon="6.06175">
        <ele>379.20001220703</ele>
        <time>2013-05-25T12:57:34Z</time>
      </trkpt>
      <trkpt lat="43.39043" lon="6.06178">
        <ele>379.20001220703</ele>
        <time>2013-05-25T12:57:36Z</time>
      </trkpt>
      <trkpt lat="43.39046" lon="6.06181">
        <ele>379.20001220703</ele>
        <time>2013-05-25T12:57:39Z</time>
      </trkpt>
      <trkpt lat="43.39054" lon="6.06188">
        <ele>379.20001220703</ele>
        <time>2013-05-25T12:57:44Z</time>
      </trkpt>
      <trkpt lat="43.39053" lon="6.06201">
        <ele>379.20001220703</ele>
        <time>2013-05-25T12:57:50Z</time>
      </trkpt>
      <trkpt lat="43.39058" lon="6.06211">
        <ele>379.20001220703</ele>
        <time>2013-05-25T12:57:55Z</time>
      </trkpt>
      <trkpt lat="43.39061" lon="6.06224">
        <ele>379.20001220703</ele>
        <time>2013-05-25T12:58:00Z</time>
      </trkpt>
      <trkpt lat="43.39062" lon="6.0623">
        <ele>379.20001220703</ele>
        <time>2013-05-25T12:58:03Z</time>
      </trkpt>
      <trkpt lat="43.39063" lon="6.06237">
        <ele>379.20001220703</ele>
        <time>2013-05-25T12:58:06Z</time>
      </trkpt>
      <trkpt lat="43.39062" lon="6.06243">
        <ele>379.20001220703</ele>
        <time>2013-05-25T12:58:12Z</time>
      </trkpt>
      <trkpt lat="43.39063" lon="6.06244">
        <ele>379.20001220703</ele>
        <time>2013-05-25T12:58:20Z</time>
      </trkpt>
      <trkpt lat="43.39063" lon="6.06244">
        <ele>379.20001220703</ele>
        <time>2013-05-25T12:58:30Z</time>
      </trkpt>
      <trkpt lat="43.39063" lon="6.06244">
        <ele>379.20001220703</ele>
        <time>2013-05-25T12:58:40Z</time>
      </trkpt>
      <trkpt lat="43.39063" lon="6.06246">
        <ele>379.20001220703</ele>
        <time>2013-05-25T12:58:48Z</time>
      </trkpt>
      <trkpt lat="43.39068" lon="6.0626">
        <ele>379.20001220703</ele>
        <time>2013-05-25T12:58:53Z</time>
      </trkpt>
      <trkpt lat="43.3907" lon="6.06273">
        <ele>379.20001220703</ele>
        <time>2013-05-25T12:58:58Z</time>
      </trkpt>
      <trkpt lat="43.39071" lon="6.06278">
        <ele>379.20001220703</ele>
        <time>2013-05-25T12:59:00Z</time>
      </trkpt>
      <trkpt lat="43.39074" lon="6.06289">
        <ele>379.20001220703</ele>
        <time>2013-05-25T12:59:04Z</time>
      </trkpt>
      <trkpt lat="43.39079" lon="6.06301">
        <ele>377.39999389648</ele>
        <time>2013-05-25T12:59:09Z</time>
      </trkpt>
      <trkpt lat="43.3908" lon="6.06306">
        <ele>377</ele>
        <time>2013-05-25T12:59:11Z</time>
      </trkpt>
      <trkpt lat="43.39083" lon="6.06325">
        <ele>377</ele>
        <time>2013-05-25T12:59:18Z</time>
      </trkpt>
      <trkpt lat="43.39085" lon="6.06338">
        <ele>377</ele>
        <time>2013-05-25T12:59:24Z</time>
      </trkpt>
      <trkpt lat="43.39085" lon="6.0634">
        <ele>377</ele>
        <time>2013-05-25T12:59:25Z</time>
      </trkpt>
      <trkpt lat="43.39085" lon="6.06345">
        <ele>378</ele>
        <time>2013-05-25T12:59:27Z</time>
      </trkpt>
      <trkpt lat="43.39085" lon="6.06347">
        <ele>378.39999389648</ele>
        <time>2013-05-25T12:59:28Z</time>
      </trkpt>
      <trkpt lat="43.39087" lon="6.06351">
        <ele>379.39999389648</ele>
        <time>2013-05-25T12:59:30Z</time>
      </trkpt>
      <trkpt lat="43.3909" lon="6.06369">
        <ele>379.79998779297</ele>
        <time>2013-05-25T12:59:39Z</time>
      </trkpt>
      <trkpt lat="43.39091" lon="6.06376">
        <ele>381.39999389648</ele>
        <time>2013-05-25T12:59:43Z</time>
      </trkpt>
      <trkpt lat="43.39093" lon="6.06383">
        <ele>381.39999389648</ele>
        <time>2013-05-25T12:59:46Z</time>
      </trkpt>
      <trkpt lat="43.39093" lon="6.06386">
        <ele>381.39999389648</ele>
        <time>2013-05-25T12:59:48Z</time>
      </trkpt>
      <trkpt lat="43.39094" lon="6.06392">
        <ele>381.39999389648</ele>
        <time>2013-05-25T12:59:52Z</time>
      </trkpt>
      <trkpt lat="43.39094" lon="6.06395">
        <ele>381.39999389648</ele>
        <time>2013-05-25T12:59:54Z</time>
      </trkpt>
      <trkpt lat="43.39094" lon="6.06402">
        <ele>382.39999389648</ele>
        <time>2013-05-25T12:59:58Z</time>
      </trkpt>
      <trkpt lat="43.39095" lon="6.06406">
        <ele>383.20001220703</ele>
        <time>2013-05-25T13:00:00Z</time>
      </trkpt>
      <trkpt lat="43.39095" lon="6.06409">
        <ele>383.60000610352</ele>
        <time>2013-05-25T13:00:01Z</time>
      </trkpt>
      <trkpt lat="43.39096" lon="6.06421">
        <ele>383.60000610352</ele>
        <time>2013-05-25T13:00:07Z</time>
      </trkpt>
      <trkpt lat="43.39096" lon="6.06433">
        <ele>385.79998779297</ele>
        <time>2013-05-25T13:00:15Z</time>
      </trkpt>
      <trkpt lat="43.39096" lon="6.06437">
        <ele>385.79998779297</ele>
        <time>2013-05-25T13:00:18Z</time>
      </trkpt>
      <trkpt lat="43.39096" lon="6.06442">
        <ele>385.79998779297</ele>
        <time>2013-05-25T13:00:21Z</time>
      </trkpt>
      <trkpt lat="43.39094" lon="6.0645">
        <ele>386.20001220703</ele>
        <time>2013-05-25T13:00:26Z</time>
      </trkpt>
      <trkpt lat="43.39094" lon="6.06455">
        <ele>387.60000610352</ele>
        <time>2013-05-25T13:00:29Z</time>
      </trkpt>
      <trkpt lat="43.39093" lon="6.06461">
        <ele>388</ele>
        <time>2013-05-25T13:00:33Z</time>
      </trkpt>
      <trkpt lat="43.39093" lon="6.06465">
        <ele>388.39999389648</ele>
        <time>2013-05-25T13:00:36Z</time>
      </trkpt>
      <trkpt lat="43.39092" lon="6.06468">
        <ele>389.20001220703</ele>
        <time>2013-05-25T13:00:38Z</time>
      </trkpt>
      <trkpt lat="43.39093" lon="6.06476">
        <ele>390.60000610352</ele>
        <time>2013-05-25T13:00:44Z</time>
      </trkpt>
      <trkpt lat="43.39093" lon="6.06477">
        <ele>391.20001220703</ele>
        <time>2013-05-25T13:00:45Z</time>
      </trkpt>
      <trkpt lat="43.39093" lon="6.06487">
        <ele>392.60000610352</ele>
        <time>2013-05-25T13:00:53Z</time>
      </trkpt>
      <trkpt lat="43.39094" lon="6.06494">
        <ele>392.60000610352</ele>
        <time>2013-05-25T13:00:59Z</time>
      </trkpt>
      <trkpt lat="43.39095" lon="6.06497">
        <ele>393.60000610352</ele>
        <time>2013-05-25T13:01:01Z</time>
      </trkpt>
      <trkpt lat="43.39097" lon="6.06502">
        <ele>394.79998779297</ele>
        <time>2013-05-25T13:01:05Z</time>
      </trkpt>
      <trkpt lat="43.39098" lon="6.06507">
        <ele>394.79998779297</ele>
        <time>2013-05-25T13:01:09Z</time>
      </trkpt>
      <trkpt lat="43.39098" lon="6.06511">
        <ele>394.79998779297</ele>
        <time>2013-05-25T13:01:12Z</time>
      </trkpt>
      <trkpt lat="43.39098" lon="6.06514">
        <ele>396.20001220703</ele>
        <time>2013-05-25T13:01:15Z</time>
      </trkpt>
      <trkpt lat="43.39098" lon="6.06515">
        <ele>396.60000610352</ele>
        <time>2013-05-25T13:01:16Z</time>
      </trkpt>
      <trkpt lat="43.39099" lon="6.06517">
        <ele>397</ele>
        <time>2013-05-25T13:01:17Z</time>
      </trkpt>
      <trkpt lat="43.39099" lon="6.06518">
        <ele>397</ele>
        <time>2013-05-25T13:01:18Z</time>
      </trkpt>
      <trkpt lat="43.391" lon="6.06519">
        <ele>397</ele>
        <time>2013-05-25T13:01:24Z</time>
      </trkpt>
      <trkpt lat="43.391" lon="6.06519">
        <ele>398</ele>
        <time>2013-05-25T13:01:42Z</time>
      </trkpt>
      <trkpt lat="43.391" lon="6.06519">
        <ele>396.79998779297</ele>
        <time>2013-05-25T13:02:55Z</time>
      </trkpt>
      <trkpt lat="43.391" lon="6.06519">
        <ele>396.79998779297</ele>
        <time>2013-05-25T13:03:14Z</time>
      </trkpt>
      <trkpt lat="43.39104" lon="6.06524">
        <ele>396.79998779297</ele>
        <time>2013-05-25T13:03:21Z</time>
      </trkpt>
      <trkpt lat="43.39106" lon="6.06528">
        <ele>396.79998779297</ele>
        <time>2013-05-25T13:03:24Z</time>
      </trkpt>
      <trkpt lat="43.39109" lon="6.06531">
        <ele>396.79998779297</ele>
        <time>2013-05-25T13:03:27Z</time>
      </trkpt>
      <trkpt lat="43.39111" lon="6.06534">
        <ele>397.79998779297</ele>
        <time>2013-05-25T13:03:29Z</time>
      </trkpt>
      <trkpt lat="43.39112" lon="6.06536">
        <ele>398.79998779297</ele>
        <time>2013-05-25T13:03:31Z</time>
      </trkpt>
      <trkpt lat="43.39114" lon="6.06538">
        <ele>399.39999389648</ele>
        <time>2013-05-25T13:03:33Z</time>
      </trkpt>
      <trkpt lat="43.39118" lon="6.06542">
        <ele>399.39999389648</ele>
        <time>2013-05-25T13:03:37Z</time>
      </trkpt>
      <trkpt lat="43.39126" lon="6.06545">
        <ele>400.20001220703</ele>
        <time>2013-05-25T13:03:42Z</time>
      </trkpt>
      <trkpt lat="43.39127" lon="6.06546">
        <ele>400.60000610352</ele>
        <time>2013-05-25T13:03:43Z</time>
      </trkpt>
      <trkpt lat="43.39129" lon="6.06547">
        <ele>401.60000610352</ele>
        <time>2013-05-25T13:03:45Z</time>
      </trkpt>
      <trkpt lat="43.39132" lon="6.06549">
        <ele>401.60000610352</ele>
        <time>2013-05-25T13:03:47Z</time>
      </trkpt>
      <trkpt lat="43.39134" lon="6.06551">
        <ele>402</ele>
        <time>2013-05-25T13:03:49Z</time>
      </trkpt>
      <trkpt lat="43.39141" lon="6.06556">
        <ele>404</ele>
        <time>2013-05-25T13:03:53Z</time>
      </trkpt>
      <trkpt lat="43.39144" lon="6.06557">
        <ele>404</ele>
        <time>2013-05-25T13:03:55Z</time>
      </trkpt>
      <trkpt lat="43.39145" lon="6.06558">
        <ele>404</ele>
        <time>2013-05-25T13:03:56Z</time>
      </trkpt>
      <trkpt lat="43.39145" lon="6.06558">
        <ele>405</ele>
        <time>2013-05-25T13:03:58Z</time>
      </trkpt>
      <trkpt lat="43.39145" lon="6.06558">
        <ele>406.20001220703</ele>
        <time>2013-05-25T13:04:13Z</time>
      </trkpt>
      <trkpt lat="43.39145" lon="6.06558">
        <ele>406.20001220703</ele>
        <time>2013-05-25T13:04:28Z</time>
      </trkpt>
      <trkpt lat="43.39146" lon="6.06558">
        <ele>406.20001220703</ele>
        <time>2013-05-25T13:04:37Z</time>
      </trkpt>
      <trkpt lat="43.39146" lon="6.06558">
        <ele>406.20001220703</ele>
        <time>2013-05-25T13:04:44Z</time>
      </trkpt>
      <trkpt lat="43.39146" lon="6.06558">
        <ele>406.20001220703</ele>
        <time>2013-05-25T13:04:46Z</time>
      </trkpt>
      <trkpt lat="43.39146" lon="6.06558">
        <ele>406.20001220703</ele>
        <time>2013-05-25T13:04:51Z</time>
      </trkpt>
      <trkpt lat="43.39146" lon="6.06558">
        <ele>406.20001220703</ele>
        <time>2013-05-25T13:05:06Z</time>
      </trkpt>
      <trkpt lat="43.39146" lon="6.06558">
        <ele>406.20001220703</ele>
        <time>2013-05-25T13:05:38Z</time>
      </trkpt>
      <trkpt lat="43.39146" lon="6.06558">
        <ele>406.20001220703</ele>
        <time>2013-05-25T13:05:50Z</time>
      </trkpt>
      <trkpt lat="43.39147" lon="6.06559">
        <ele>406.20001220703</ele>
        <time>2013-05-25T13:05:53Z</time>
      </trkpt>
      <trkpt lat="43.39148" lon="6.06559">
        <ele>406.20001220703</ele>
        <time>2013-05-25T13:05:55Z</time>
      </trkpt>
      <trkpt lat="43.39148" lon="6.06559">
        <ele>406.20001220703</ele>
        <time>2013-05-25T13:05:58Z</time>
      </trkpt>
      <trkpt lat="43.39149" lon="6.0656">
        <ele>406.20001220703</ele>
        <time>2013-05-25T13:06:01Z</time>
      </trkpt>
      <trkpt lat="43.39149" lon="6.0656">
        <ele>406.20001220703</ele>
        <time>2013-05-25T13:06:04Z</time>
      </trkpt>
      <trkpt lat="43.39154" lon="6.06561">
        <ele>406.20001220703</ele>
        <time>2013-05-25T13:06:09Z</time>
      </trkpt>
      <trkpt lat="43.39155" lon="6.06562">
        <ele>406.20001220703</ele>
        <time>2013-05-25T13:06:12Z</time>
      </trkpt>
      <trkpt lat="43.39154" lon="6.06562">
        <ele>406.20001220703</ele>
        <time>2013-05-25T13:06:16Z</time>
      </trkpt>
      <trkpt lat="43.39154" lon="6.06562">
        <ele>406.20001220703</ele>
        <time>2013-05-25T13:06:17Z</time>
      </trkpt>
      <trkpt lat="43.39157" lon="6.06563">
        <ele>406.20001220703</ele>
        <time>2013-05-25T13:06:22Z</time>
      </trkpt>
      <trkpt lat="43.39157" lon="6.06564">
        <ele>406.20001220703</ele>
        <time>2013-05-25T13:06:23Z</time>
      </trkpt>
      <trkpt lat="43.3916" lon="6.06565">
        <ele>406.20001220703</ele>
        <time>2013-05-25T13:06:26Z</time>
      </trkpt>
      <trkpt lat="43.39163" lon="6.06565">
        <ele>406.20001220703</ele>
        <time>2013-05-25T13:06:28Z</time>
      </trkpt>
      <trkpt lat="43.3917" lon="6.06565">
        <ele>407</ele>
        <time>2013-05-25T13:06:32Z</time>
      </trkpt>
      <trkpt lat="43.3917" lon="6.06566">
        <ele>407.39999389648</ele>
        <time>2013-05-25T13:06:33Z</time>
      </trkpt>
      <trkpt lat="43.39172" lon="6.06568">
        <ele>408</ele>
        <time>2013-05-25T13:06:34Z</time>
      </trkpt>
      <trkpt lat="43.39173" lon="6.06569">
        <ele>408.39999389648</ele>
        <time>2013-05-25T13:06:35Z</time>
      </trkpt>
      <trkpt lat="43.39176" lon="6.06573">
        <ele>408.39999389648</ele>
        <time>2013-05-25T13:06:40Z</time>
      </trkpt>
      <trkpt lat="43.39178" lon="6.06578">
        <ele>408.39999389648</ele>
        <time>2013-05-25T13:06:46Z</time>
      </trkpt>
      <trkpt lat="43.3918" lon="6.0658">
        <ele>408.39999389648</ele>
        <time>2013-05-25T13:06:49Z</time>
      </trkpt>
      <trkpt lat="43.39185" lon="6.06588">
        <ele>409.60000610352</ele>
        <time>2013-05-25T13:06:56Z</time>
      </trkpt>
      <trkpt lat="43.39191" lon="6.06604">
        <ele>410.60000610352</ele>
        <time>2013-05-25T13:07:08Z</time>
      </trkpt>
      <trkpt lat="43.39198" lon="6.06609">
        <ele>411.39999389648</ele>
        <time>2013-05-25T13:07:14Z</time>
      </trkpt>
      <trkpt lat="43.392" lon="6.06611">
        <ele>412.60000610352</ele>
        <time>2013-05-25T13:07:16Z</time>
      </trkpt>
      <trkpt lat="43.39201" lon="6.06615">
        <ele>412.60000610352</ele>
        <time>2013-05-25T13:07:19Z</time>
      </trkpt>
      <trkpt lat="43.39202" lon="6.06619">
        <ele>412.60000610352</ele>
        <time>2013-05-25T13:07:21Z</time>
      </trkpt>
      <trkpt lat="43.39202" lon="6.06624">
        <ele>412.60000610352</ele>
        <time>2013-05-25T13:07:25Z</time>
      </trkpt>
      <trkpt lat="43.39202" lon="6.06632">
        <ele>412.60000610352</ele>
        <time>2013-05-25T13:07:32Z</time>
      </trkpt>
      <trkpt lat="43.39202" lon="6.06632">
        <ele>412.60000610352</ele>
        <time>2013-05-25T13:07:38Z</time>
      </trkpt>
      <trkpt lat="43.39202" lon="6.06632">
        <ele>412.60000610352</ele>
        <time>2013-05-25T13:07:44Z</time>
      </trkpt>
      <trkpt lat="43.39202" lon="6.06632">
        <ele>412.60000610352</ele>
        <time>2013-05-25T13:07:52Z</time>
      </trkpt>
      <trkpt lat="43.39204" lon="6.06633">
        <ele>413</ele>
        <time>2013-05-25T13:07:58Z</time>
      </trkpt>
      <trkpt lat="43.39204" lon="6.06633">
        <ele>413.39999389648</ele>
        <time>2013-05-25T13:07:59Z</time>
      </trkpt>
      <trkpt lat="43.39204" lon="6.06633">
        <ele>414.79998779297</ele>
        <time>2013-05-25T13:08:02Z</time>
      </trkpt>
      <trkpt lat="43.39205" lon="6.06635">
        <ele>414.79998779297</ele>
        <time>2013-05-25T13:08:06Z</time>
      </trkpt>
      <trkpt lat="43.39205" lon="6.06635">
        <ele>414.79998779297</ele>
        <time>2013-05-25T13:08:07Z</time>
      </trkpt>
      <trkpt lat="43.39207" lon="6.06637">
        <ele>414.79998779297</ele>
        <time>2013-05-25T13:08:10Z</time>
      </trkpt>
      <trkpt lat="43.39209" lon="6.0664">
        <ele>414.79998779297</ele>
        <time>2013-05-25T13:08:13Z</time>
      </trkpt>
      <trkpt lat="43.3921" lon="6.06641">
        <ele>414.39999389648</ele>
        <time>2013-05-25T13:08:15Z</time>
      </trkpt>
      <trkpt lat="43.3921" lon="6.06641">
        <ele>412.79998779297</ele>
        <time>2013-05-25T13:08:19Z</time>
      </trkpt>
      <trkpt lat="43.39209" lon="6.06647">
        <ele>412.79998779297</ele>
        <time>2013-05-25T13:08:31Z</time>
      </trkpt>
      <trkpt lat="43.39209" lon="6.06647">
        <ele>415</ele>
        <time>2013-05-25T13:08:45Z</time>
      </trkpt>
      <trkpt lat="43.39209" lon="6.06647">
        <ele>415</ele>
        <time>2013-05-25T13:08:53Z</time>
      </trkpt>
      <trkpt lat="43.39211" lon="6.06645">
        <ele>414</ele>
        <time>2013-05-25T13:08:58Z</time>
      </trkpt>
      <trkpt lat="43.39211" lon="6.06645">
        <ele>412.60000610352</ele>
        <time>2013-05-25T13:09:01Z</time>
      </trkpt>
      <trkpt lat="43.39211" lon="6.06644">
        <ele>412.60000610352</ele>
        <time>2013-05-25T13:09:06Z</time>
      </trkpt>
      <trkpt lat="43.39212" lon="6.06644">
        <ele>412.60000610352</ele>
        <time>2013-05-25T13:09:13Z</time>
      </trkpt>
      <trkpt lat="43.39212" lon="6.06645">
        <ele>412.60000610352</ele>
        <time>2013-05-25T13:09:27Z</time>
      </trkpt>
      <trkpt lat="43.39212" lon="6.06645">
        <ele>412.60000610352</ele>
        <time>2013-05-25T13:09:39Z</time>
      </trkpt>
      <trkpt lat="43.3921" lon="6.06642">
        <ele>412.60000610352</ele>
        <time>2013-05-25T13:09:45Z</time>
      </trkpt>
      <trkpt lat="43.39209" lon="6.06641">
        <ele>412.60000610352</ele>
        <time>2013-05-25T13:09:46Z</time>
      </trkpt>
      <trkpt lat="43.39206" lon="6.06637">
        <ele>413</ele>
        <time>2013-05-25T13:09:51Z</time>
      </trkpt>
      <trkpt lat="43.39205" lon="6.06636">
        <ele>413.60000610352</ele>
        <time>2013-05-25T13:09:52Z</time>
      </trkpt>
      <trkpt lat="43.39204" lon="6.06635">
        <ele>414</ele>
        <time>2013-05-25T13:09:53Z</time>
      </trkpt>
      <trkpt lat="43.39202" lon="6.06634">
        <ele>415</ele>
        <time>2013-05-25T13:09:55Z</time>
      </trkpt>
      <trkpt lat="43.39201" lon="6.06633">
        <ele>415</ele>
        <time>2013-05-25T13:09:59Z</time>
      </trkpt>
      <trkpt lat="43.39201" lon="6.06633">
        <ele>415</ele>
        <time>2013-05-25T13:10:07Z</time>
      </trkpt>
      <trkpt lat="43.39201" lon="6.06634">
        <ele>415</ele>
        <time>2013-05-25T13:10:18Z</time>
      </trkpt>
      <trkpt lat="43.39201" lon="6.06634">
        <ele>415</ele>
        <time>2013-05-25T13:10:23Z</time>
      </trkpt>
      <trkpt lat="43.39201" lon="6.06634">
        <ele>413.20001220703</ele>
        <time>2013-05-25T13:10:40Z</time>
      </trkpt>
      <trkpt lat="43.39201" lon="6.06634">
        <ele>415.20001220703</ele>
        <time>2013-05-25T13:10:59Z</time>
      </trkpt>
      <trkpt lat="43.39202" lon="6.06634">
        <ele>415.20001220703</ele>
        <time>2013-05-25T13:11:05Z</time>
      </trkpt>
      <trkpt lat="43.39206" lon="6.06638">
        <ele>415.20001220703</ele>
        <time>2013-05-25T13:11:11Z</time>
      </trkpt>
      <trkpt lat="43.39209" lon="6.06639">
        <ele>415.20001220703</ele>
        <time>2013-05-25T13:11:13Z</time>
      </trkpt>
      <trkpt lat="43.39211" lon="6.06645">
        <ele>415.20001220703</ele>
        <time>2013-05-25T13:11:17Z</time>
      </trkpt>
      <trkpt lat="43.39212" lon="6.06651">
        <ele>415.20001220703</ele>
        <time>2013-05-25T13:11:22Z</time>
      </trkpt>
      <trkpt lat="43.39212" lon="6.06652">
        <ele>414.39999389648</ele>
        <time>2013-05-25T13:11:23Z</time>
      </trkpt>
      <trkpt lat="43.39212" lon="6.06651">
        <ele>413.79998779297</ele>
        <time>2013-05-25T13:11:24Z</time>
      </trkpt>
      <trkpt lat="43.39212" lon="6.06651">
        <ele>413.39999389648</ele>
        <time>2013-05-25T13:11:25Z</time>
      </trkpt>
      <trkpt lat="43.39212" lon="6.06651">
        <ele>413</ele>
        <time>2013-05-25T13:11:26Z</time>
      </trkpt>
      <trkpt lat="43.39212" lon="6.06652">
        <ele>413</ele>
        <time>2013-05-25T13:11:29Z</time>
      </trkpt>
      <trkpt lat="43.39212" lon="6.06651">
        <ele>413</ele>
        <time>2013-05-25T13:11:31Z</time>
      </trkpt>
      <trkpt lat="43.39212" lon="6.06651">
        <ele>413</ele>
        <time>2013-05-25T13:11:44Z</time>
      </trkpt>
      <trkpt lat="43.39212" lon="6.06652">
        <ele>413</ele>
        <time>2013-05-25T13:12:08Z</time>
      </trkpt>
      <trkpt lat="43.39212" lon="6.06652">
        <ele>413</ele>
        <time>2013-05-25T13:12:16Z</time>
      </trkpt>
      <trkpt lat="43.39213" lon="6.06651">
        <ele>413</ele>
        <time>2013-05-25T13:12:22Z</time>
      </trkpt>
      <trkpt lat="43.39212" lon="6.06653">
        <ele>413</ele>
        <time>2013-05-25T13:12:30Z</time>
      </trkpt>
      <trkpt lat="43.39212" lon="6.06653">
        <ele>413</ele>
        <time>2013-05-25T13:12:37Z</time>
      </trkpt>
      <trkpt lat="43.39212" lon="6.06651">
        <ele>413</ele>
        <time>2013-05-25T13:12:42Z</time>
      </trkpt>
      <trkpt lat="43.39212" lon="6.06651">
        <ele>413</ele>
        <time>2013-05-25T13:12:43Z</time>
      </trkpt>
      <trkpt lat="43.39212" lon="6.06651">
        <ele>413.39999389648</ele>
        <time>2013-05-25T13:12:46Z</time>
      </trkpt>
      <trkpt lat="43.39212" lon="6.0665">
        <ele>413.79998779297</ele>
        <time>2013-05-25T13:12:47Z</time>
      </trkpt>
      <trkpt lat="43.39211" lon="6.0665">
        <ele>414.20001220703</ele>
        <time>2013-05-25T13:12:48Z</time>
      </trkpt>
      <trkpt lat="43.39211" lon="6.0665">
        <ele>414.79998779297</ele>
        <time>2013-05-25T13:12:49Z</time>
      </trkpt>
      <trkpt lat="43.39211" lon="6.0665">
        <ele>415.20001220703</ele>
        <time>2013-05-25T13:12:50Z</time>
      </trkpt>
      <trkpt lat="43.39211" lon="6.0665">
        <ele>415.20001220703</ele>
        <time>2013-05-25T13:13:19Z</time>
      </trkpt>
      <trkpt lat="43.39211" lon="6.0665">
        <ele>415.20001220703</ele>
        <time>2013-05-25T13:13:34Z</time>
      </trkpt>
      <trkpt lat="43.39211" lon="6.0665">
        <ele>415.20001220703</ele>
        <time>2013-05-25T13:13:39Z</time>
      </trkpt>
      <trkpt lat="43.39211" lon="6.0665">
        <ele>415.20001220703</ele>
        <time>2013-05-25T13:13:48Z</time>
      </trkpt>
      <trkpt lat="43.39211" lon="6.0665">
        <ele>415.20001220703</ele>
        <time>2013-05-25T13:13:56Z</time>
      </trkpt>
      <trkpt lat="43.39211" lon="6.06652">
        <ele>415.20001220703</ele>
        <time>2013-05-25T13:13:57Z</time>
      </trkpt>
      <trkpt lat="43.39213" lon="6.06656">
        <ele>414.39999389648</ele>
        <time>2013-05-25T13:13:59Z</time>
      </trkpt>
      <trkpt lat="43.39213" lon="6.06657">
        <ele>413.79998779297</ele>
        <time>2013-05-25T13:14:00Z</time>
      </trkpt>
      <trkpt lat="43.39213" lon="6.06657">
        <ele>413</ele>
        <time>2013-05-25T13:14:02Z</time>
      </trkpt>
      <trkpt lat="43.39213" lon="6.06657">
        <ele>413</ele>
        <time>2013-05-25T13:14:05Z</time>
      </trkpt>
      <trkpt lat="43.39212" lon="6.06657">
        <ele>413</ele>
        <time>2013-05-25T13:14:07Z</time>
      </trkpt>
      <trkpt lat="43.39212" lon="6.06657">
        <ele>413</ele>
        <time>2013-05-25T13:14:44Z</time>
      </trkpt>
      <trkpt lat="43.39212" lon="6.06657">
        <ele>413</ele>
        <time>2013-05-25T13:15:11Z</time>
      </trkpt>
      <trkpt lat="43.39212" lon="6.06657">
        <ele>413</ele>
        <time>2013-05-25T13:15:24Z</time>
      </trkpt>
      <trkpt lat="43.39212" lon="6.06657">
        <ele>413</ele>
        <time>2013-05-25T13:15:26Z</time>
      </trkpt>
      <trkpt lat="43.39212" lon="6.06657">
        <ele>413</ele>
        <time>2013-05-25T13:15:41Z</time>
      </trkpt>
      <trkpt lat="43.39212" lon="6.06657">
        <ele>413</ele>
        <time>2013-05-25T13:15:53Z</time>
      </trkpt>
      <trkpt lat="43.39212" lon="6.06656">
        <ele>413</ele>
        <time>2013-05-25T13:16:03Z</time>
      </trkpt>
      <trkpt lat="43.39212" lon="6.06656">
        <ele>413</ele>
        <time>2013-05-25T13:16:09Z</time>
      </trkpt>
      <trkpt lat="43.39212" lon="6.06656">
        <ele>413</ele>
        <time>2013-05-25T13:16:14Z</time>
      </trkpt>
      <trkpt lat="43.39214" lon="6.06659">
        <ele>413</ele>
        <time>2013-05-25T13:16:17Z</time>
      </trkpt>
      <trkpt lat="43.39214" lon="6.0666">
        <ele>413</ele>
        <time>2013-05-25T13:16:19Z</time>
      </trkpt>
      <trkpt lat="43.39214" lon="6.0666">
        <ele>413</ele>
        <time>2013-05-25T13:16:47Z</time>
      </trkpt>
      <trkpt lat="43.39214" lon="6.0666">
        <ele>413</ele>
        <time>2013-05-25T13:16:57Z</time>
      </trkpt>
      <trkpt lat="43.39214" lon="6.0666">
        <ele>413</ele>
        <time>2013-05-25T13:16:59Z</time>
      </trkpt>
      <trkpt lat="43.39214" lon="6.0666">
        <ele>413</ele>
        <time>2013-05-25T13:17:21Z</time>
      </trkpt>
      <trkpt lat="43.39214" lon="6.06661">
        <ele>413</ele>
        <time>2013-05-25T13:17:45Z</time>
      </trkpt>
      <trkpt lat="43.39214" lon="6.06661">
        <ele>413</ele>
        <time>2013-05-25T13:18:08Z</time>
      </trkpt>
      <trkpt lat="43.39214" lon="6.06661">
        <ele>413</ele>
        <time>2013-05-25T13:18:24Z</time>
      </trkpt>
      <trkpt lat="43.39214" lon="6.06661">
        <ele>413</ele>
        <time>2013-05-25T13:18:39Z</time>
      </trkpt>
      <trkpt lat="43.39215" lon="6.06665">
        <ele>413</ele>
        <time>2013-05-25T13:18:47Z</time>
      </trkpt>
      <trkpt lat="43.39215" lon="6.06666">
        <ele>413</ele>
        <time>2013-05-25T13:18:48Z</time>
      </trkpt>
      <trkpt lat="43.39216" lon="6.06668">
        <ele>413</ele>
        <time>2013-05-25T13:18:49Z</time>
      </trkpt>
      <trkpt lat="43.39217" lon="6.06676">
        <ele>413</ele>
        <time>2013-05-25T13:18:53Z</time>
      </trkpt>
      <trkpt lat="43.39218" lon="6.06688">
        <ele>413</ele>
        <time>2013-05-25T13:18:57Z</time>
      </trkpt>
      <trkpt lat="43.39218" lon="6.06691">
        <ele>413</ele>
        <time>2013-05-25T13:18:58Z</time>
      </trkpt>
      <trkpt lat="43.3922" lon="6.06703">
        <ele>413</ele>
        <time>2013-05-25T13:19:03Z</time>
      </trkpt>
      <trkpt lat="43.3922" lon="6.06704">
        <ele>413</ele>
        <time>2013-05-25T13:19:04Z</time>
      </trkpt>
      <trkpt lat="43.3922" lon="6.06704">
        <ele>410.60000610352</ele>
        <time>2013-05-25T13:19:12Z</time>
      </trkpt>
      <trkpt lat="43.3922" lon="6.06704">
        <ele>410</ele>
        <time>2013-05-25T13:19:15Z</time>
      </trkpt>
      <trkpt lat="43.3922" lon="6.06703">
        <ele>409.60000610352</ele>
        <time>2013-05-25T13:19:16Z</time>
      </trkpt>
      <trkpt lat="43.3922" lon="6.06702">
        <ele>408.39999389648</ele>
        <time>2013-05-25T13:19:19Z</time>
      </trkpt>
      <trkpt lat="43.3922" lon="6.06702">
        <ele>408.39999389648</ele>
        <time>2013-05-25T13:19:25Z</time>
      </trkpt>
      <trkpt lat="43.3922" lon="6.06702">
        <ele>410.60000610352</ele>
        <time>2013-05-25T13:19:33Z</time>
      </trkpt>
      <trkpt lat="43.3922" lon="6.06701">
        <ele>410.20001220703</ele>
        <time>2013-05-25T13:19:38Z</time>
      </trkpt>
      <trkpt lat="43.3922" lon="6.06701">
        <ele>409.39999389648</ele>
        <time>2013-05-25T13:19:40Z</time>
      </trkpt>
      <trkpt lat="43.39219" lon="6.067">
        <ele>409.79998779297</ele>
        <time>2013-05-25T13:19:42Z</time>
      </trkpt>
      <trkpt lat="43.39219" lon="6.067">
        <ele>410.60000610352</ele>
        <time>2013-05-25T13:19:48Z</time>
      </trkpt>
      <trkpt lat="43.39219" lon="6.06701">
        <ele>410.60000610352</ele>
        <time>2013-05-25T13:19:57Z</time>
      </trkpt>
      <trkpt lat="43.39219" lon="6.06701">
        <ele>408.39999389648</ele>
        <time>2013-05-25T13:20:05Z</time>
      </trkpt>
      <trkpt lat="43.39219" lon="6.06701">
        <ele>408.39999389648</ele>
        <time>2013-05-25T13:20:23Z</time>
      </trkpt>
      <trkpt lat="43.39217" lon="6.067">
        <ele>408.39999389648</ele>
        <time>2013-05-25T13:20:28Z</time>
      </trkpt>
      <trkpt lat="43.39217" lon="6.067">
        <ele>410.79998779297</ele>
        <time>2013-05-25T13:20:34Z</time>
      </trkpt>
      <trkpt lat="43.39216" lon="6.06701">
        <ele>410.79998779297</ele>
        <time>2013-05-25T13:20:37Z</time>
      </trkpt>
      <trkpt lat="43.39216" lon="6.06701">
        <ele>410.79998779297</ele>
        <time>2013-05-25T13:20:38Z</time>
      </trkpt>
      <trkpt lat="43.39214" lon="6.06707">
        <ele>410.79998779297</ele>
        <time>2013-05-25T13:20:42Z</time>
      </trkpt>
      <trkpt lat="43.39215" lon="6.06709">
        <ele>410.79998779297</ele>
        <time>2013-05-25T13:20:43Z</time>
      </trkpt>
      <trkpt lat="43.39219" lon="6.06719">
        <ele>410.79998779297</ele>
        <time>2013-05-25T13:20:48Z</time>
      </trkpt>
      <trkpt lat="43.39222" lon="6.06723">
        <ele>409.79998779297</ele>
        <time>2013-05-25T13:20:50Z</time>
      </trkpt>
      <trkpt lat="43.39223" lon="6.06725">
        <ele>409.39999389648</ele>
        <time>2013-05-25T13:20:51Z</time>
      </trkpt>
      <trkpt lat="43.39226" lon="6.0673">
        <ele>408.60000610352</ele>
        <time>2013-05-25T13:20:53Z</time>
      </trkpt>
      <trkpt lat="43.39227" lon="6.06732">
        <ele>408.60000610352</ele>
        <time>2013-05-25T13:20:54Z</time>
      </trkpt>
      <trkpt lat="43.3923" lon="6.06745">
        <ele>408.60000610352</ele>
        <time>2013-05-25T13:21:00Z</time>
      </trkpt>
      <trkpt lat="43.39233" lon="6.06751">
        <ele>407.79998779297</ele>
        <time>2013-05-25T13:21:03Z</time>
      </trkpt>
      <trkpt lat="43.39235" lon="6.06756">
        <ele>407</ele>
        <time>2013-05-25T13:21:05Z</time>
      </trkpt>
      <trkpt lat="43.39236" lon="6.06759">
        <ele>406.60000610352</ele>
        <time>2013-05-25T13:21:06Z</time>
      </trkpt>
      <trkpt lat="43.39237" lon="6.06766">
        <ele>406.20001220703</ele>
        <time>2013-05-25T13:21:08Z</time>
      </trkpt>
      <trkpt lat="43.39234" lon="6.06778">
        <ele>404.20001220703</ele>
        <time>2013-05-25T13:21:12Z</time>
      </trkpt>
      <trkpt lat="43.39235" lon="6.06785">
        <ele>404.20001220703</ele>
        <time>2013-05-25T13:21:15Z</time>
      </trkpt>
      <trkpt lat="43.39237" lon="6.06795">
        <ele>403.79998779297</ele>
        <time>2013-05-25T13:21:18Z</time>
      </trkpt>
      <trkpt lat="43.39236" lon="6.06801">
        <ele>403</ele>
        <time>2013-05-25T13:21:20Z</time>
      </trkpt>
      <trkpt lat="43.39236" lon="6.0681">
        <ele>402.20001220703</ele>
        <time>2013-05-25T13:21:23Z</time>
      </trkpt>
      <trkpt lat="43.39238" lon="6.0683">
        <ele>402.20001220703</ele>
        <time>2013-05-25T13:21:30Z</time>
      </trkpt>
      <trkpt lat="43.3924" lon="6.06847">
        <ele>402.20001220703</ele>
        <time>2013-05-25T13:21:36Z</time>
      </trkpt>
      <trkpt lat="43.39243" lon="6.0687">
        <ele>401.79998779297</ele>
        <time>2013-05-25T13:21:42Z</time>
      </trkpt>
      <trkpt lat="43.39243" lon="6.06871">
        <ele>401.39999389648</ele>
        <time>2013-05-25T13:21:43Z</time>
      </trkpt>
      <trkpt lat="43.39242" lon="6.06873">
        <ele>400.79998779297</ele>
        <time>2013-05-25T13:21:44Z</time>
      </trkpt>
      <trkpt lat="43.39243" lon="6.06875">
        <ele>400.39999389648</ele>
        <time>2013-05-25T13:21:45Z</time>
      </trkpt>
      <trkpt lat="43.39244" lon="6.06876">
        <ele>400</ele>
        <time>2013-05-25T13:21:46Z</time>
      </trkpt>
      <trkpt lat="43.39246" lon="6.06878">
        <ele>399.60000610352</ele>
        <time>2013-05-25T13:21:48Z</time>
      </trkpt>
      <trkpt lat="43.39246" lon="6.06878">
        <ele>397.60000610352</ele>
        <time>2013-05-25T13:21:57Z</time>
      </trkpt>
      <trkpt lat="43.39246" lon="6.06878">
        <ele>397.60000610352</ele>
        <time>2013-05-25T13:22:04Z</time>
      </trkpt>
      <trkpt lat="43.39247" lon="6.0688">
        <ele>397.60000610352</ele>
        <time>2013-05-25T13:22:09Z</time>
      </trkpt>
      <trkpt lat="43.39251" lon="6.0689">
        <ele>397.60000610352</ele>
        <time>2013-05-25T13:22:14Z</time>
      </trkpt>
      <trkpt lat="43.39253" lon="6.06892">
        <ele>397.60000610352</ele>
        <time>2013-05-25T13:22:15Z</time>
      </trkpt>
      <trkpt lat="43.39254" lon="6.06894">
        <ele>397.20001220703</ele>
        <time>2013-05-25T13:22:16Z</time>
      </trkpt>
      <trkpt lat="43.39256" lon="6.06895">
        <ele>396.79998779297</ele>
        <time>2013-05-25T13:22:17Z</time>
      </trkpt>
      <trkpt lat="43.39256" lon="6.06895">
        <ele>395.79998779297</ele>
        <time>2013-05-25T13:22:19Z</time>
      </trkpt>
      <trkpt lat="43.39256" lon="6.06895">
        <ele>394</ele>
        <time>2013-05-25T13:22:42Z</time>
      </trkpt>
      <trkpt lat="43.39256" lon="6.06895">
        <ele>393.20001220703</ele>
        <time>2013-05-25T13:23:10Z</time>
      </trkpt>
      <trkpt lat="43.39256" lon="6.06895">
        <ele>393.20001220703</ele>
        <time>2013-05-25T13:23:29Z</time>
      </trkpt>
      <trkpt lat="43.39257" lon="6.06896">
        <ele>393.20001220703</ele>
        <time>2013-05-25T13:23:35Z</time>
      </trkpt>
      <trkpt lat="43.39257" lon="6.06898">
        <ele>393.20001220703</ele>
        <time>2013-05-25T13:23:41Z</time>
      </trkpt>
      <trkpt lat="43.39257" lon="6.06898">
        <ele>393.20001220703</ele>
        <time>2013-05-25T13:24:07Z</time>
      </trkpt>
      <trkpt lat="43.39257" lon="6.06899">
        <ele>393.20001220703</ele>
        <time>2013-05-25T13:24:18Z</time>
      </trkpt>
      <trkpt lat="43.39257" lon="6.06899">
        <ele>393.20001220703</ele>
        <time>2013-05-25T13:24:42Z</time>
      </trkpt>
      <trkpt lat="43.39257" lon="6.06899">
        <ele>393.20001220703</ele>
        <time>2013-05-25T13:25:20Z</time>
      </trkpt>
      <trkpt lat="43.39258" lon="6.06901">
        <ele>393.20001220703</ele>
        <time>2013-05-25T13:25:28Z</time>
      </trkpt>
      <trkpt lat="43.3926" lon="6.06904">
        <ele>393.20001220703</ele>
        <time>2013-05-25T13:25:30Z</time>
      </trkpt>
      <trkpt lat="43.39263" lon="6.06912">
        <ele>393.20001220703</ele>
        <time>2013-05-25T13:25:33Z</time>
      </trkpt>
      <trkpt lat="43.39263" lon="6.06917">
        <ele>393.20001220703</ele>
        <time>2013-05-25T13:25:35Z</time>
      </trkpt>
      <trkpt lat="43.39264" lon="6.0692">
        <ele>392.79998779297</ele>
        <time>2013-05-25T13:25:36Z</time>
      </trkpt>
      <trkpt lat="43.39265" lon="6.06924">
        <ele>392.39999389648</ele>
        <time>2013-05-25T13:25:37Z</time>
      </trkpt>
      <trkpt lat="43.39265" lon="6.06927">
        <ele>391.79998779297</ele>
        <time>2013-05-25T13:25:38Z</time>
      </trkpt>
      <trkpt lat="43.39266" lon="6.0693">
        <ele>391.39999389648</ele>
        <time>2013-05-25T13:25:39Z</time>
      </trkpt>
      <trkpt lat="43.39266" lon="6.06932">
        <ele>391</ele>
        <time>2013-05-25T13:25:40Z</time>
      </trkpt>
      <trkpt lat="43.39268" lon="6.0694">
        <ele>390.20001220703</ele>
        <time>2013-05-25T13:25:44Z</time>
      </trkpt>
      <trkpt lat="43.39268" lon="6.06942">
        <ele>389.79998779297</ele>
        <time>2013-05-25T13:25:45Z</time>
      </trkpt>
      <trkpt lat="43.39268" lon="6.06943">
        <ele>388.60000610352</ele>
        <time>2013-05-25T13:25:46Z</time>
      </trkpt>
      <trkpt lat="43.39269" lon="6.06943">
        <ele>388</ele>
        <time>2013-05-25T13:25:47Z</time>
      </trkpt>
      <trkpt lat="43.39269" lon="6.06944">
        <ele>387.39999389648</ele>
        <time>2013-05-25T13:25:48Z</time>
      </trkpt>
      <trkpt lat="43.39269" lon="6.06945">
        <ele>386.79998779297</ele>
        <time>2013-05-25T13:25:49Z</time>
      </trkpt>
      <trkpt lat="43.3927" lon="6.06947">
        <ele>386.79998779297</ele>
        <time>2013-05-25T13:25:57Z</time>
      </trkpt>
      <trkpt lat="43.3927" lon="6.06947">
        <ele>386.79998779297</ele>
        <time>2013-05-25T13:26:04Z</time>
      </trkpt>
      <trkpt lat="43.39271" lon="6.06948">
        <ele>386.79998779297</ele>
        <time>2013-05-25T13:26:10Z</time>
      </trkpt>
      <trkpt lat="43.39272" lon="6.0695">
        <ele>386.79998779297</ele>
        <time>2013-05-25T13:26:21Z</time>
      </trkpt>
      <trkpt lat="43.39273" lon="6.06952">
        <ele>386.79998779297</ele>
        <time>2013-05-25T13:26:23Z</time>
      </trkpt>
      <trkpt lat="43.39275" lon="6.06957">
        <ele>386.79998779297</ele>
        <time>2013-05-25T13:26:26Z</time>
      </trkpt>
      <trkpt lat="43.39278" lon="6.06963">
        <ele>386.39999389648</ele>
        <time>2013-05-25T13:26:29Z</time>
      </trkpt>
      <trkpt lat="43.39279" lon="6.06966">
        <ele>386</ele>
        <time>2013-05-25T13:26:30Z</time>
      </trkpt>
      <trkpt lat="43.3928" lon="6.06969">
        <ele>385.60000610352</ele>
        <time>2013-05-25T13:26:31Z</time>
      </trkpt>
      <trkpt lat="43.39282" lon="6.06972">
        <ele>385.20001220703</ele>
        <time>2013-05-25T13:26:32Z</time>
      </trkpt>
      <trkpt lat="43.39283" lon="6.06976">
        <ele>384.60000610352</ele>
        <time>2013-05-25T13:26:33Z</time>
      </trkpt>
      <trkpt lat="43.39288" lon="6.06984">
        <ele>383.79998779297</ele>
        <time>2013-05-25T13:26:36Z</time>
      </trkpt>
      <trkpt lat="43.39289" lon="6.06987">
        <ele>383.39999389648</ele>
        <time>2013-05-25T13:26:37Z</time>
      </trkpt>
      <trkpt lat="43.39291" lon="6.0699">
        <ele>382.79998779297</ele>
        <time>2013-05-25T13:26:38Z</time>
      </trkpt>
      <trkpt lat="43.39291" lon="6.06993">
        <ele>382.39999389648</ele>
        <time>2013-05-25T13:26:39Z</time>
      </trkpt>
      <trkpt lat="43.39293" lon="6.06999">
        <ele>382</ele>
        <time>2013-05-25T13:26:41Z</time>
      </trkpt>
      <trkpt lat="43.39294" lon="6.07001">
        <ele>381.60000610352</ele>
        <time>2013-05-25T13:26:42Z</time>
      </trkpt>
      <trkpt lat="43.39294" lon="6.07003">
        <ele>381.20001220703</ele>
        <time>2013-05-25T13:26:43Z</time>
      </trkpt>
      <trkpt lat="43.39295" lon="6.07005">
        <ele>380.79998779297</ele>
        <time>2013-05-25T13:26:44Z</time>
      </trkpt>
      <trkpt lat="43.39297" lon="6.07011">
        <ele>380.39999389648</ele>
        <time>2013-05-25T13:26:49Z</time>
      </trkpt>
      <trkpt lat="43.39297" lon="6.07011">
        <ele>380.39999389648</ele>
        <time>2013-05-25T13:26:58Z</time>
      </trkpt>
      <trkpt lat="43.39297" lon="6.07011">
        <ele>378.20001220703</ele>
        <time>2013-05-25T13:27:10Z</time>
      </trkpt>
      <trkpt lat="43.39298" lon="6.07012">
        <ele>378.20001220703</ele>
        <time>2013-05-25T13:27:18Z</time>
      </trkpt>
      <trkpt lat="43.39299" lon="6.07014">
        <ele>378.20001220703</ele>
        <time>2013-05-25T13:27:25Z</time>
      </trkpt>
      <trkpt lat="43.39302" lon="6.07022">
        <ele>378.20001220703</ele>
        <time>2013-05-25T13:27:29Z</time>
      </trkpt>
      <trkpt lat="43.39309" lon="6.07032">
        <ele>378.20001220703</ele>
        <time>2013-05-25T13:27:36Z</time>
      </trkpt>
      <trkpt lat="43.39312" lon="6.07038">
        <ele>377.79998779297</ele>
        <time>2013-05-25T13:27:40Z</time>
      </trkpt>
      <trkpt lat="43.39313" lon="6.07038">
        <ele>377.39999389648</ele>
        <time>2013-05-25T13:27:41Z</time>
      </trkpt>
      <trkpt lat="43.39313" lon="6.07038">
        <ele>377</ele>
        <time>2013-05-25T13:27:42Z</time>
      </trkpt>
      <trkpt lat="43.39313" lon="6.07038">
        <ele>376.20001220703</ele>
        <time>2013-05-25T13:27:44Z</time>
      </trkpt>
      <trkpt lat="43.39315" lon="6.07042">
        <ele>376.20001220703</ele>
        <time>2013-05-25T13:27:49Z</time>
      </trkpt>
      <trkpt lat="43.39316" lon="6.07046">
        <ele>376.20001220703</ele>
        <time>2013-05-25T13:27:51Z</time>
      </trkpt>
      <trkpt lat="43.39317" lon="6.07049">
        <ele>375.60000610352</ele>
        <time>2013-05-25T13:27:52Z</time>
      </trkpt>
      <trkpt lat="43.39319" lon="6.07057">
        <ele>374.79998779297</ele>
        <time>2013-05-25T13:27:54Z</time>
      </trkpt>
      <trkpt lat="43.3932" lon="6.07061">
        <ele>374.20001220703</ele>
        <time>2013-05-25T13:27:55Z</time>
      </trkpt>
      <trkpt lat="43.39322" lon="6.07064">
        <ele>373.79998779297</ele>
        <time>2013-05-25T13:27:56Z</time>
      </trkpt>
      <trkpt lat="43.39324" lon="6.07068">
        <ele>373.20001220703</ele>
        <time>2013-05-25T13:27:57Z</time>
      </trkpt>
      <trkpt lat="43.39325" lon="6.07072">
        <ele>372.60000610352</ele>
        <time>2013-05-25T13:27:58Z</time>
      </trkpt>
      <trkpt lat="43.39327" lon="6.07076">
        <ele>372.20001220703</ele>
        <time>2013-05-25T13:27:59Z</time>
      </trkpt>
      <trkpt lat="43.39328" lon="6.07078">
        <ele>371.60000610352</ele>
        <time>2013-05-25T13:28:00Z</time>
      </trkpt>
      <trkpt lat="43.39334" lon="6.07089">
        <ele>371.60000610352</ele>
        <time>2013-05-25T13:28:04Z</time>
      </trkpt>
      <trkpt lat="43.39334" lon="6.07094">
        <ele>370.79998779297</ele>
        <time>2013-05-25T13:28:06Z</time>
      </trkpt>
      <trkpt lat="43.39337" lon="6.07103">
        <ele>369.60000610352</ele>
        <time>2013-05-25T13:28:09Z</time>
      </trkpt>
      <trkpt lat="43.3934" lon="6.07116">
        <ele>369.60000610352</ele>
        <time>2013-05-25T13:28:13Z</time>
      </trkpt>
      <trkpt lat="43.39342" lon="6.07119">
        <ele>369.60000610352</ele>
        <time>2013-05-25T13:28:14Z</time>
      </trkpt>
      <trkpt lat="43.39348" lon="6.07132">
        <ele>369.20001220703</ele>
        <time>2013-05-25T13:28:19Z</time>
      </trkpt>
      <trkpt lat="43.39348" lon="6.07132">
        <ele>368.79998779297</ele>
        <time>2013-05-25T13:28:20Z</time>
      </trkpt>
      <trkpt lat="43.39348" lon="6.07132">
        <ele>367.60000610352</ele>
        <time>2013-05-25T13:28:23Z</time>
      </trkpt>
      <trkpt lat="43.39349" lon="6.07131">
        <ele>367.60000610352</ele>
        <time>2013-05-25T13:28:25Z</time>
      </trkpt>
      <trkpt lat="43.39349" lon="6.07131">
        <ele>367.60000610352</ele>
        <time>2013-05-25T13:28:45Z</time>
      </trkpt>
      <trkpt lat="43.39349" lon="6.07131">
        <ele>367.60000610352</ele>
        <time>2013-05-25T13:28:56Z</time>
      </trkpt>
      <trkpt lat="43.39349" lon="6.07131">
        <ele>367.60000610352</ele>
        <time>2013-05-25T13:29:07Z</time>
      </trkpt>
      <trkpt lat="43.39348" lon="6.07139">
        <ele>367.60000610352</ele>
        <time>2013-05-25T13:29:13Z</time>
      </trkpt>
      <trkpt lat="43.39347" lon="6.07145">
        <ele>367</ele>
        <time>2013-05-25T13:29:17Z</time>
      </trkpt>
      <trkpt lat="43.39347" lon="6.07146">
        <ele>366.60000610352</ele>
        <time>2013-05-25T13:29:18Z</time>
      </trkpt>
      <trkpt lat="43.39348" lon="6.07147">
        <ele>366.20001220703</ele>
        <time>2013-05-25T13:29:19Z</time>
      </trkpt>
      <trkpt lat="43.39348" lon="6.07148">
        <ele>365.39999389648</ele>
        <time>2013-05-25T13:29:21Z</time>
      </trkpt>
      <trkpt lat="43.39348" lon="6.07148">
        <ele>365.39999389648</ele>
        <time>2013-05-25T13:29:41Z</time>
      </trkpt>
      <trkpt lat="43.39348" lon="6.07148">
        <ele>365.39999389648</ele>
        <time>2013-05-25T13:29:56Z</time>
      </trkpt>
      <trkpt lat="43.39347" lon="6.07155">
        <ele>365.39999389648</ele>
        <time>2013-05-25T13:30:01Z</time>
      </trkpt>
      <trkpt lat="43.39346" lon="6.07157">
        <ele>365.39999389648</ele>
        <time>2013-05-25T13:30:02Z</time>
      </trkpt>
      <trkpt lat="43.39347" lon="6.07167">
        <ele>365.39999389648</ele>
        <time>2013-05-25T13:30:06Z</time>
      </trkpt>
      <trkpt lat="43.39348" lon="6.07169">
        <ele>365</ele>
        <time>2013-05-25T13:30:07Z</time>
      </trkpt>
      <trkpt lat="43.39348" lon="6.07174">
        <ele>364</ele>
        <time>2013-05-25T13:30:09Z</time>
      </trkpt>
      <trkpt lat="43.39347" lon="6.07177">
        <ele>363.60000610352</ele>
        <time>2013-05-25T13:30:10Z</time>
      </trkpt>
      <trkpt lat="43.39347" lon="6.07179">
        <ele>363.20001220703</ele>
        <time>2013-05-25T13:30:11Z</time>
      </trkpt>
      <trkpt lat="43.39348" lon="6.07182">
        <ele>363.20001220703</ele>
        <time>2013-05-25T13:30:12Z</time>
      </trkpt>
      <trkpt lat="43.39349" lon="6.07189">
        <ele>361.60000610352</ele>
        <time>2013-05-25T13:30:15Z</time>
      </trkpt>
      <trkpt lat="43.39349" lon="6.07194">
        <ele>360.60000610352</ele>
        <time>2013-05-25T13:30:17Z</time>
      </trkpt>
      <trkpt lat="43.39349" lon="6.07199">
        <ele>358.60000610352</ele>
        <time>2013-05-25T13:30:20Z</time>
      </trkpt>
      <trkpt lat="43.3935" lon="6.07204">
        <ele>357.60000610352</ele>
        <time>2013-05-25T13:30:22Z</time>
      </trkpt>
      <trkpt lat="43.39352" lon="6.07215">
        <ele>355.39999389648</ele>
        <time>2013-05-25T13:30:26Z</time>
      </trkpt>
      <trkpt lat="43.39353" lon="6.0722">
        <ele>355</ele>
        <time>2013-05-25T13:30:27Z</time>
      </trkpt>
      <trkpt lat="43.39354" lon="6.07222">
        <ele>354.60000610352</ele>
        <time>2013-05-25T13:30:28Z</time>
      </trkpt>
      <trkpt lat="43.39354" lon="6.07225">
        <ele>354</ele>
        <time>2013-05-25T13:30:29Z</time>
      </trkpt>
      <trkpt lat="43.39354" lon="6.07227">
        <ele>353.39999389648</ele>
        <time>2013-05-25T13:30:30Z</time>
      </trkpt>
      <trkpt lat="43.39355" lon="6.07229">
        <ele>353</ele>
        <time>2013-05-25T13:30:31Z</time>
      </trkpt>
      <trkpt lat="43.39355" lon="6.07233">
        <ele>351.79998779297</ele>
        <time>2013-05-25T13:30:33Z</time>
      </trkpt>
      <trkpt lat="43.39355" lon="6.07235">
        <ele>351.39999389648</ele>
        <time>2013-05-25T13:30:34Z</time>
      </trkpt>
      <trkpt lat="43.39355" lon="6.07238">
        <ele>350.60000610352</ele>
        <time>2013-05-25T13:30:36Z</time>
      </trkpt>
      <trkpt lat="43.39356" lon="6.07238">
        <ele>350.20001220703</ele>
        <time>2013-05-25T13:30:37Z</time>
      </trkpt>
      <trkpt lat="43.39357" lon="6.07239">
        <ele>349.79998779297</ele>
        <time>2013-05-25T13:30:38Z</time>
      </trkpt>
      <trkpt lat="43.39357" lon="6.07242">
        <ele>349.39999389648</ele>
        <time>2013-05-25T13:30:47Z</time>
      </trkpt>
      <trkpt lat="43.39357" lon="6.07244">
        <ele>348.60000610352</ele>
        <time>2013-05-25T13:30:49Z</time>
      </trkpt>
      <trkpt lat="43.39358" lon="6.07249">
        <ele>347.79998779297</ele>
        <time>2013-05-25T13:30:51Z</time>
      </trkpt>
      <trkpt lat="43.39358" lon="6.07253">
        <ele>347.39999389648</ele>
        <time>2013-05-25T13:30:53Z</time>
      </trkpt>
      <trkpt lat="43.39359" lon="6.07259">
        <ele>346.39999389648</ele>
        <time>2013-05-25T13:30:55Z</time>
      </trkpt>
      <trkpt lat="43.39359" lon="6.07261">
        <ele>346</ele>
        <time>2013-05-25T13:30:56Z</time>
      </trkpt>
      <trkpt lat="43.39358" lon="6.07262">
        <ele>345.60000610352</ele>
        <time>2013-05-25T13:30:57Z</time>
      </trkpt>
      <trkpt lat="43.39359" lon="6.07264">
        <ele>345.20001220703</ele>
        <time>2013-05-25T13:30:58Z</time>
      </trkpt>
      <trkpt lat="43.39358" lon="6.07266">
        <ele>344.79998779297</ele>
        <time>2013-05-25T13:30:59Z</time>
      </trkpt>
      <trkpt lat="43.39358" lon="6.07268">
        <ele>344.39999389648</ele>
        <time>2013-05-25T13:31:00Z</time>
      </trkpt>
      <trkpt lat="43.39358" lon="6.07272">
        <ele>343.39999389648</ele>
        <time>2013-05-25T13:31:02Z</time>
      </trkpt>
      <trkpt lat="43.39358" lon="6.07273">
        <ele>343</ele>
        <time>2013-05-25T13:31:03Z</time>
      </trkpt>
      <trkpt lat="43.39359" lon="6.07276">
        <ele>342</ele>
        <time>2013-05-25T13:31:05Z</time>
      </trkpt>
      <trkpt lat="43.39358" lon="6.07277">
        <ele>341.39999389648</ele>
        <time>2013-05-25T13:31:06Z</time>
      </trkpt>
      <trkpt lat="43.39358" lon="6.07277">
        <ele>341</ele>
        <time>2013-05-25T13:31:07Z</time>
      </trkpt>
      <trkpt lat="43.39359" lon="6.07282">
        <ele>341</ele>
        <time>2013-05-25T13:31:11Z</time>
      </trkpt>
      <trkpt lat="43.39358" lon="6.07286">
        <ele>340.60000610352</ele>
        <time>2013-05-25T13:31:13Z</time>
      </trkpt>
      <trkpt lat="43.39359" lon="6.07289">
        <ele>339.60000610352</ele>
        <time>2013-05-25T13:31:15Z</time>
      </trkpt>
      <trkpt lat="43.3936" lon="6.07293">
        <ele>338.60000610352</ele>
        <time>2013-05-25T13:31:17Z</time>
      </trkpt>
      <trkpt lat="43.39361" lon="6.07298">
        <ele>338.20001220703</ele>
        <time>2013-05-25T13:31:21Z</time>
      </trkpt>
      <trkpt lat="43.39361" lon="6.07298">
        <ele>336.60000610352</ele>
        <time>2013-05-25T13:31:43Z</time>
      </trkpt>
      <trkpt lat="43.39361" lon="6.07298">
        <ele>336.60000610352</ele>
        <time>2013-05-25T13:31:52Z</time>
      </trkpt>
      <trkpt lat="43.39362" lon="6.07298">
        <ele>336.60000610352</ele>
        <time>2013-05-25T13:31:59Z</time>
      </trkpt>
      <trkpt lat="43.39362" lon="6.07299">
        <ele>336.60000610352</ele>
        <time>2013-05-25T13:32:06Z</time>
      </trkpt>
      <trkpt lat="43.39362" lon="6.07304">
        <ele>336.60000610352</ele>
        <time>2013-05-25T13:32:15Z</time>
      </trkpt>
      <trkpt lat="43.39362" lon="6.07318">
        <ele>335</ele>
        <time>2013-05-25T13:32:22Z</time>
      </trkpt>
      <trkpt lat="43.39362" lon="6.07321">
        <ele>334.60000610352</ele>
        <time>2013-05-25T13:32:26Z</time>
      </trkpt>
      <trkpt lat="43.39361" lon="6.07325">
        <ele>333.60000610352</ele>
        <time>2013-05-25T13:32:28Z</time>
      </trkpt>
      <trkpt lat="43.39361" lon="6.07326">
        <ele>333.20001220703</ele>
        <time>2013-05-25T13:32:29Z</time>
      </trkpt>
      <trkpt lat="43.39362" lon="6.07327">
        <ele>332.79998779297</ele>
        <time>2013-05-25T13:32:30Z</time>
      </trkpt>
      <trkpt lat="43.39362" lon="6.07328">
        <ele>332.39999389648</ele>
        <time>2013-05-25T13:32:31Z</time>
      </trkpt>
      <trkpt lat="43.39361" lon="6.07339">
        <ele>332</ele>
        <time>2013-05-25T13:32:35Z</time>
      </trkpt>
      <trkpt lat="43.39361" lon="6.07342">
        <ele>331.60000610352</ele>
        <time>2013-05-25T13:32:36Z</time>
      </trkpt>
      <trkpt lat="43.39361" lon="6.07344">
        <ele>331.20001220703</ele>
        <time>2013-05-25T13:32:37Z</time>
      </trkpt>
      <trkpt lat="43.39361" lon="6.07346">
        <ele>330.60000610352</ele>
        <time>2013-05-25T13:32:38Z</time>
      </trkpt>
      <trkpt lat="43.39361" lon="6.07348">
        <ele>330.20001220703</ele>
        <time>2013-05-25T13:32:39Z</time>
      </trkpt>
      <trkpt lat="43.39361" lon="6.07354">
        <ele>330.20001220703</ele>
        <time>2013-05-25T13:32:41Z</time>
      </trkpt>
      <trkpt lat="43.39361" lon="6.07354">
        <ele>329.79998779297</ele>
        <time>2013-05-25T13:32:42Z</time>
      </trkpt>
      <trkpt lat="43.3936" lon="6.07356">
        <ele>329.20001220703</ele>
        <time>2013-05-25T13:32:43Z</time>
      </trkpt>
      <trkpt lat="43.3936" lon="6.07357">
        <ele>328.79998779297</ele>
        <time>2013-05-25T13:32:44Z</time>
      </trkpt>
      <trkpt lat="43.39362" lon="6.07358">
        <ele>327.79998779297</ele>
        <time>2013-05-25T13:32:46Z</time>
      </trkpt>
      <trkpt lat="43.39362" lon="6.07358">
        <ele>327.79998779297</ele>
        <time>2013-05-25T13:33:04Z</time>
      </trkpt>
      <trkpt lat="43.39363" lon="6.07357">
        <ele>327.79998779297</ele>
        <time>2013-05-25T13:33:10Z</time>
      </trkpt>
      <trkpt lat="43.39363" lon="6.07357">
        <ele>327.79998779297</ele>
        <time>2013-05-25T13:33:16Z</time>
      </trkpt>
      <trkpt lat="43.39363" lon="6.07357">
        <ele>327.79998779297</ele>
        <time>2013-05-25T13:33:23Z</time>
      </trkpt>
      <trkpt lat="43.39364" lon="6.07363">
        <ele>327</ele>
        <time>2013-05-25T13:33:28Z</time>
      </trkpt>
      <trkpt lat="43.39365" lon="6.07366">
        <ele>325.79998779297</ele>
        <time>2013-05-25T13:33:31Z</time>
      </trkpt>
      <trkpt lat="43.39365" lon="6.07367">
        <ele>325.79998779297</ele>
        <time>2013-05-25T13:33:34Z</time>
      </trkpt>
      <trkpt lat="43.39366" lon="6.0737">
        <ele>325.79998779297</ele>
        <time>2013-05-25T13:33:43Z</time>
      </trkpt>
      <trkpt lat="43.39367" lon="6.07379">
        <ele>325.79998779297</ele>
        <time>2013-05-25T13:33:49Z</time>
      </trkpt>
      <trkpt lat="43.39367" lon="6.07381">
        <ele>325.39999389648</ele>
        <time>2013-05-25T13:33:51Z</time>
      </trkpt>
      <trkpt lat="43.39367" lon="6.07382">
        <ele>325</ele>
        <time>2013-05-25T13:33:52Z</time>
      </trkpt>
      <trkpt lat="43.39367" lon="6.07386">
        <ele>324.20001220703</ele>
        <time>2013-05-25T13:33:54Z</time>
      </trkpt>
      <trkpt lat="43.39367" lon="6.07388">
        <ele>323.79998779297</ele>
        <time>2013-05-25T13:33:55Z</time>
      </trkpt>
      <trkpt lat="43.39368" lon="6.07395">
        <ele>323.39999389648</ele>
        <time>2013-05-25T13:33:58Z</time>
      </trkpt>
      <trkpt lat="43.39368" lon="6.07397">
        <ele>322.79998779297</ele>
        <time>2013-05-25T13:33:59Z</time>
      </trkpt>
      <trkpt lat="43.39368" lon="6.074">
        <ele>322.39999389648</ele>
        <time>2013-05-25T13:34:00Z</time>
      </trkpt>
      <trkpt lat="43.39368" lon="6.07402">
        <ele>321.60000610352</ele>
        <time>2013-05-25T13:34:01Z</time>
      </trkpt>
      <trkpt lat="43.39368" lon="6.07411">
        <ele>321.60000610352</ele>
        <time>2013-05-25T13:34:04Z</time>
      </trkpt>
      <trkpt lat="43.39368" lon="6.07414">
        <ele>321.20001220703</ele>
        <time>2013-05-25T13:34:05Z</time>
      </trkpt>
      <trkpt lat="43.39368" lon="6.07416">
        <ele>320.79998779297</ele>
        <time>2013-05-25T13:34:06Z</time>
      </trkpt>
      <trkpt lat="43.39368" lon="6.0742">
        <ele>320</ele>
        <time>2013-05-25T13:34:08Z</time>
      </trkpt>
      <trkpt lat="43.39369" lon="6.0742">
        <ele>319.60000610352</ele>
        <time>2013-05-25T13:34:09Z</time>
      </trkpt>
      <trkpt lat="43.39369" lon="6.0742">
        <ele>319.60000610352</ele>
        <time>2013-05-25T13:34:12Z</time>
      </trkpt>
      <trkpt lat="43.3937" lon="6.07422">
        <ele>319.60000610352</ele>
        <time>2013-05-25T13:34:21Z</time>
      </trkpt>
      <trkpt lat="43.39372" lon="6.07433">
        <ele>319.60000610352</ele>
        <time>2013-05-25T13:34:26Z</time>
      </trkpt>
      <trkpt lat="43.39372" lon="6.07434">
        <ele>319.20001220703</ele>
        <time>2013-05-25T13:34:27Z</time>
      </trkpt>
      <trkpt lat="43.39372" lon="6.07436">
        <ele>318.79998779297</ele>
        <time>2013-05-25T13:34:28Z</time>
      </trkpt>
      <trkpt lat="43.39373" lon="6.07438">
        <ele>318.39999389648</ele>
        <time>2013-05-25T13:34:29Z</time>
      </trkpt>
      <trkpt lat="43.39374" lon="6.07439">
        <ele>318</ele>
        <time>2013-05-25T13:34:30Z</time>
      </trkpt>
      <trkpt lat="43.39375" lon="6.07442">
        <ele>317.60000610352</ele>
        <time>2013-05-25T13:34:31Z</time>
      </trkpt>
      <trkpt lat="43.39378" lon="6.07446">
        <ele>317.60000610352</ele>
        <time>2013-05-25T13:34:34Z</time>
      </trkpt>
      <trkpt lat="43.39379" lon="6.07449">
        <ele>317.20001220703</ele>
        <time>2013-05-25T13:34:35Z</time>
      </trkpt>
      <trkpt lat="43.39379" lon="6.07452">
        <ele>316.79998779297</ele>
        <time>2013-05-25T13:34:36Z</time>
      </trkpt>
      <trkpt lat="43.39379" lon="6.07454">
        <ele>316.39999389648</ele>
        <time>2013-05-25T13:34:37Z</time>
      </trkpt>
      <trkpt lat="43.39379" lon="6.07455">
        <ele>316</ele>
        <time>2013-05-25T13:34:38Z</time>
      </trkpt>
      <trkpt lat="43.39379" lon="6.07455">
        <ele>315.60000610352</ele>
        <time>2013-05-25T13:34:39Z</time>
      </trkpt>
      <trkpt lat="43.39378" lon="6.07455">
        <ele>315.60000610352</ele>
        <time>2013-05-25T13:34:40Z</time>
      </trkpt>
      <trkpt lat="43.39378" lon="6.07455">
        <ele>315.60000610352</ele>
        <time>2013-05-25T13:34:47Z</time>
      </trkpt>
      <trkpt lat="43.3938" lon="6.07457">
        <ele>314.60000610352</ele>
        <time>2013-05-25T13:34:51Z</time>
      </trkpt>
      <trkpt lat="43.3938" lon="6.0746">
        <ele>314.20001220703</ele>
        <time>2013-05-25T13:34:52Z</time>
      </trkpt>
      <trkpt lat="43.3938" lon="6.07463">
        <ele>313.79998779297</ele>
        <time>2013-05-25T13:34:53Z</time>
      </trkpt>
      <trkpt lat="43.3938" lon="6.07465">
        <ele>313.39999389648</ele>
        <time>2013-05-25T13:34:54Z</time>
      </trkpt>
      <trkpt lat="43.39384" lon="6.07474">
        <ele>313</ele>
        <time>2013-05-25T13:34:58Z</time>
      </trkpt>
      <trkpt lat="43.39384" lon="6.07476">
        <ele>312.39999389648</ele>
        <time>2013-05-25T13:34:59Z</time>
      </trkpt>
      <trkpt lat="43.39385" lon="6.0748">
        <ele>312</ele>
        <time>2013-05-25T13:35:00Z</time>
      </trkpt>
      <trkpt lat="43.39386" lon="6.07483">
        <ele>311.39999389648</ele>
        <time>2013-05-25T13:35:01Z</time>
      </trkpt>
      <trkpt lat="43.39387" lon="6.07488">
        <ele>311</ele>
        <time>2013-05-25T13:35:02Z</time>
      </trkpt>
      <trkpt lat="43.39388" lon="6.07492">
        <ele>311</ele>
        <time>2013-05-25T13:35:03Z</time>
      </trkpt>
      <trkpt lat="43.39389" lon="6.07497">
        <ele>310.60000610352</ele>
        <time>2013-05-25T13:35:04Z</time>
      </trkpt>
      <trkpt lat="43.39391" lon="6.07502">
        <ele>310</ele>
        <time>2013-05-25T13:35:05Z</time>
      </trkpt>
      <trkpt lat="43.39392" lon="6.07507">
        <ele>309.60000610352</ele>
        <time>2013-05-25T13:35:06Z</time>
      </trkpt>
      <trkpt lat="43.39394" lon="6.07515">
        <ele>308.79998779297</ele>
        <time>2013-05-25T13:35:08Z</time>
      </trkpt>
      <trkpt lat="43.39395" lon="6.07519">
        <ele>308.20001220703</ele>
        <time>2013-05-25T13:35:09Z</time>
      </trkpt>
      <trkpt lat="43.39395" lon="6.07521">
        <ele>307.60000610352</ele>
        <time>2013-05-25T13:35:10Z</time>
      </trkpt>
      <trkpt lat="43.39396" lon="6.07524">
        <ele>307.20001220703</ele>
        <time>2013-05-25T13:35:11Z</time>
      </trkpt>
      <trkpt lat="43.39396" lon="6.07525">
        <ele>306.60000610352</ele>
        <time>2013-05-25T13:35:12Z</time>
      </trkpt>
      <trkpt lat="43.39396" lon="6.07527">
        <ele>306.20001220703</ele>
        <time>2013-05-25T13:35:13Z</time>
      </trkpt>
      <trkpt lat="43.39397" lon="6.07529">
        <ele>305.79998779297</ele>
        <time>2013-05-25T13:35:14Z</time>
      </trkpt>
      <trkpt lat="43.39397" lon="6.0753">
        <ele>305</ele>
        <time>2013-05-25T13:35:15Z</time>
      </trkpt>
      <trkpt lat="43.39398" lon="6.07532">
        <ele>304.60000610352</ele>
        <time>2013-05-25T13:35:16Z</time>
      </trkpt>
      <trkpt lat="43.39401" lon="6.07537">
        <ele>304.60000610352</ele>
        <time>2013-05-25T13:35:21Z</time>
      </trkpt>
      <trkpt lat="43.39401" lon="6.07539">
        <ele>304.20001220703</ele>
        <time>2013-05-25T13:35:25Z</time>
      </trkpt>
      <trkpt lat="43.39401" lon="6.07539">
        <ele>302.39999389648</ele>
        <time>2013-05-25T13:35:41Z</time>
      </trkpt>
      <trkpt lat="43.39401" lon="6.07539">
        <ele>302.39999389648</ele>
        <time>2013-05-25T13:35:43Z</time>
      </trkpt>
      <trkpt lat="43.39402" lon="6.07545">
        <ele>302.39999389648</ele>
        <time>2013-05-25T13:35:50Z</time>
      </trkpt>
      <trkpt lat="43.39405" lon="6.07558">
        <ele>302.39999389648</ele>
        <time>2013-05-25T13:35:56Z</time>
      </trkpt>
      <trkpt lat="43.39402" lon="6.07574">
        <ele>302.39999389648</ele>
        <time>2013-05-25T13:36:01Z</time>
      </trkpt>
      <trkpt lat="43.39402" lon="6.07578">
        <ele>302</ele>
        <time>2013-05-25T13:36:02Z</time>
      </trkpt>
      <trkpt lat="43.39402" lon="6.07582">
        <ele>301.60000610352</ele>
        <time>2013-05-25T13:36:03Z</time>
      </trkpt>
      <trkpt lat="43.39403" lon="6.07587">
        <ele>301</ele>
        <time>2013-05-25T13:36:04Z</time>
      </trkpt>
      <trkpt lat="43.39403" lon="6.07591">
        <ele>300.60000610352</ele>
        <time>2013-05-25T13:36:05Z</time>
      </trkpt>
      <trkpt lat="43.39404" lon="6.07596">
        <ele>300.20001220703</ele>
        <time>2013-05-25T13:36:06Z</time>
      </trkpt>
      <trkpt lat="43.39404" lon="6.076">
        <ele>300.20001220703</ele>
        <time>2013-05-25T13:36:07Z</time>
      </trkpt>
      <trkpt lat="43.39408" lon="6.07613">
        <ele>299.79998779297</ele>
        <time>2013-05-25T13:36:10Z</time>
      </trkpt>
      <trkpt lat="43.39411" lon="6.07617">
        <ele>299.39999389648</ele>
        <time>2013-05-25T13:36:11Z</time>
      </trkpt>
      <trkpt lat="43.39413" lon="6.0762">
        <ele>299</ele>
        <time>2013-05-25T13:36:12Z</time>
      </trkpt>
      <trkpt lat="43.39416" lon="6.07623">
        <ele>298.39999389648</ele>
        <time>2013-05-25T13:36:13Z</time>
      </trkpt>
      <trkpt lat="43.39418" lon="6.07627">
        <ele>298</ele>
        <time>2013-05-25T13:36:14Z</time>
      </trkpt>
      <trkpt lat="43.39421" lon="6.07632">
        <ele>297.60000610352</ele>
        <time>2013-05-25T13:36:16Z</time>
      </trkpt>
      <trkpt lat="43.39422" lon="6.07634">
        <ele>297.20001220703</ele>
        <time>2013-05-25T13:36:17Z</time>
      </trkpt>
      <trkpt lat="43.39423" lon="6.07635">
        <ele>296.79998779297</ele>
        <time>2013-05-25T13:36:18Z</time>
      </trkpt>
      <trkpt lat="43.39425" lon="6.07635">
        <ele>296.39999389648</ele>
        <time>2013-05-25T13:36:19Z</time>
      </trkpt>
      <trkpt lat="43.39426" lon="6.07637">
        <ele>296</ele>
        <time>2013-05-25T13:36:20Z</time>
      </trkpt>
      <trkpt lat="43.39428" lon="6.07638">
        <ele>296</ele>
        <time>2013-05-25T13:36:21Z</time>
      </trkpt>
      <trkpt lat="43.39434" lon="6.07644">
        <ele>296</ele>
        <time>2013-05-25T13:36:27Z</time>
      </trkpt>
      <trkpt lat="43.39434" lon="6.07644">
        <ele>296</ele>
        <time>2013-05-25T13:36:39Z</time>
      </trkpt>
      <trkpt lat="43.39436" lon="6.07646">
        <ele>295.60000610352</ele>
        <time>2013-05-25T13:36:40Z</time>
      </trkpt>
      <trkpt lat="43.39437" lon="6.07648">
        <ele>295.20001220703</ele>
        <time>2013-05-25T13:36:41Z</time>
      </trkpt>
      <trkpt lat="43.39438" lon="6.0765">
        <ele>294.79998779297</ele>
        <time>2013-05-25T13:36:42Z</time>
      </trkpt>
      <trkpt lat="43.39439" lon="6.0765">
        <ele>294.39999389648</ele>
        <time>2013-05-25T13:36:43Z</time>
      </trkpt>
      <trkpt lat="43.3944" lon="6.07652">
        <ele>294</ele>
        <time>2013-05-25T13:36:44Z</time>
      </trkpt>
      <trkpt lat="43.39448" lon="6.07653">
        <ele>294</ele>
        <time>2013-05-25T13:36:48Z</time>
      </trkpt>
      <trkpt lat="43.39457" lon="6.07657">
        <ele>294</ele>
        <time>2013-05-25T13:36:52Z</time>
      </trkpt>
      <trkpt lat="43.39459" lon="6.07658">
        <ele>294</ele>
        <time>2013-05-25T13:36:53Z</time>
      </trkpt>
      <trkpt lat="43.39459" lon="6.07661">
        <ele>294</ele>
        <time>2013-05-25T13:36:54Z</time>
      </trkpt>
      <trkpt lat="43.39459" lon="6.0767">
        <ele>294</ele>
        <time>2013-05-25T13:36:56Z</time>
      </trkpt>
      <trkpt lat="43.39458" lon="6.07697">
        <ele>294</ele>
        <time>2013-05-25T13:37:00Z</time>
      </trkpt>
      <trkpt lat="43.3946" lon="6.07705">
        <ele>293.60000610352</ele>
        <time>2013-05-25T13:37:01Z</time>
      </trkpt>
      <trkpt lat="43.39461" lon="6.07712">
        <ele>293.20001220703</ele>
        <time>2013-05-25T13:37:02Z</time>
      </trkpt>
      <trkpt lat="43.39463" lon="6.07718">
        <ele>292.60000610352</ele>
        <time>2013-05-25T13:37:03Z</time>
      </trkpt>
      <trkpt lat="43.39466" lon="6.07728">
        <ele>291.79998779297</ele>
        <time>2013-05-25T13:37:05Z</time>
      </trkpt>
      <trkpt lat="43.39468" lon="6.07734">
        <ele>291.39999389648</ele>
        <time>2013-05-25T13:37:06Z</time>
      </trkpt>
      <trkpt lat="43.3947" lon="6.0774">
        <ele>291</ele>
        <time>2013-05-25T13:37:07Z</time>
      </trkpt>
      <trkpt lat="43.39472" lon="6.07747">
        <ele>290.60000610352</ele>
        <time>2013-05-25T13:37:08Z</time>
      </trkpt>
      <trkpt lat="43.39474" lon="6.07754">
        <ele>290</ele>
        <time>2013-05-25T13:37:09Z</time>
      </trkpt>
      <trkpt lat="43.39476" lon="6.07761">
        <ele>289.39999389648</ele>
        <time>2013-05-25T13:37:10Z</time>
      </trkpt>
      <trkpt lat="43.3948" lon="6.07777">
        <ele>287.79998779297</ele>
        <time>2013-05-25T13:37:12Z</time>
      </trkpt>
      <trkpt lat="43.39484" lon="6.07793">
        <ele>287.39999389648</ele>
        <time>2013-05-25T13:37:14Z</time>
      </trkpt>
      <trkpt lat="43.39487" lon="6.07801">
        <ele>287</ele>
        <time>2013-05-25T13:37:15Z</time>
      </trkpt>
      <trkpt lat="43.39489" lon="6.07808">
        <ele>286.39999389648</ele>
        <time>2013-05-25T13:37:16Z</time>
      </trkpt>
      <trkpt lat="43.3949" lon="6.07813">
        <ele>286</ele>
        <time>2013-05-25T13:37:17Z</time>
      </trkpt>
      <trkpt lat="43.39491" lon="6.07818">
        <ele>285.60000610352</ele>
        <time>2013-05-25T13:37:18Z</time>
      </trkpt>
      <trkpt lat="43.39492" lon="6.07823">
        <ele>285.60000610352</ele>
        <time>2013-05-25T13:37:19Z</time>
      </trkpt>
      <trkpt lat="43.39493" lon="6.07829">
        <ele>285.20001220703</ele>
        <time>2013-05-25T13:37:20Z</time>
      </trkpt>
      <trkpt lat="43.39494" lon="6.07835">
        <ele>284.79998779297</ele>
        <time>2013-05-25T13:37:21Z</time>
      </trkpt>
      <trkpt lat="43.39496" lon="6.07841">
        <ele>284.39999389648</ele>
        <time>2013-05-25T13:37:22Z</time>
      </trkpt>
      <trkpt lat="43.39498" lon="6.07845">
        <ele>284</ele>
        <time>2013-05-25T13:37:23Z</time>
      </trkpt>
      <trkpt lat="43.39499" lon="6.07848">
        <ele>283.60000610352</ele>
        <time>2013-05-25T13:37:24Z</time>
      </trkpt>
      <trkpt lat="43.395" lon="6.0785">
        <ele>283.60000610352</ele>
        <time>2013-05-25T13:37:26Z</time>
      </trkpt>
      <trkpt lat="43.395" lon="6.07851">
        <ele>283.20001220703</ele>
        <time>2013-05-25T13:37:27Z</time>
      </trkpt>
      <trkpt lat="43.39498" lon="6.07852">
        <ele>282.39999389648</ele>
        <time>2013-05-25T13:37:29Z</time>
      </trkpt>
      <trkpt lat="43.39499" lon="6.07852">
        <ele>282</ele>
        <time>2013-05-25T13:37:30Z</time>
      </trkpt>
      <trkpt lat="43.39499" lon="6.07852">
        <ele>281.60000610352</ele>
        <time>2013-05-25T13:37:31Z</time>
      </trkpt>
      <trkpt lat="43.39497" lon="6.07854">
        <ele>281.60000610352</ele>
        <time>2013-05-25T13:37:34Z</time>
      </trkpt>
      <trkpt lat="43.39496" lon="6.07857">
        <ele>281.20001220703</ele>
        <time>2013-05-25T13:37:36Z</time>
      </trkpt>
      <trkpt lat="43.39496" lon="6.07856">
        <ele>280.20001220703</ele>
        <time>2013-05-25T13:37:37Z</time>
      </trkpt>
      <trkpt lat="43.39496" lon="6.07857">
        <ele>279.79998779297</ele>
        <time>2013-05-25T13:37:38Z</time>
      </trkpt>
      <trkpt lat="43.39496" lon="6.07857">
        <ele>279.39999389648</ele>
        <time>2013-05-25T13:37:39Z</time>
      </trkpt>
      <trkpt lat="43.39496" lon="6.07857">
        <ele>279.39999389648</ele>
        <time>2013-05-25T13:37:47Z</time>
      </trkpt>
      <trkpt lat="43.39497" lon="6.07859">
        <ele>279.39999389648</ele>
        <time>2013-05-25T13:37:52Z</time>
      </trkpt>
      <trkpt lat="43.39499" lon="6.07863">
        <ele>279.39999389648</ele>
        <time>2013-05-25T13:37:54Z</time>
      </trkpt>
      <trkpt lat="43.39507" lon="6.07875">
        <ele>279.39999389648</ele>
        <time>2013-05-25T13:38:00Z</time>
      </trkpt>
      <trkpt lat="43.39515" lon="6.0789">
        <ele>279.39999389648</ele>
        <time>2013-05-25T13:38:05Z</time>
      </trkpt>
      <trkpt lat="43.39523" lon="6.07895">
        <ele>279</ele>
        <time>2013-05-25T13:38:08Z</time>
      </trkpt>
      <trkpt lat="43.39528" lon="6.079">
        <ele>278</ele>
        <time>2013-05-25T13:38:10Z</time>
      </trkpt>
      <trkpt lat="43.39533" lon="6.07903">
        <ele>277</ele>
        <time>2013-05-25T13:38:12Z</time>
      </trkpt>
      <trkpt lat="43.39536" lon="6.07905">
        <ele>276.60000610352</ele>
        <time>2013-05-25T13:38:14Z</time>
      </trkpt>
      <trkpt lat="43.39539" lon="6.0791">
        <ele>275.79998779297</ele>
        <time>2013-05-25T13:38:16Z</time>
      </trkpt>
      <trkpt lat="43.39544" lon="6.07911">
        <ele>274.79998779297</ele>
        <time>2013-05-25T13:38:18Z</time>
      </trkpt>
      <trkpt lat="43.39548" lon="6.07912">
        <ele>273.79998779297</ele>
        <time>2013-05-25T13:38:20Z</time>
      </trkpt>
      <trkpt lat="43.39553" lon="6.07911">
        <ele>272.79998779297</ele>
        <time>2013-05-25T13:38:22Z</time>
      </trkpt>
      <trkpt lat="43.39558" lon="6.0791">
        <ele>272.79998779297</ele>
        <time>2013-05-25T13:38:24Z</time>
      </trkpt>
      <trkpt lat="43.39566" lon="6.07913">
        <ele>272.79998779297</ele>
        <time>2013-05-25T13:38:27Z</time>
      </trkpt>
      <trkpt lat="43.3957" lon="6.07919">
        <ele>272.39999389648</ele>
        <time>2013-05-25T13:38:29Z</time>
      </trkpt>
      <trkpt lat="43.39571" lon="6.07921">
        <ele>272</ele>
        <time>2013-05-25T13:38:30Z</time>
      </trkpt>
      <trkpt lat="43.39572" lon="6.07923">
        <ele>271.39999389648</ele>
        <time>2013-05-25T13:38:31Z</time>
      </trkpt>
      <trkpt lat="43.39572" lon="6.07924">
        <ele>271</ele>
        <time>2013-05-25T13:38:32Z</time>
      </trkpt>
      <trkpt lat="43.39572" lon="6.07926">
        <ele>270.39999389648</ele>
        <time>2013-05-25T13:38:33Z</time>
      </trkpt>
      <trkpt lat="43.39571" lon="6.07931">
        <ele>270.39999389648</ele>
        <time>2013-05-25T13:38:36Z</time>
      </trkpt>
      <trkpt lat="43.39571" lon="6.07932">
        <ele>270.39999389648</ele>
        <time>2013-05-25T13:38:37Z</time>
      </trkpt>
      <trkpt lat="43.39565" lon="6.07935">
        <ele>270.39999389648</ele>
        <time>2013-05-25T13:38:41Z</time>
      </trkpt>
      <trkpt lat="43.39563" lon="6.07936">
        <ele>270.39999389648</ele>
        <time>2013-05-25T13:38:43Z</time>
      </trkpt>
      <trkpt lat="43.39555" lon="6.07934">
        <ele>272.60000610352</ele>
        <time>2013-05-25T13:38:48Z</time>
      </trkpt>
      <trkpt lat="43.39553" lon="6.07935">
        <ele>272.60000610352</ele>
        <time>2013-05-25T13:38:49Z</time>
      </trkpt>
      <trkpt lat="43.39547" lon="6.07938">
        <ele>272.60000610352</ele>
        <time>2013-05-25T13:38:54Z</time>
      </trkpt>
      <trkpt lat="43.39544" lon="6.07939">
        <ele>272.60000610352</ele>
        <time>2013-05-25T13:38:56Z</time>
      </trkpt>
      <trkpt lat="43.39537" lon="6.07942">
        <ele>272.60000610352</ele>
        <time>2013-05-25T13:39:01Z</time>
      </trkpt>
      <trkpt lat="43.39536" lon="6.07943">
        <ele>273</ele>
        <time>2013-05-25T13:39:02Z</time>
      </trkpt>
      <trkpt lat="43.39535" lon="6.07943">
        <ele>273.60000610352</ele>
        <time>2013-05-25T13:39:03Z</time>
      </trkpt>
      <trkpt lat="43.39534" lon="6.07944">
        <ele>274</ele>
        <time>2013-05-25T13:39:04Z</time>
      </trkpt>
      <trkpt lat="43.39534" lon="6.07944">
        <ele>274.39999389648</ele>
        <time>2013-05-25T13:39:05Z</time>
      </trkpt>
      <trkpt lat="43.39533" lon="6.07944">
        <ele>274.79998779297</ele>
        <time>2013-05-25T13:39:06Z</time>
      </trkpt>
      <trkpt lat="43.39533" lon="6.07945">
        <ele>274.79998779297</ele>
        <time>2013-05-25T13:39:08Z</time>
      </trkpt>
      <trkpt lat="43.39533" lon="6.07945">
        <ele>277</ele>
        <time>2013-05-25T13:39:26Z</time>
      </trkpt>
      <trkpt lat="43.39533" lon="6.07945">
        <ele>277</ele>
        <time>2013-05-25T13:39:41Z</time>
      </trkpt>
      <trkpt lat="43.39529" lon="6.07946">
        <ele>277</ele>
        <time>2013-05-25T13:39:45Z</time>
      </trkpt>
      <trkpt lat="43.39523" lon="6.0795">
        <ele>277</ele>
        <time>2013-05-25T13:39:49Z</time>
      </trkpt>
      <trkpt lat="43.3952" lon="6.07951">
        <ele>277</ele>
        <time>2013-05-25T13:39:51Z</time>
      </trkpt>
      <trkpt lat="43.39509" lon="6.07955">
        <ele>277</ele>
        <time>2013-05-25T13:39:59Z</time>
      </trkpt>
      <trkpt lat="43.395" lon="6.0796">
        <ele>277.79998779297</ele>
        <time>2013-05-25T13:40:06Z</time>
      </trkpt>
      <trkpt lat="43.39495" lon="6.07961">
        <ele>279</ele>
        <time>2013-05-25T13:40:09Z</time>
      </trkpt>
      <trkpt lat="43.39491" lon="6.07964">
        <ele>279</ele>
        <time>2013-05-25T13:40:12Z</time>
      </trkpt>
      <trkpt lat="43.39487" lon="6.07966">
        <ele>279</ele>
        <time>2013-05-25T13:40:14Z</time>
      </trkpt>
      <trkpt lat="43.39481" lon="6.07969">
        <ele>279</ele>
        <time>2013-05-25T13:40:18Z</time>
      </trkpt>
      <trkpt lat="43.39472" lon="6.07971">
        <ele>279</ele>
        <time>2013-05-25T13:40:24Z</time>
      </trkpt>
      <trkpt lat="43.3946" lon="6.07974">
        <ele>280.39999389648</ele>
        <time>2013-05-25T13:40:32Z</time>
      </trkpt>
      <trkpt lat="43.39458" lon="6.07976">
        <ele>281.20001220703</ele>
        <time>2013-05-25T13:40:34Z</time>
      </trkpt>
      <trkpt lat="43.39453" lon="6.07979">
        <ele>281.20001220703</ele>
        <time>2013-05-25T13:40:38Z</time>
      </trkpt>
      <trkpt lat="43.39446" lon="6.07983">
        <ele>281.20001220703</ele>
        <time>2013-05-25T13:40:44Z</time>
      </trkpt>
      <trkpt lat="43.39444" lon="6.07981">
        <ele>281.20001220703</ele>
        <time>2013-05-25T13:40:48Z</time>
      </trkpt>
      <trkpt lat="43.39444" lon="6.0798">
        <ele>281.20001220703</ele>
        <time>2013-05-25T13:40:49Z</time>
      </trkpt>
      <trkpt lat="43.39444" lon="6.07981">
        <ele>281.20001220703</ele>
        <time>2013-05-25T13:40:54Z</time>
      </trkpt>
      <trkpt lat="43.39443" lon="6.0798">
        <ele>281.20001220703</ele>
        <time>2013-05-25T13:41:01Z</time>
      </trkpt>
      <trkpt lat="43.39443" lon="6.0798">
        <ele>281.20001220703</ele>
        <time>2013-05-25T13:41:11Z</time>
      </trkpt>
      <trkpt lat="43.39443" lon="6.07978">
        <ele>281.20001220703</ele>
        <time>2013-05-25T13:41:21Z</time>
      </trkpt>
      <trkpt lat="43.39443" lon="6.07978">
        <ele>281.20001220703</ele>
        <time>2013-05-25T13:41:42Z</time>
      </trkpt>
      <trkpt lat="43.39443" lon="6.07978">
        <ele>281.20001220703</ele>
        <time>2013-05-25T13:42:01Z</time>
      </trkpt>
      <trkpt lat="43.39443" lon="6.07978">
        <ele>281.20001220703</ele>
        <time>2013-05-25T13:42:13Z</time>
      </trkpt>
      <trkpt lat="43.39444" lon="6.07977">
        <ele>281.20001220703</ele>
        <time>2013-05-25T13:42:20Z</time>
      </trkpt>
      <trkpt lat="43.39449" lon="6.07965">
        <ele>281.20001220703</ele>
        <time>2013-05-25T13:42:25Z</time>
      </trkpt>
      <trkpt lat="43.39457" lon="6.07947">
        <ele>281.20001220703</ele>
        <time>2013-05-25T13:42:32Z</time>
      </trkpt>
      <trkpt lat="43.39458" lon="6.07941">
        <ele>281.60000610352</ele>
        <time>2013-05-25T13:42:34Z</time>
      </trkpt>
      <trkpt lat="43.3946" lon="6.07938">
        <ele>282</ele>
        <time>2013-05-25T13:42:35Z</time>
      </trkpt>
      <trkpt lat="43.3946" lon="6.07935">
        <ele>282.39999389648</ele>
        <time>2013-05-25T13:42:36Z</time>
      </trkpt>
      <trkpt lat="43.39461" lon="6.07931">
        <ele>282.79998779297</ele>
        <time>2013-05-25T13:42:37Z</time>
      </trkpt>
      <trkpt lat="43.39461" lon="6.07928">
        <ele>283.20001220703</ele>
        <time>2013-05-25T13:42:38Z</time>
      </trkpt>
      <trkpt lat="43.39463" lon="6.07895">
        <ele>283.20001220703</ele>
        <time>2013-05-25T13:42:52Z</time>
      </trkpt>
      <trkpt lat="43.39454" lon="6.07897">
        <ele>283.20001220703</ele>
        <time>2013-05-25T13:42:58Z</time>
      </trkpt>
      <trkpt lat="43.39448" lon="6.07899">
        <ele>283.60000610352</ele>
        <time>2013-05-25T13:43:01Z</time>
      </trkpt>
      <trkpt lat="43.39447" lon="6.079">
        <ele>284.20001220703</ele>
        <time>2013-05-25T13:43:02Z</time>
      </trkpt>
      <trkpt lat="43.39444" lon="6.07901">
        <ele>285.79998779297</ele>
        <time>2013-05-25T13:43:05Z</time>
      </trkpt>
      <trkpt lat="43.39443" lon="6.07901">
        <ele>286.20001220703</ele>
        <time>2013-05-25T13:43:06Z</time>
      </trkpt>
      <trkpt lat="43.39442" lon="6.07901">
        <ele>286.60000610352</ele>
        <time>2013-05-25T13:43:07Z</time>
      </trkpt>
      <trkpt lat="43.39441" lon="6.07901">
        <ele>287</ele>
        <time>2013-05-25T13:43:08Z</time>
      </trkpt>
      <trkpt lat="43.39441" lon="6.07901">
        <ele>287.79998779297</ele>
        <time>2013-05-25T13:43:20Z</time>
      </trkpt>
      <trkpt lat="43.39441" lon="6.07901">
        <ele>287.79998779297</ele>
        <time>2013-05-25T13:43:27Z</time>
      </trkpt>
      <trkpt lat="43.39441" lon="6.07903">
        <ele>288.20001220703</ele>
        <time>2013-05-25T13:43:33Z</time>
      </trkpt>
      <trkpt lat="43.39442" lon="6.07905">
        <ele>288.60000610352</ele>
        <time>2013-05-25T13:43:34Z</time>
      </trkpt>
      <trkpt lat="43.39441" lon="6.07906">
        <ele>289</ele>
        <time>2013-05-25T13:43:35Z</time>
      </trkpt>
      <trkpt lat="43.39442" lon="6.07908">
        <ele>289.39999389648</ele>
        <time>2013-05-25T13:43:36Z</time>
      </trkpt>
      <trkpt lat="43.39441" lon="6.0791">
        <ele>289.79998779297</ele>
        <time>2013-05-25T13:43:37Z</time>
      </trkpt>
      <trkpt lat="43.39441" lon="6.07916">
        <ele>289.79998779297</ele>
        <time>2013-05-25T13:43:41Z</time>
      </trkpt>
      <trkpt lat="43.39437" lon="6.0793">
        <ele>289.79998779297</ele>
        <time>2013-05-25T13:43:47Z</time>
      </trkpt>
      <trkpt lat="43.39434" lon="6.07937">
        <ele>289.79998779297</ele>
        <time>2013-05-25T13:43:50Z</time>
      </trkpt>
      <trkpt lat="43.39431" lon="6.07947">
        <ele>289.79998779297</ele>
        <time>2013-05-25T13:43:53Z</time>
      </trkpt>
      <trkpt lat="43.39426" lon="6.07958">
        <ele>289.79998779297</ele>
        <time>2013-05-25T13:43:58Z</time>
      </trkpt>
      <trkpt lat="43.39421" lon="6.07962">
        <ele>289.79998779297</ele>
        <time>2013-05-25T13:44:00Z</time>
      </trkpt>
      <trkpt lat="43.39408" lon="6.07968">
        <ele>289.79998779297</ele>
        <time>2013-05-25T13:44:06Z</time>
      </trkpt>
      <trkpt lat="43.39394" lon="6.07967">
        <ele>289.79998779297</ele>
        <time>2013-05-25T13:44:12Z</time>
      </trkpt>
      <trkpt lat="43.3939" lon="6.07967">
        <ele>289.79998779297</ele>
        <time>2013-05-25T13:44:14Z</time>
      </trkpt>
      <trkpt lat="43.39388" lon="6.07968">
        <ele>289.79998779297</ele>
        <time>2013-05-25T13:44:15Z</time>
      </trkpt>
      <trkpt lat="43.39388" lon="6.07969">
        <ele>289.79998779297</ele>
        <time>2013-05-25T13:44:17Z</time>
      </trkpt>
      <trkpt lat="43.39388" lon="6.07968">
        <ele>289.79998779297</ele>
        <time>2013-05-25T13:44:22Z</time>
      </trkpt>
      <trkpt lat="43.39388" lon="6.07968">
        <ele>289.79998779297</ele>
        <time>2013-05-25T13:44:32Z</time>
      </trkpt>
      <trkpt lat="43.39388" lon="6.07968">
        <ele>289.79998779297</ele>
        <time>2013-05-25T13:44:34Z</time>
      </trkpt>
      <trkpt lat="43.39389" lon="6.07969">
        <ele>289.79998779297</ele>
        <time>2013-05-25T13:44:40Z</time>
      </trkpt>
      <trkpt lat="43.39389" lon="6.07969">
        <ele>289.79998779297</ele>
        <time>2013-05-25T13:44:47Z</time>
      </trkpt>
      <trkpt lat="43.39389" lon="6.07968">
        <ele>289.79998779297</ele>
        <time>2013-05-25T13:44:50Z</time>
      </trkpt>
      <trkpt lat="43.39389" lon="6.07968">
        <ele>289.39999389648</ele>
        <time>2013-05-25T13:44:54Z</time>
      </trkpt>
      <trkpt lat="43.39389" lon="6.07968">
        <ele>287.79998779297</ele>
        <time>2013-05-25T13:44:58Z</time>
      </trkpt>
      <trkpt lat="43.39389" lon="6.07968">
        <ele>287.79998779297</ele>
        <time>2013-05-25T13:45:02Z</time>
      </trkpt>
      <trkpt lat="43.39387" lon="6.07968">
        <ele>287.79998779297</ele>
        <time>2013-05-25T13:45:08Z</time>
      </trkpt>
      <trkpt lat="43.3938" lon="6.0797">
        <ele>288.20001220703</ele>
        <time>2013-05-25T13:45:13Z</time>
      </trkpt>
      <trkpt lat="43.39376" lon="6.07971">
        <ele>289.20001220703</ele>
        <time>2013-05-25T13:45:15Z</time>
      </trkpt>
      <trkpt lat="43.39375" lon="6.07972">
        <ele>289.60000610352</ele>
        <time>2013-05-25T13:45:16Z</time>
      </trkpt>
      <trkpt lat="43.39375" lon="6.07973">
        <ele>290</ele>
        <time>2013-05-25T13:45:17Z</time>
      </trkpt>
      <trkpt lat="43.39374" lon="6.07974">
        <ele>290</ele>
        <time>2013-05-25T13:45:18Z</time>
      </trkpt>
      <trkpt lat="43.39368" lon="6.07993">
        <ele>290</ele>
        <time>2013-05-25T13:45:24Z</time>
      </trkpt>
      <trkpt lat="43.39363" lon="6.08005">
        <ele>290</ele>
        <time>2013-05-25T13:45:29Z</time>
      </trkpt>
      <trkpt lat="43.39361" lon="6.08012">
        <ele>290</ele>
        <time>2013-05-25T13:45:33Z</time>
      </trkpt>
      <trkpt lat="43.39361" lon="6.08014">
        <ele>290</ele>
        <time>2013-05-25T13:45:35Z</time>
      </trkpt>
      <trkpt lat="43.39361" lon="6.08014">
        <ele>290</ele>
        <time>2013-05-25T13:45:45Z</time>
      </trkpt>
      <trkpt lat="43.39361" lon="6.08014">
        <ele>290</ele>
        <time>2013-05-25T13:45:56Z</time>
      </trkpt>
      <trkpt lat="43.39361" lon="6.08015">
        <ele>290</ele>
        <time>2013-05-25T13:46:00Z</time>
      </trkpt>
      <trkpt lat="43.39362" lon="6.08016">
        <ele>290</ele>
        <time>2013-05-25T13:46:01Z</time>
      </trkpt>
      <trkpt lat="43.39364" lon="6.08017">
        <ele>290</ele>
        <time>2013-05-25T13:46:04Z</time>
      </trkpt>
      <trkpt lat="43.39366" lon="6.08017">
        <ele>290</ele>
        <time>2013-05-25T13:46:06Z</time>
      </trkpt>
      <trkpt lat="43.39366" lon="6.08017">
        <ele>290</ele>
        <time>2013-05-25T13:46:13Z</time>
      </trkpt>
      <trkpt lat="43.39366" lon="6.08017">
        <ele>288</ele>
        <time>2013-05-25T13:46:39Z</time>
      </trkpt>
      <trkpt lat="43.39366" lon="6.08017">
        <ele>288</ele>
        <time>2013-05-25T13:47:31Z</time>
      </trkpt>
      <trkpt lat="43.39366" lon="6.08017">
        <ele>288</ele>
        <time>2013-05-25T13:47:53Z</time>
      </trkpt>
      <trkpt lat="43.39366" lon="6.08017">
        <ele>288</ele>
        <time>2013-05-25T13:48:04Z</time>
      </trkpt>
      <trkpt lat="43.39365" lon="6.08017">
        <ele>288</ele>
        <time>2013-05-25T13:48:07Z</time>
      </trkpt>
      <trkpt lat="43.39365" lon="6.08017">
        <ele>288</ele>
        <time>2013-05-25T13:48:34Z</time>
      </trkpt>
      <trkpt lat="43.39365" lon="6.08017">
        <ele>288</ele>
        <time>2013-05-25T13:49:04Z</time>
      </trkpt>
      <trkpt lat="43.39365" lon="6.08017">
        <ele>288</ele>
        <time>2013-05-25T13:49:17Z</time>
      </trkpt>
      <trkpt lat="43.39365" lon="6.08017">
        <ele>288</ele>
        <time>2013-05-25T13:49:28Z</time>
      </trkpt>
      <trkpt lat="43.39365" lon="6.08017">
        <ele>288</ele>
        <time>2013-05-25T13:49:43Z</time>
      </trkpt>
      <trkpt lat="43.39365" lon="6.08017">
        <ele>288</ele>
        <time>2013-05-25T13:50:15Z</time>
      </trkpt>
      <trkpt lat="43.39365" lon="6.08017">
        <ele>288.79998779297</ele>
        <time>2013-05-25T13:50:33Z</time>
      </trkpt>
      <trkpt lat="43.39365" lon="6.08017">
        <ele>288</ele>
        <time>2013-05-25T13:51:42Z</time>
      </trkpt>
      <trkpt lat="43.39365" lon="6.08017">
        <ele>288</ele>
        <time>2013-05-25T13:51:55Z</time>
      </trkpt>
      <trkpt lat="43.39365" lon="6.08017">
        <ele>288</ele>
        <time>2013-05-25T13:52:09Z</time>
      </trkpt>
      <trkpt lat="43.39364" lon="6.08018">
        <ele>288.39999389648</ele>
        <time>2013-05-25T13:52:13Z</time>
      </trkpt>
      <trkpt lat="43.39364" lon="6.08018">
        <ele>290.20001220703</ele>
        <time>2013-05-25T13:52:17Z</time>
      </trkpt>
      <trkpt lat="43.39365" lon="6.08017">
        <ele>290.20001220703</ele>
        <time>2013-05-25T13:52:23Z</time>
      </trkpt>
      <trkpt lat="43.39365" lon="6.08018">
        <ele>290.20001220703</ele>
        <time>2013-05-25T13:52:31Z</time>
      </trkpt>
      <trkpt lat="43.39365" lon="6.08017">
        <ele>290.20001220703</ele>
        <time>2013-05-25T13:52:38Z</time>
      </trkpt>
      <trkpt lat="43.39365" lon="6.08017">
        <ele>290.20001220703</ele>
        <time>2013-05-25T13:52:59Z</time>
      </trkpt>
      <trkpt lat="43.39365" lon="6.08017">
        <ele>290.20001220703</ele>
        <time>2013-05-25T13:53:11Z</time>
      </trkpt>
      <trkpt lat="43.39365" lon="6.08018">
        <ele>290.20001220703</ele>
        <time>2013-05-25T13:53:21Z</time>
      </trkpt>
      <trkpt lat="43.39365" lon="6.08018">
        <ele>290.20001220703</ele>
        <time>2013-05-25T13:53:23Z</time>
      </trkpt>
      <trkpt lat="43.39367" lon="6.08018">
        <ele>290.20001220703</ele>
        <time>2013-05-25T13:53:29Z</time>
      </trkpt>
      <trkpt lat="43.39367" lon="6.08019">
        <ele>290.20001220703</ele>
        <time>2013-05-25T13:53:36Z</time>
      </trkpt>
      <trkpt lat="43.39365" lon="6.08022">
        <ele>290.20001220703</ele>
        <time>2013-05-25T13:53:44Z</time>
      </trkpt>
      <trkpt lat="43.3936" lon="6.08025">
        <ele>290.20001220703</ele>
        <time>2013-05-25T13:53:50Z</time>
      </trkpt>
      <trkpt lat="43.39356" lon="6.08027">
        <ele>290.20001220703</ele>
        <time>2013-05-25T13:53:54Z</time>
      </trkpt>
      <trkpt lat="43.39354" lon="6.08031">
        <ele>290.20001220703</ele>
        <time>2013-05-25T13:54:00Z</time>
      </trkpt>
      <trkpt lat="43.39349" lon="6.08037">
        <ele>290.20001220703</ele>
        <time>2013-05-25T13:54:07Z</time>
      </trkpt>
      <trkpt lat="43.39344" lon="6.0804">
        <ele>290.20001220703</ele>
        <time>2013-05-25T13:54:13Z</time>
      </trkpt>
      <trkpt lat="43.39338" lon="6.08047">
        <ele>290.20001220703</ele>
        <time>2013-05-25T13:54:18Z</time>
      </trkpt>
      <trkpt lat="43.39332" lon="6.08055">
        <ele>290.20001220703</ele>
        <time>2013-05-25T13:54:26Z</time>
      </trkpt>
      <trkpt lat="43.39329" lon="6.0806">
        <ele>292.20001220703</ele>
        <time>2013-05-25T13:54:30Z</time>
      </trkpt>
      <trkpt lat="43.39323" lon="6.08072">
        <ele>292.20001220703</ele>
        <time>2013-05-25T13:54:38Z</time>
      </trkpt>
      <trkpt lat="43.39322" lon="6.08073">
        <ele>292.20001220703</ele>
        <time>2013-05-25T13:54:39Z</time>
      </trkpt>
      <trkpt lat="43.39317" lon="6.08078">
        <ele>292.20001220703</ele>
        <time>2013-05-25T13:54:43Z</time>
      </trkpt>
      <trkpt lat="43.3931" lon="6.08087">
        <ele>292.20001220703</ele>
        <time>2013-05-25T13:54:51Z</time>
      </trkpt>
      <trkpt lat="43.39309" lon="6.08089">
        <ele>292.20001220703</ele>
        <time>2013-05-25T13:54:53Z</time>
      </trkpt>
      <trkpt lat="43.39306" lon="6.08094">
        <ele>292.20001220703</ele>
        <time>2013-05-25T13:54:57Z</time>
      </trkpt>
      <trkpt lat="43.39303" lon="6.08102">
        <ele>292.60000610352</ele>
        <time>2013-05-25T13:55:02Z</time>
      </trkpt>
      <trkpt lat="43.39301" lon="6.08103">
        <ele>293.60000610352</ele>
        <time>2013-05-25T13:55:04Z</time>
      </trkpt>
      <trkpt lat="43.39301" lon="6.08104">
        <ele>294</ele>
        <time>2013-05-25T13:55:05Z</time>
      </trkpt>
      <trkpt lat="43.39301" lon="6.08104">
        <ele>294.39999389648</ele>
        <time>2013-05-25T13:55:06Z</time>
      </trkpt>
      <trkpt lat="43.393" lon="6.08106">
        <ele>294.39999389648</ele>
        <time>2013-05-25T13:55:09Z</time>
      </trkpt>
      <trkpt lat="43.39296" lon="6.08117">
        <ele>294.39999389648</ele>
        <time>2013-05-25T13:55:16Z</time>
      </trkpt>
      <trkpt lat="43.39291" lon="6.08126">
        <ele>294.39999389648</ele>
        <time>2013-05-25T13:55:22Z</time>
      </trkpt>
      <trkpt lat="43.39287" lon="6.08136">
        <ele>294.39999389648</ele>
        <time>2013-05-25T13:55:28Z</time>
      </trkpt>
      <trkpt lat="43.39286" lon="6.08141">
        <ele>294.79998779297</ele>
        <time>2013-05-25T13:55:31Z</time>
      </trkpt>
      <trkpt lat="43.39286" lon="6.08144">
        <ele>295.60000610352</ele>
        <time>2013-05-25T13:55:33Z</time>
      </trkpt>
      <trkpt lat="43.39286" lon="6.08146">
        <ele>296</ele>
        <time>2013-05-25T13:55:34Z</time>
      </trkpt>
      <trkpt lat="43.39287" lon="6.08147">
        <ele>296.39999389648</ele>
        <time>2013-05-25T13:55:35Z</time>
      </trkpt>
      <trkpt lat="43.39286" lon="6.08149">
        <ele>296.39999389648</ele>
        <time>2013-05-25T13:55:41Z</time>
      </trkpt>
      <trkpt lat="43.39287" lon="6.08151">
        <ele>296.39999389648</ele>
        <time>2013-05-25T13:55:49Z</time>
      </trkpt>
      <trkpt lat="43.39287" lon="6.08153">
        <ele>296.39999389648</ele>
        <time>2013-05-25T13:55:55Z</time>
      </trkpt>
      <trkpt lat="43.39287" lon="6.08156">
        <ele>296.39999389648</ele>
        <time>2013-05-25T13:56:01Z</time>
      </trkpt>
      <trkpt lat="43.39286" lon="6.0816">
        <ele>296.39999389648</ele>
        <time>2013-05-25T13:56:04Z</time>
      </trkpt>
      <trkpt lat="43.39284" lon="6.08168">
        <ele>296.39999389648</ele>
        <time>2013-05-25T13:56:08Z</time>
      </trkpt>
      <trkpt lat="43.39282" lon="6.08172">
        <ele>296.39999389648</ele>
        <time>2013-05-25T13:56:13Z</time>
      </trkpt>
      <trkpt lat="43.39282" lon="6.08172">
        <ele>298.39999389648</ele>
        <time>2013-05-25T13:56:23Z</time>
      </trkpt>
      <trkpt lat="43.39282" lon="6.08172">
        <ele>298.39999389648</ele>
        <time>2013-05-25T13:56:29Z</time>
      </trkpt>
      <trkpt lat="43.39279" lon="6.08177">
        <ele>298.39999389648</ele>
        <time>2013-05-25T13:56:35Z</time>
      </trkpt>
      <trkpt lat="43.39278" lon="6.08184">
        <ele>298.79998779297</ele>
        <time>2013-05-25T13:56:41Z</time>
      </trkpt>
      <trkpt lat="43.39277" lon="6.08188">
        <ele>300</ele>
        <time>2013-05-25T13:56:44Z</time>
      </trkpt>
      <trkpt lat="43.39275" lon="6.08191">
        <ele>300.39999389648</ele>
        <time>2013-05-25T13:56:46Z</time>
      </trkpt>
      <trkpt lat="43.39273" lon="6.08201">
        <ele>300.39999389648</ele>
        <time>2013-05-25T13:56:54Z</time>
      </trkpt>
      <trkpt lat="43.39273" lon="6.08211">
        <ele>300.39999389648</ele>
        <time>2013-05-25T13:57:00Z</time>
      </trkpt>
      <trkpt lat="43.39272" lon="6.08222">
        <ele>301.60000610352</ele>
        <time>2013-05-25T13:57:07Z</time>
      </trkpt>
      <trkpt lat="43.39271" lon="6.08225">
        <ele>302.39999389648</ele>
        <time>2013-05-25T13:57:09Z</time>
      </trkpt>
      <trkpt lat="43.39269" lon="6.08231">
        <ele>302.39999389648</ele>
        <time>2013-05-25T13:57:13Z</time>
      </trkpt>
      <trkpt lat="43.39267" lon="6.08243">
        <ele>303</ele>
        <time>2013-05-25T13:57:20Z</time>
      </trkpt>
      <trkpt lat="43.39266" lon="6.08248">
        <ele>304.20001220703</ele>
        <time>2013-05-25T13:57:23Z</time>
      </trkpt>
      <trkpt lat="43.39264" lon="6.08257">
        <ele>304.60000610352</ele>
        <time>2013-05-25T13:57:28Z</time>
      </trkpt>
      <trkpt lat="43.39262" lon="6.08263">
        <ele>304.60000610352</ele>
        <time>2013-05-25T13:57:31Z</time>
      </trkpt>
      <trkpt lat="43.39259" lon="6.08269">
        <ele>304.60000610352</ele>
        <time>2013-05-25T13:57:35Z</time>
      </trkpt>
      <trkpt lat="43.3925" lon="6.08278">
        <ele>305.39999389648</ele>
        <time>2013-05-25T13:57:43Z</time>
      </trkpt>
      <trkpt lat="43.39249" lon="6.08279">
        <ele>305.79998779297</ele>
        <time>2013-05-25T13:57:44Z</time>
      </trkpt>
      <trkpt lat="43.39247" lon="6.0828">
        <ele>306.60000610352</ele>
        <time>2013-05-25T13:57:46Z</time>
      </trkpt>
      <trkpt lat="43.39243" lon="6.08286">
        <ele>306.60000610352</ele>
        <time>2013-05-25T13:57:51Z</time>
      </trkpt>
      <trkpt lat="43.39241" lon="6.0829">
        <ele>307</ele>
        <time>2013-05-25T13:57:55Z</time>
      </trkpt>
      <trkpt lat="43.39241" lon="6.0829">
        <ele>308.79998779297</ele>
        <time>2013-05-25T13:58:08Z</time>
      </trkpt>
      <trkpt lat="43.39241" lon="6.0829">
        <ele>308.79998779297</ele>
        <time>2013-05-25T13:58:11Z</time>
      </trkpt>
      <trkpt lat="43.39241" lon="6.0829">
        <ele>308.79998779297</ele>
        <time>2013-05-25T13:58:20Z</time>
      </trkpt>
      <trkpt lat="43.3924" lon="6.08289">
        <ele>308.79998779297</ele>
        <time>2013-05-25T13:58:25Z</time>
      </trkpt>
      <trkpt lat="43.39241" lon="6.08288">
        <ele>308.79998779297</ele>
        <time>2013-05-25T13:58:31Z</time>
      </trkpt>
      <trkpt lat="43.39243" lon="6.08283">
        <ele>308.79998779297</ele>
        <time>2013-05-25T13:58:35Z</time>
      </trkpt>
      <trkpt lat="43.39244" lon="6.08282">
        <ele>308.79998779297</ele>
        <time>2013-05-25T13:58:38Z</time>
      </trkpt>
      <trkpt lat="43.39244" lon="6.08282">
        <ele>308.39999389648</ele>
        <time>2013-05-25T13:58:39Z</time>
      </trkpt>
      <trkpt lat="43.39245" lon="6.08281">
        <ele>307.79998779297</ele>
        <time>2013-05-25T13:58:40Z</time>
      </trkpt>
      <trkpt lat="43.39246" lon="6.08281">
        <ele>307.39999389648</ele>
        <time>2013-05-25T13:58:41Z</time>
      </trkpt>
      <trkpt lat="43.39246" lon="6.0828">
        <ele>307</ele>
        <time>2013-05-25T13:58:42Z</time>
      </trkpt>
      <trkpt lat="43.39246" lon="6.0828">
        <ele>306.60000610352</ele>
        <time>2013-05-25T13:59:00Z</time>
      </trkpt>
      <trkpt lat="43.39246" lon="6.0828">
        <ele>306.60000610352</ele>
        <time>2013-05-25T13:59:08Z</time>
      </trkpt>
      <trkpt lat="43.39251" lon="6.08275">
        <ele>306.60000610352</ele>
        <time>2013-05-25T13:59:14Z</time>
      </trkpt>
      <trkpt lat="43.39253" lon="6.08271">
        <ele>306.60000610352</ele>
        <time>2013-05-25T13:59:20Z</time>
      </trkpt>
      <trkpt lat="43.39253" lon="6.0827">
        <ele>306.60000610352</ele>
        <time>2013-05-25T13:59:27Z</time>
      </trkpt>
      <trkpt lat="43.39253" lon="6.0827">
        <ele>306.60000610352</ele>
        <time>2013-05-25T13:59:33Z</time>
      </trkpt>
      <trkpt lat="43.39253" lon="6.0827">
        <ele>306.60000610352</ele>
        <time>2013-05-25T13:59:55Z</time>
      </trkpt>
      <trkpt lat="43.39253" lon="6.0827">
        <ele>306.60000610352</ele>
        <time>2013-05-25T14:00:16Z</time>
      </trkpt>
      <trkpt lat="43.39253" lon="6.0827">
        <ele>306.60000610352</ele>
        <time>2013-05-25T14:00:33Z</time>
      </trkpt>
      <trkpt lat="43.39252" lon="6.08273">
        <ele>306.60000610352</ele>
        <time>2013-05-25T14:00:37Z</time>
      </trkpt>
      <trkpt lat="43.39252" lon="6.08274">
        <ele>306.60000610352</ele>
        <time>2013-05-25T14:00:38Z</time>
      </trkpt>
      <trkpt lat="43.39245" lon="6.08281">
        <ele>306.60000610352</ele>
        <time>2013-05-25T14:00:45Z</time>
      </trkpt>
      <trkpt lat="43.39243" lon="6.08285">
        <ele>306.60000610352</ele>
        <time>2013-05-25T14:00:50Z</time>
      </trkpt>
      <trkpt lat="43.39243" lon="6.0829">
        <ele>306.60000610352</ele>
        <time>2013-05-25T14:00:56Z</time>
      </trkpt>
      <trkpt lat="43.39243" lon="6.08291">
        <ele>306.60000610352</ele>
        <time>2013-05-25T14:00:57Z</time>
      </trkpt>
      <trkpt lat="43.39243" lon="6.08292">
        <ele>307</ele>
        <time>2013-05-25T14:00:59Z</time>
      </trkpt>
      <trkpt lat="43.39242" lon="6.08292">
        <ele>307.39999389648</ele>
        <time>2013-05-25T14:01:00Z</time>
      </trkpt>
      <trkpt lat="43.39242" lon="6.08292">
        <ele>308.60000610352</ele>
        <time>2013-05-25T14:01:12Z</time>
      </trkpt>
      <trkpt lat="43.39242" lon="6.08292">
        <ele>308.60000610352</ele>
        <time>2013-05-25T14:01:23Z</time>
      </trkpt>
      <trkpt lat="43.3924" lon="6.08298">
        <ele>308.60000610352</ele>
        <time>2013-05-25T14:01:30Z</time>
      </trkpt>
      <trkpt lat="43.39235" lon="6.08308">
        <ele>308.60000610352</ele>
        <time>2013-05-25T14:01:35Z</time>
      </trkpt>
      <trkpt lat="43.39233" lon="6.0831">
        <ele>309</ele>
        <time>2013-05-25T14:01:37Z</time>
      </trkpt>
      <trkpt lat="43.39233" lon="6.08311">
        <ele>309.39999389648</ele>
        <time>2013-05-25T14:01:38Z</time>
      </trkpt>
      <trkpt lat="43.39233" lon="6.08312">
        <ele>309.79998779297</ele>
        <time>2013-05-25T14:01:39Z</time>
      </trkpt>
      <trkpt lat="43.39233" lon="6.08312">
        <ele>310.60000610352</ele>
        <time>2013-05-25T14:01:41Z</time>
      </trkpt>
      <trkpt lat="43.39233" lon="6.08312">
        <ele>310.60000610352</ele>
        <time>2013-05-25T14:01:46Z</time>
      </trkpt>
      <trkpt lat="43.39233" lon="6.08312">
        <ele>310.60000610352</ele>
        <time>2013-05-25T14:01:47Z</time>
      </trkpt>
      <trkpt lat="43.39233" lon="6.08312">
        <ele>310.60000610352</ele>
        <time>2013-05-25T14:01:56Z</time>
      </trkpt>
      <trkpt lat="43.39232" lon="6.08316">
        <ele>310.60000610352</ele>
        <time>2013-05-25T14:02:05Z</time>
      </trkpt>
      <trkpt lat="43.39229" lon="6.08321">
        <ele>311</ele>
        <time>2013-05-25T14:02:11Z</time>
      </trkpt>
      <trkpt lat="43.39229" lon="6.08321">
        <ele>312.60000610352</ele>
        <time>2013-05-25T14:02:15Z</time>
      </trkpt>
      <trkpt lat="43.3923" lon="6.0832">
        <ele>312.60000610352</ele>
        <time>2013-05-25T14:02:21Z</time>
      </trkpt>
      <trkpt lat="43.39231" lon="6.08319">
        <ele>312.60000610352</ele>
        <time>2013-05-25T14:02:27Z</time>
      </trkpt>
      <trkpt lat="43.39232" lon="6.08318">
        <ele>312.60000610352</ele>
        <time>2013-05-25T14:02:33Z</time>
      </trkpt>
      <trkpt lat="43.39232" lon="6.08319">
        <ele>312.60000610352</ele>
        <time>2013-05-25T14:02:43Z</time>
      </trkpt>
      <trkpt lat="43.39231" lon="6.08324">
        <ele>312.60000610352</ele>
        <time>2013-05-25T14:02:51Z</time>
      </trkpt>
      <trkpt lat="43.39223" lon="6.08331">
        <ele>312.60000610352</ele>
        <time>2013-05-25T14:02:56Z</time>
      </trkpt>
      <trkpt lat="43.39222" lon="6.08339">
        <ele>312.60000610352</ele>
        <time>2013-05-25T14:03:00Z</time>
      </trkpt>
      <trkpt lat="43.39222" lon="6.08341">
        <ele>313</ele>
        <time>2013-05-25T14:03:02Z</time>
      </trkpt>
      <trkpt lat="43.39221" lon="6.08344">
        <ele>314</ele>
        <time>2013-05-25T14:03:04Z</time>
      </trkpt>
      <trkpt lat="43.3922" lon="6.08352">
        <ele>314.79998779297</ele>
        <time>2013-05-25T14:03:08Z</time>
      </trkpt>
      <trkpt lat="43.39218" lon="6.08362">
        <ele>314.79998779297</ele>
        <time>2013-05-25T14:03:14Z</time>
      </trkpt>
      <trkpt lat="43.39216" lon="6.08375">
        <ele>314.79998779297</ele>
        <time>2013-05-25T14:03:21Z</time>
      </trkpt>
      <trkpt lat="43.39214" lon="6.08381">
        <ele>315.20001220703</ele>
        <time>2013-05-25T14:03:24Z</time>
      </trkpt>
      <trkpt lat="43.39213" lon="6.08382">
        <ele>316</ele>
        <time>2013-05-25T14:03:26Z</time>
      </trkpt>
      <trkpt lat="43.39213" lon="6.08382">
        <ele>316.39999389648</ele>
        <time>2013-05-25T14:03:27Z</time>
      </trkpt>
      <trkpt lat="43.39213" lon="6.08383">
        <ele>316.79998779297</ele>
        <time>2013-05-25T14:03:28Z</time>
      </trkpt>
      <trkpt lat="43.39213" lon="6.08384">
        <ele>316.79998779297</ele>
        <time>2013-05-25T14:03:32Z</time>
      </trkpt>
      <trkpt lat="43.39214" lon="6.08387">
        <ele>316.79998779297</ele>
        <time>2013-05-25T14:03:38Z</time>
      </trkpt>
      <trkpt lat="43.39214" lon="6.08389">
        <ele>316.79998779297</ele>
        <time>2013-05-25T14:03:39Z</time>
      </trkpt>
      <trkpt lat="43.39214" lon="6.08402">
        <ele>316.79998779297</ele>
        <time>2013-05-25T14:03:45Z</time>
      </trkpt>
      <trkpt lat="43.39211" lon="6.08414">
        <ele>316.79998779297</ele>
        <time>2013-05-25T14:03:51Z</time>
      </trkpt>
      <trkpt lat="43.39211" lon="6.08416">
        <ele>317.39999389648</ele>
        <time>2013-05-25T14:03:52Z</time>
      </trkpt>
      <trkpt lat="43.39209" lon="6.08418">
        <ele>317.79998779297</ele>
        <time>2013-05-25T14:03:53Z</time>
      </trkpt>
      <trkpt lat="43.39209" lon="6.0842">
        <ele>318.20001220703</ele>
        <time>2013-05-25T14:03:54Z</time>
      </trkpt>
      <trkpt lat="43.39207" lon="6.08422">
        <ele>318.60000610352</ele>
        <time>2013-05-25T14:03:55Z</time>
      </trkpt>
      <trkpt lat="43.39207" lon="6.08424">
        <ele>319</ele>
        <time>2013-05-25T14:03:56Z</time>
      </trkpt>
      <trkpt lat="43.39206" lon="6.08429">
        <ele>319</ele>
        <time>2013-05-25T14:03:59Z</time>
      </trkpt>
      <trkpt lat="43.39206" lon="6.08431">
        <ele>319.39999389648</ele>
        <time>2013-05-25T14:04:02Z</time>
      </trkpt>
      <trkpt lat="43.39206" lon="6.08431">
        <ele>321.20001220703</ele>
        <time>2013-05-25T14:04:06Z</time>
      </trkpt>
      <trkpt lat="43.39206" lon="6.08433">
        <ele>321.20001220703</ele>
        <time>2013-05-25T14:04:15Z</time>
      </trkpt>
      <trkpt lat="43.39206" lon="6.08434">
        <ele>321.20001220703</ele>
        <time>2013-05-25T14:04:21Z</time>
      </trkpt>
      <trkpt lat="43.39206" lon="6.08438">
        <ele>321.20001220703</ele>
        <time>2013-05-25T14:04:26Z</time>
      </trkpt>
      <trkpt lat="43.39206" lon="6.08439">
        <ele>321.20001220703</ele>
        <time>2013-05-25T14:04:28Z</time>
      </trkpt>
      <trkpt lat="43.39206" lon="6.0844">
        <ele>321.20001220703</ele>
        <time>2013-05-25T14:04:33Z</time>
      </trkpt>
      <trkpt lat="43.39206" lon="6.0844">
        <ele>322.79998779297</ele>
        <time>2013-05-25T14:04:42Z</time>
      </trkpt>
      <trkpt lat="43.39206" lon="6.08441">
        <ele>323.20001220703</ele>
        <time>2013-05-25T14:04:43Z</time>
      </trkpt>
      <trkpt lat="43.39205" lon="6.08442">
        <ele>323.20001220703</ele>
        <time>2013-05-25T14:04:44Z</time>
      </trkpt>
      <trkpt lat="43.39202" lon="6.08456">
        <ele>323.20001220703</ele>
        <time>2013-05-25T14:04:50Z</time>
      </trkpt>
      <trkpt lat="43.392" lon="6.08468">
        <ele>323.20001220703</ele>
        <time>2013-05-25T14:04:56Z</time>
      </trkpt>
      <trkpt lat="43.39198" lon="6.08487">
        <ele>325.20001220703</ele>
        <time>2013-05-25T14:05:05Z</time>
      </trkpt>
      <trkpt lat="43.39197" lon="6.08492">
        <ele>325.20001220703</ele>
        <time>2013-05-25T14:05:08Z</time>
      </trkpt>
      <trkpt lat="43.39197" lon="6.08494">
        <ele>325.20001220703</ele>
        <time>2013-05-25T14:05:09Z</time>
      </trkpt>
      <trkpt lat="43.39196" lon="6.08497">
        <ele>325.20001220703</ele>
        <time>2013-05-25T14:05:11Z</time>
      </trkpt>
      <trkpt lat="43.39193" lon="6.08503">
        <ele>325.20001220703</ele>
        <time>2013-05-25T14:05:15Z</time>
      </trkpt>
      <trkpt lat="43.39191" lon="6.08505">
        <ele>325.20001220703</ele>
        <time>2013-05-25T14:05:16Z</time>
      </trkpt>
      <trkpt lat="43.3919" lon="6.0851">
        <ele>325.20001220703</ele>
        <time>2013-05-25T14:05:18Z</time>
      </trkpt>
      <trkpt lat="43.39187" lon="6.0852">
        <ele>325.20001220703</ele>
        <time>2013-05-25T14:05:21Z</time>
      </trkpt>
      <trkpt lat="43.39186" lon="6.08527">
        <ele>325.20001220703</ele>
        <time>2013-05-25T14:05:23Z</time>
      </trkpt>
      <trkpt lat="43.39181" lon="6.08541">
        <ele>325.20001220703</ele>
        <time>2013-05-25T14:05:27Z</time>
      </trkpt>
      <trkpt lat="43.39178" lon="6.08551">
        <ele>325.20001220703</ele>
        <time>2013-05-25T14:05:30Z</time>
      </trkpt>
      <trkpt lat="43.39174" lon="6.08566">
        <ele>325.20001220703</ele>
        <time>2013-05-25T14:05:34Z</time>
      </trkpt>
      <trkpt lat="43.3917" lon="6.08589">
        <ele>325.20001220703</ele>
        <time>2013-05-25T14:05:39Z</time>
      </trkpt>
      <trkpt lat="43.39165" lon="6.08611">
        <ele>324.79998779297</ele>
        <time>2013-05-25T14:05:44Z</time>
      </trkpt>
      <trkpt lat="43.39165" lon="6.08615">
        <ele>324.39999389648</ele>
        <time>2013-05-25T14:05:45Z</time>
      </trkpt>
      <trkpt lat="43.39164" lon="6.08619">
        <ele>324</ele>
        <time>2013-05-25T14:05:46Z</time>
      </trkpt>
      <trkpt lat="43.39163" lon="6.08625">
        <ele>323.20001220703</ele>
        <time>2013-05-25T14:05:48Z</time>
      </trkpt>
      <trkpt lat="43.39157" lon="6.08644">
        <ele>323.20001220703</ele>
        <time>2013-05-25T14:05:53Z</time>
      </trkpt>
      <trkpt lat="43.39156" lon="6.08662">
        <ele>323.20001220703</ele>
        <time>2013-05-25T14:05:58Z</time>
      </trkpt>
      <trkpt lat="43.3915" lon="6.08678">
        <ele>323.20001220703</ele>
        <time>2013-05-25T14:06:03Z</time>
      </trkpt>
      <trkpt lat="43.39148" lon="6.08701">
        <ele>323.20001220703</ele>
        <time>2013-05-25T14:06:10Z</time>
      </trkpt>
      <trkpt lat="43.39145" lon="6.08717">
        <ele>323.20001220703</ele>
        <time>2013-05-25T14:06:15Z</time>
      </trkpt>
      <trkpt lat="43.39142" lon="6.08735">
        <ele>323.20001220703</ele>
        <time>2013-05-25T14:06:21Z</time>
      </trkpt>
      <trkpt lat="43.39138" lon="6.08758">
        <ele>323.20001220703</ele>
        <time>2013-05-25T14:06:28Z</time>
      </trkpt>
      <trkpt lat="43.39131" lon="6.08781">
        <ele>323.20001220703</ele>
        <time>2013-05-25T14:06:36Z</time>
      </trkpt>
      <trkpt lat="43.39127" lon="6.08798">
        <ele>323.20001220703</ele>
        <time>2013-05-25T14:06:42Z</time>
      </trkpt>
      <trkpt lat="43.39125" lon="6.08813">
        <ele>323.20001220703</ele>
        <time>2013-05-25T14:06:47Z</time>
      </trkpt>
      <trkpt lat="43.39122" lon="6.08827">
        <ele>323.60000610352</ele>
        <time>2013-05-25T14:06:51Z</time>
      </trkpt>
      <trkpt lat="43.39121" lon="6.08832">
        <ele>324.39999389648</ele>
        <time>2013-05-25T14:06:53Z</time>
      </trkpt>
      <trkpt lat="43.3912" lon="6.08838">
        <ele>325.20001220703</ele>
        <time>2013-05-25T14:06:55Z</time>
      </trkpt>
      <trkpt lat="43.39117" lon="6.08851">
        <ele>325.20001220703</ele>
        <time>2013-05-25T14:06:59Z</time>
      </trkpt>
      <trkpt lat="43.39112" lon="6.08866">
        <ele>325.20001220703</ele>
        <time>2013-05-25T14:07:04Z</time>
      </trkpt>
      <trkpt lat="43.39107" lon="6.08883">
        <ele>325.20001220703</ele>
        <time>2013-05-25T14:07:10Z</time>
      </trkpt>
      <trkpt lat="43.39104" lon="6.08901">
        <ele>325.20001220703</ele>
        <time>2013-05-25T14:07:16Z</time>
      </trkpt>
      <trkpt lat="43.391" lon="6.08922">
        <ele>325.20001220703</ele>
        <time>2013-05-25T14:07:22Z</time>
      </trkpt>
      <trkpt lat="43.39093" lon="6.08949">
        <ele>325.20001220703</ele>
        <time>2013-05-25T14:07:30Z</time>
      </trkpt>
      <trkpt lat="43.39086" lon="6.08971">
        <ele>325.20001220703</ele>
        <time>2013-05-25T14:07:37Z</time>
      </trkpt>
      <trkpt lat="43.39068" lon="6.09005">
        <ele>325.60000610352</ele>
        <time>2013-05-25T14:07:49Z</time>
      </trkpt>
      <trkpt lat="43.39064" lon="6.09011">
        <ele>326.39999389648</ele>
        <time>2013-05-25T14:07:51Z</time>
      </trkpt>
      <trkpt lat="43.39061" lon="6.0902">
        <ele>327.39999389648</ele>
        <time>2013-05-25T14:07:54Z</time>
      </trkpt>
      <trkpt lat="43.39054" lon="6.09038">
        <ele>327.39999389648</ele>
        <time>2013-05-25T14:08:00Z</time>
      </trkpt>
      <trkpt lat="43.39042" lon="6.09065">
        <ele>327.39999389648</ele>
        <time>2013-05-25T14:08:10Z</time>
      </trkpt>
      <trkpt lat="43.39036" lon="6.0908">
        <ele>327.39999389648</ele>
        <time>2013-05-25T14:08:16Z</time>
      </trkpt>
      <trkpt lat="43.3903" lon="6.09096">
        <ele>327.39999389648</ele>
        <time>2013-05-25T14:08:22Z</time>
      </trkpt>
      <trkpt lat="43.39025" lon="6.09109">
        <ele>327.39999389648</ele>
        <time>2013-05-25T14:08:27Z</time>
      </trkpt>
      <trkpt lat="43.39022" lon="6.09125">
        <ele>327.39999389648</ele>
        <time>2013-05-25T14:08:32Z</time>
      </trkpt>
      <trkpt lat="43.39017" lon="6.09144">
        <ele>327.39999389648</ele>
        <time>2013-05-25T14:08:38Z</time>
      </trkpt>
      <trkpt lat="43.39013" lon="6.09158">
        <ele>329.39999389648</ele>
        <time>2013-05-25T14:08:43Z</time>
      </trkpt>
      <trkpt lat="43.39009" lon="6.09173">
        <ele>329.39999389648</ele>
        <time>2013-05-25T14:08:48Z</time>
      </trkpt>
      <trkpt lat="43.39005" lon="6.09193">
        <ele>329.39999389648</ele>
        <time>2013-05-25T14:08:54Z</time>
      </trkpt>
      <trkpt lat="43.39001" lon="6.0922">
        <ele>329.39999389648</ele>
        <time>2013-05-25T14:09:01Z</time>
      </trkpt>
      <trkpt lat="43.38997" lon="6.09245">
        <ele>329.39999389648</ele>
        <time>2013-05-25T14:09:08Z</time>
      </trkpt>
      <trkpt lat="43.38988" lon="6.09264">
        <ele>329.39999389648</ele>
        <time>2013-05-25T14:09:13Z</time>
      </trkpt>
      <trkpt lat="43.38979" lon="6.09281">
        <ele>329.39999389648</ele>
        <time>2013-05-25T14:09:19Z</time>
      </trkpt>
      <trkpt lat="43.38974" lon="6.09291">
        <ele>330.60000610352</ele>
        <time>2013-05-25T14:09:23Z</time>
      </trkpt>
      <trkpt lat="43.38972" lon="6.09293">
        <ele>331.20001220703</ele>
        <time>2013-05-25T14:09:24Z</time>
      </trkpt>
      <trkpt lat="43.38966" lon="6.09304">
        <ele>331.60000610352</ele>
        <time>2013-05-25T14:09:29Z</time>
      </trkpt>
      <trkpt lat="43.38958" lon="6.09318">
        <ele>332</ele>
        <time>2013-05-25T14:09:35Z</time>
      </trkpt>
      <trkpt lat="43.38956" lon="6.09323">
        <ele>332.79998779297</ele>
        <time>2013-05-25T14:09:37Z</time>
      </trkpt>
      <trkpt lat="43.38953" lon="6.0933">
        <ele>333.60000610352</ele>
        <time>2013-05-25T14:09:40Z</time>
      </trkpt>
      <trkpt lat="43.38944" lon="6.09344">
        <ele>333.60000610352</ele>
        <time>2013-05-25T14:09:46Z</time>
      </trkpt>
      <trkpt lat="43.38935" lon="6.09357">
        <ele>333.60000610352</ele>
        <time>2013-05-25T14:09:53Z</time>
      </trkpt>
      <trkpt lat="43.38928" lon="6.0937">
        <ele>333.60000610352</ele>
        <time>2013-05-25T14:09:58Z</time>
      </trkpt>
      <trkpt lat="43.38918" lon="6.09384">
        <ele>335.20001220703</ele>
        <time>2013-05-25T14:10:06Z</time>
      </trkpt>
      <trkpt lat="43.38911" lon="6.09392">
        <ele>335.60000610352</ele>
        <time>2013-05-25T14:10:11Z</time>
      </trkpt>
      <trkpt lat="43.38908" lon="6.09397">
        <ele>336.39999389648</ele>
        <time>2013-05-25T14:10:13Z</time>
      </trkpt>
      <trkpt lat="43.38905" lon="6.09399">
        <ele>337.20001220703</ele>
        <time>2013-05-25T14:10:15Z</time>
      </trkpt>
      <trkpt lat="43.38902" lon="6.09401">
        <ele>337.79998779297</ele>
        <time>2013-05-25T14:10:17Z</time>
      </trkpt>
      <trkpt lat="43.38897" lon="6.09406">
        <ele>337.79998779297</ele>
        <time>2013-05-25T14:10:21Z</time>
      </trkpt>
      <trkpt lat="43.38895" lon="6.09411">
        <ele>337.79998779297</ele>
        <time>2013-05-25T14:10:24Z</time>
      </trkpt>
      <trkpt lat="43.38893" lon="6.09417">
        <ele>337.79998779297</ele>
        <time>2013-05-25T14:10:27Z</time>
      </trkpt>
      <trkpt lat="43.38892" lon="6.09418">
        <ele>338.20001220703</ele>
        <time>2013-05-25T14:10:28Z</time>
      </trkpt>
      <trkpt lat="43.38891" lon="6.0942">
        <ele>338.60000610352</ele>
        <time>2013-05-25T14:10:29Z</time>
      </trkpt>
      <trkpt lat="43.38889" lon="6.09419">
        <ele>339.39999389648</ele>
        <time>2013-05-25T14:10:31Z</time>
      </trkpt>
      <trkpt lat="43.38888" lon="6.09419">
        <ele>339.79998779297</ele>
        <time>2013-05-25T14:10:32Z</time>
      </trkpt>
      <trkpt lat="43.38888" lon="6.09419">
        <ele>339.79998779297</ele>
        <time>2013-05-25T14:10:34Z</time>
      </trkpt>
      <trkpt lat="43.38886" lon="6.09419">
        <ele>339.79998779297</ele>
        <time>2013-05-25T14:10:41Z</time>
      </trkpt>
      <trkpt lat="43.38885" lon="6.09422">
        <ele>339.79998779297</ele>
        <time>2013-05-25T14:10:49Z</time>
      </trkpt>
      <trkpt lat="43.38885" lon="6.09423">
        <ele>340.20001220703</ele>
        <time>2013-05-25T14:10:50Z</time>
      </trkpt>
      <trkpt lat="43.38884" lon="6.09424">
        <ele>341</ele>
        <time>2013-05-25T14:10:52Z</time>
      </trkpt>
      <trkpt lat="43.38884" lon="6.09424">
        <ele>341.39999389648</ele>
        <time>2013-05-25T14:10:53Z</time>
      </trkpt>
      <trkpt lat="43.38884" lon="6.09424">
        <ele>341.79998779297</ele>
        <time>2013-05-25T14:10:55Z</time>
      </trkpt>
      <trkpt lat="43.38881" lon="6.09429">
        <ele>341.79998779297</ele>
        <time>2013-05-25T14:11:02Z</time>
      </trkpt>
      <trkpt lat="43.38881" lon="6.09429">
        <ele>341.79998779297</ele>
        <time>2013-05-25T14:11:15Z</time>
      </trkpt>
      <trkpt lat="43.38881" lon="6.09429">
        <ele>342.79998779297</ele>
        <time>2013-05-25T14:11:26Z</time>
      </trkpt>
      <trkpt lat="43.3888" lon="6.09429">
        <ele>343.20001220703</ele>
        <time>2013-05-25T14:11:27Z</time>
      </trkpt>
      <trkpt lat="43.38879" lon="6.0943">
        <ele>343.60000610352</ele>
        <time>2013-05-25T14:11:28Z</time>
      </trkpt>
      <trkpt lat="43.38877" lon="6.09431">
        <ele>344</ele>
        <time>2013-05-25T14:11:29Z</time>
      </trkpt>
      <trkpt lat="43.38873" lon="6.09436">
        <ele>344</ele>
        <time>2013-05-25T14:11:32Z</time>
      </trkpt>
      <trkpt lat="43.38873" lon="6.09445">
        <ele>344</ele>
        <time>2013-05-25T14:11:37Z</time>
      </trkpt>
      <trkpt lat="43.38873" lon="6.09454">
        <ele>344</ele>
        <time>2013-05-25T14:11:41Z</time>
      </trkpt>
      <trkpt lat="43.38872" lon="6.09457">
        <ele>344</ele>
        <time>2013-05-25T14:11:43Z</time>
      </trkpt>
      <trkpt lat="43.3887" lon="6.09467">
        <ele>343.60000610352</ele>
        <time>2013-05-25T14:11:46Z</time>
      </trkpt>
      <trkpt lat="43.38871" lon="6.0948">
        <ele>342</ele>
        <time>2013-05-25T14:11:50Z</time>
      </trkpt>
      <trkpt lat="43.38872" lon="6.09485">
        <ele>342</ele>
        <time>2013-05-25T14:11:52Z</time>
      </trkpt>
      <trkpt lat="43.38873" lon="6.09493">
        <ele>342</ele>
        <time>2013-05-25T14:11:56Z</time>
      </trkpt>
      <trkpt lat="43.38873" lon="6.09498">
        <ele>342</ele>
        <time>2013-05-25T14:11:58Z</time>
      </trkpt>
      <trkpt lat="43.38873" lon="6.095">
        <ele>342</ele>
        <time>2013-05-25T14:11:59Z</time>
      </trkpt>
      <trkpt lat="43.38873" lon="6.09511">
        <ele>342</ele>
        <time>2013-05-25T14:12:04Z</time>
      </trkpt>
      <trkpt lat="43.38874" lon="6.09516">
        <ele>342</ele>
        <time>2013-05-25T14:12:06Z</time>
      </trkpt>
      <trkpt lat="43.38875" lon="6.0954">
        <ele>342</ele>
        <time>2013-05-25T14:12:14Z</time>
      </trkpt>
      <trkpt lat="43.38876" lon="6.09565">
        <ele>342</ele>
        <time>2013-05-25T14:12:21Z</time>
      </trkpt>
      <trkpt lat="43.38879" lon="6.09596">
        <ele>342</ele>
        <time>2013-05-25T14:12:27Z</time>
      </trkpt>
      <trkpt lat="43.38881" lon="6.09608">
        <ele>341.60000610352</ele>
        <time>2013-05-25T14:12:29Z</time>
      </trkpt>
      <trkpt lat="43.38883" lon="6.09614">
        <ele>341.20001220703</ele>
        <time>2013-05-25T14:12:30Z</time>
      </trkpt>
      <trkpt lat="43.38889" lon="6.09623">
        <ele>340.20001220703</ele>
        <time>2013-05-25T14:12:32Z</time>
      </trkpt>
      <trkpt lat="43.38891" lon="6.09626">
        <ele>339.79998779297</ele>
        <time>2013-05-25T14:12:33Z</time>
      </trkpt>
      <trkpt lat="43.38897" lon="6.09643">
        <ele>339.79998779297</ele>
        <time>2013-05-25T14:12:37Z</time>
      </trkpt>
      <trkpt lat="43.38898" lon="6.09654">
        <ele>339.79998779297</ele>
        <time>2013-05-25T14:12:39Z</time>
      </trkpt>
      <trkpt lat="43.38898" lon="6.0968">
        <ele>339.39999389648</ele>
        <time>2013-05-25T14:12:43Z</time>
      </trkpt>
      <trkpt lat="43.38899" lon="6.09695">
        <ele>338.60000610352</ele>
        <time>2013-05-25T14:12:45Z</time>
      </trkpt>
      <trkpt lat="43.389" lon="6.09708">
        <ele>337.79998779297</ele>
        <time>2013-05-25T14:12:47Z</time>
      </trkpt>
      <trkpt lat="43.38901" lon="6.09715">
        <ele>337.79998779297</ele>
        <time>2013-05-25T14:12:48Z</time>
      </trkpt>
      <trkpt lat="43.38902" lon="6.09722">
        <ele>337.79998779297</ele>
        <time>2013-05-25T14:12:49Z</time>
      </trkpt>
      <trkpt lat="43.38903" lon="6.09739">
        <ele>337.20001220703</ele>
        <time>2013-05-25T14:12:51Z</time>
      </trkpt>
      <trkpt lat="43.38903" lon="6.09747">
        <ele>336.79998779297</ele>
        <time>2013-05-25T14:12:52Z</time>
      </trkpt>
      <trkpt lat="43.38902" lon="6.09756">
        <ele>336.39999389648</ele>
        <time>2013-05-25T14:12:53Z</time>
      </trkpt>
      <trkpt lat="43.38901" lon="6.09764">
        <ele>336</ele>
        <time>2013-05-25T14:12:54Z</time>
      </trkpt>
      <trkpt lat="43.389" lon="6.09773">
        <ele>335.60000610352</ele>
        <time>2013-05-25T14:12:55Z</time>
      </trkpt>
      <trkpt lat="43.38894" lon="6.09807">
        <ele>334.20001220703</ele>
        <time>2013-05-25T14:12:59Z</time>
      </trkpt>
      <trkpt lat="43.3889" lon="6.09823">
        <ele>333</ele>
        <time>2013-05-25T14:13:01Z</time>
      </trkpt>
      <trkpt lat="43.38888" lon="6.09853">
        <ele>330.20001220703</ele>
        <time>2013-05-25T14:13:05Z</time>
      </trkpt>
      <trkpt lat="43.38887" lon="6.09861">
        <ele>329.39999389648</ele>
        <time>2013-05-25T14:13:06Z</time>
      </trkpt>
      <trkpt lat="43.38885" lon="6.09869">
        <ele>328.60000610352</ele>
        <time>2013-05-25T14:13:07Z</time>
      </trkpt>
      <trkpt lat="43.38884" lon="6.09878">
        <ele>327.60000610352</ele>
        <time>2013-05-25T14:13:08Z</time>
      </trkpt>
      <trkpt lat="43.38883" lon="6.09886">
        <ele>326.79998779297</ele>
        <time>2013-05-25T14:13:09Z</time>
      </trkpt>
      <trkpt lat="43.38881" lon="6.09895">
        <ele>325.79998779297</ele>
        <time>2013-05-25T14:13:10Z</time>
      </trkpt>
      <trkpt lat="43.38877" lon="6.0991">
        <ele>323.79998779297</ele>
        <time>2013-05-25T14:13:12Z</time>
      </trkpt>
      <trkpt lat="43.38866" lon="6.09953">
        <ele>319.39999389648</ele>
        <time>2013-05-25T14:13:17Z</time>
      </trkpt>
      <trkpt lat="43.38864" lon="6.09962">
        <ele>318.60000610352</ele>
        <time>2013-05-25T14:13:18Z</time>
      </trkpt>
      <trkpt lat="43.38861" lon="6.09989">
        <ele>316.39999389648</ele>
        <time>2013-05-25T14:13:21Z</time>
      </trkpt>
      <trkpt lat="43.38861" lon="6.09998">
        <ele>315.79998779297</ele>
        <time>2013-05-25T14:13:22Z</time>
      </trkpt>
      <trkpt lat="43.3886" lon="6.10008">
        <ele>315.39999389648</ele>
        <time>2013-05-25T14:13:23Z</time>
      </trkpt>
      <trkpt lat="43.38857" lon="6.10018">
        <ele>314.20001220703</ele>
        <time>2013-05-25T14:13:24Z</time>
      </trkpt>
      <trkpt lat="43.38855" lon="6.10027">
        <ele>313.79998779297</ele>
        <time>2013-05-25T14:13:25Z</time>
      </trkpt>
      <trkpt lat="43.38853" lon="6.10038">
        <ele>313.39999389648</ele>
        <time>2013-05-25T14:13:26Z</time>
      </trkpt>
      <trkpt lat="43.3885" lon="6.10048">
        <ele>312.79998779297</ele>
        <time>2013-05-25T14:13:27Z</time>
      </trkpt>
      <trkpt lat="43.38848" lon="6.10058">
        <ele>312.39999389648</ele>
        <time>2013-05-25T14:13:28Z</time>
      </trkpt>
      <trkpt lat="43.38845" lon="6.10069">
        <ele>311.79998779297</ele>
        <time>2013-05-25T14:13:29Z</time>
      </trkpt>
      <trkpt lat="43.38842" lon="6.10078">
        <ele>311.20001220703</ele>
        <time>2013-05-25T14:13:30Z</time>
      </trkpt>
      <trkpt lat="43.3884" lon="6.10088">
        <ele>310.79998779297</ele>
        <time>2013-05-25T14:13:31Z</time>
      </trkpt>
      <trkpt lat="43.38838" lon="6.10098">
        <ele>310.20001220703</ele>
        <time>2013-05-25T14:13:32Z</time>
      </trkpt>
      <trkpt lat="43.38836" lon="6.10108">
        <ele>309.60000610352</ele>
        <time>2013-05-25T14:13:33Z</time>
      </trkpt>
      <trkpt lat="43.38833" lon="6.10117">
        <ele>309.60000610352</ele>
        <time>2013-05-25T14:13:34Z</time>
      </trkpt>
      <trkpt lat="43.3883" lon="6.10126">
        <ele>309.20001220703</ele>
        <time>2013-05-25T14:13:35Z</time>
      </trkpt>
      <trkpt lat="43.38828" lon="6.10133">
        <ele>308.60000610352</ele>
        <time>2013-05-25T14:13:36Z</time>
      </trkpt>
      <trkpt lat="43.38826" lon="6.10139">
        <ele>308.20001220703</ele>
        <time>2013-05-25T14:13:37Z</time>
      </trkpt>
      <trkpt lat="43.38824" lon="6.10143">
        <ele>307.60000610352</ele>
        <time>2013-05-25T14:13:38Z</time>
      </trkpt>
      <trkpt lat="43.38824" lon="6.10147">
        <ele>307.20001220703</ele>
        <time>2013-05-25T14:13:39Z</time>
      </trkpt>
      <trkpt lat="43.38824" lon="6.10148">
        <ele>307.20001220703</ele>
        <time>2013-05-25T14:13:40Z</time>
      </trkpt>
      <trkpt lat="43.38824" lon="6.10149">
        <ele>307.20001220703</ele>
        <time>2013-05-25T14:13:41Z</time>
      </trkpt>
      <trkpt lat="43.38824" lon="6.10153">
        <ele>307.20001220703</ele>
        <time>2013-05-25T14:13:43Z</time>
      </trkpt>
      <trkpt lat="43.38824" lon="6.10153">
        <ele>307.20001220703</ele>
        <time>2013-05-25T14:13:45Z</time>
      </trkpt>
      <trkpt lat="43.38822" lon="6.10154">
        <ele>307.20001220703</ele>
        <time>2013-05-25T14:13:47Z</time>
      </trkpt>
      <trkpt lat="43.38821" lon="6.10159">
        <ele>307.20001220703</ele>
        <time>2013-05-25T14:13:49Z</time>
      </trkpt>
      <trkpt lat="43.38826" lon="6.10176">
        <ele>307.20001220703</ele>
        <time>2013-05-25T14:13:55Z</time>
      </trkpt>
      <trkpt lat="43.38823" lon="6.10192">
        <ele>307.20001220703</ele>
        <time>2013-05-25T14:13:59Z</time>
      </trkpt>
      <trkpt lat="43.3882" lon="6.10198">
        <ele>307.20001220703</ele>
        <time>2013-05-25T14:14:01Z</time>
      </trkpt>
      <trkpt lat="43.38818" lon="6.10207">
        <ele>307.20001220703</ele>
        <time>2013-05-25T14:14:04Z</time>
      </trkpt>
      <trkpt lat="43.38817" lon="6.10216">
        <ele>307.20001220703</ele>
        <time>2013-05-25T14:14:07Z</time>
      </trkpt>
      <trkpt lat="43.38818" lon="6.10225">
        <ele>307.20001220703</ele>
        <time>2013-05-25T14:14:10Z</time>
      </trkpt>
      <trkpt lat="43.38823" lon="6.10241">
        <ele>307.20001220703</ele>
        <time>2013-05-25T14:14:15Z</time>
      </trkpt>
      <trkpt lat="43.38825" lon="6.10258">
        <ele>307.20001220703</ele>
        <time>2013-05-25T14:14:20Z</time>
      </trkpt>
      <trkpt lat="43.38829" lon="6.1028">
        <ele>307.20001220703</ele>
        <time>2013-05-25T14:14:24Z</time>
      </trkpt>
      <trkpt lat="43.38829" lon="6.10285">
        <ele>307.20001220703</ele>
        <time>2013-05-25T14:14:25Z</time>
      </trkpt>
      <trkpt lat="43.3883" lon="6.10305">
        <ele>306.79998779297</ele>
        <time>2013-05-25T14:14:28Z</time>
      </trkpt>
      <trkpt lat="43.38829" lon="6.10317">
        <ele>305.79998779297</ele>
        <time>2013-05-25T14:14:30Z</time>
      </trkpt>
      <trkpt lat="43.38829" lon="6.10323">
        <ele>305.39999389648</ele>
        <time>2013-05-25T14:14:31Z</time>
      </trkpt>
      <trkpt lat="43.38829" lon="6.1033">
        <ele>305</ele>
        <time>2013-05-25T14:14:32Z</time>
      </trkpt>
      <trkpt lat="43.38829" lon="6.10358">
        <ele>305</ele>
        <time>2013-05-25T14:14:37Z</time>
      </trkpt>
      <trkpt lat="43.38832" lon="6.10405">
        <ele>304.39999389648</ele>
        <time>2013-05-25T14:14:44Z</time>
      </trkpt>
      <trkpt lat="43.38831" lon="6.1042">
        <ele>303.60000610352</ele>
        <time>2013-05-25T14:14:46Z</time>
      </trkpt>
      <trkpt lat="43.38829" lon="6.10427">
        <ele>303</ele>
        <time>2013-05-25T14:14:47Z</time>
      </trkpt>
      <trkpt lat="43.38828" lon="6.10434">
        <ele>302.60000610352</ele>
        <time>2013-05-25T14:14:48Z</time>
      </trkpt>
      <trkpt lat="43.38827" lon="6.10441">
        <ele>302.60000610352</ele>
        <time>2013-05-25T14:14:49Z</time>
      </trkpt>
      <trkpt lat="43.38826" lon="6.10449">
        <ele>302.60000610352</ele>
        <time>2013-05-25T14:14:50Z</time>
      </trkpt>
      <trkpt lat="43.38826" lon="6.10465">
        <ele>302.20001220703</ele>
        <time>2013-05-25T14:14:52Z</time>
      </trkpt>
      <trkpt lat="43.38826" lon="6.10473">
        <ele>301.79998779297</ele>
        <time>2013-05-25T14:14:53Z</time>
      </trkpt>
      <trkpt lat="43.38826" lon="6.10481">
        <ele>301.39999389648</ele>
        <time>2013-05-25T14:14:54Z</time>
      </trkpt>
      <trkpt lat="43.38824" lon="6.10487">
        <ele>301</ele>
        <time>2013-05-25T14:14:55Z</time>
      </trkpt>
      <trkpt lat="43.38823" lon="6.10493">
        <ele>300.60000610352</ele>
        <time>2013-05-25T14:14:56Z</time>
      </trkpt>
      <trkpt lat="43.38821" lon="6.105">
        <ele>300.60000610352</ele>
        <time>2013-05-25T14:14:57Z</time>
      </trkpt>
      <trkpt lat="43.38818" lon="6.10513">
        <ele>300.20001220703</ele>
        <time>2013-05-25T14:14:59Z</time>
      </trkpt>
      <trkpt lat="43.38815" lon="6.10524">
        <ele>299.39999389648</ele>
        <time>2013-05-25T14:15:01Z</time>
      </trkpt>
      <trkpt lat="43.38814" lon="6.1053">
        <ele>298.39999389648</ele>
        <time>2013-05-25T14:15:02Z</time>
      </trkpt>
      <trkpt lat="43.38812" lon="6.10553">
        <ele>298.39999389648</ele>
        <time>2013-05-25T14:15:06Z</time>
      </trkpt>
      <trkpt lat="43.38808" lon="6.10562">
        <ele>298.39999389648</ele>
        <time>2013-05-25T14:15:08Z</time>
      </trkpt>
      <trkpt lat="43.38807" lon="6.1057">
        <ele>298.39999389648</ele>
        <time>2013-05-25T14:15:10Z</time>
      </trkpt>
      <trkpt lat="43.38804" lon="6.10586">
        <ele>298</ele>
        <time>2013-05-25T14:15:13Z</time>
      </trkpt>
      <trkpt lat="43.38799" lon="6.10611">
        <ele>296.20001220703</ele>
        <time>2013-05-25T14:15:17Z</time>
      </trkpt>
      <trkpt lat="43.38795" lon="6.10632">
        <ele>294.79998779297</ele>
        <time>2013-05-25T14:15:20Z</time>
      </trkpt>
      <trkpt lat="43.38795" lon="6.10637">
        <ele>294.39999389648</ele>
        <time>2013-05-25T14:15:21Z</time>
      </trkpt>
      <trkpt lat="43.38794" lon="6.10647">
        <ele>293.79998779297</ele>
        <time>2013-05-25T14:15:23Z</time>
      </trkpt>
      <trkpt lat="43.3879" lon="6.10663">
        <ele>293.79998779297</ele>
        <time>2013-05-25T14:15:26Z</time>
      </trkpt>
      <trkpt lat="43.38789" lon="6.10667">
        <ele>293.39999389648</ele>
        <time>2013-05-25T14:15:27Z</time>
      </trkpt>
      <trkpt lat="43.38787" lon="6.10671">
        <ele>293</ele>
        <time>2013-05-25T14:15:28Z</time>
      </trkpt>
      <trkpt lat="43.38784" lon="6.10682">
        <ele>292.20001220703</ele>
        <time>2013-05-25T14:15:30Z</time>
      </trkpt>
      <trkpt lat="43.38783" lon="6.10687">
        <ele>291.79998779297</ele>
        <time>2013-05-25T14:15:31Z</time>
      </trkpt>
      <trkpt lat="43.38782" lon="6.10693">
        <ele>291.79998779297</ele>
        <time>2013-05-25T14:15:32Z</time>
      </trkpt>
      <trkpt lat="43.38778" lon="6.10706">
        <ele>291.79998779297</ele>
        <time>2013-05-25T14:15:34Z</time>
      </trkpt>
      <trkpt lat="43.38777" lon="6.10712">
        <ele>291.79998779297</ele>
        <time>2013-05-25T14:15:35Z</time>
      </trkpt>
      <trkpt lat="43.38774" lon="6.10728">
        <ele>291.79998779297</ele>
        <time>2013-05-25T14:15:37Z</time>
      </trkpt>
      <trkpt lat="43.38771" lon="6.10745">
        <ele>291.79998779297</ele>
        <time>2013-05-25T14:15:40Z</time>
      </trkpt>
      <trkpt lat="43.38772" lon="6.10749">
        <ele>291.79998779297</ele>
        <time>2013-05-25T14:15:41Z</time>
      </trkpt>
      <trkpt lat="43.38772" lon="6.10752">
        <ele>291.79998779297</ele>
        <time>2013-05-25T14:15:42Z</time>
      </trkpt>
      <trkpt lat="43.38771" lon="6.10751">
        <ele>291.39999389648</ele>
        <time>2013-05-25T14:15:44Z</time>
      </trkpt>
      <trkpt lat="43.38771" lon="6.10751">
        <ele>289.79998779297</ele>
        <time>2013-05-25T14:15:54Z</time>
      </trkpt>
      <trkpt lat="43.38771" lon="6.10751">
        <ele>289.79998779297</ele>
        <time>2013-05-25T14:15:58Z</time>
      </trkpt>
      <trkpt lat="43.38771" lon="6.10754">
        <ele>289.79998779297</ele>
        <time>2013-05-25T14:16:08Z</time>
      </trkpt>
      <trkpt lat="43.38769" lon="6.1076">
        <ele>289.79998779297</ele>
        <time>2013-05-25T14:16:11Z</time>
      </trkpt>
      <trkpt lat="43.38768" lon="6.10762">
        <ele>289.79998779297</ele>
        <time>2013-05-25T14:16:13Z</time>
      </trkpt>
      <trkpt lat="43.38764" lon="6.10772">
        <ele>289.79998779297</ele>
        <time>2013-05-25T14:16:17Z</time>
      </trkpt>
      <trkpt lat="43.38762" lon="6.10779">
        <ele>289.79998779297</ele>
        <time>2013-05-25T14:16:19Z</time>
      </trkpt>
      <trkpt lat="43.38758" lon="6.10791">
        <ele>289.79998779297</ele>
        <time>2013-05-25T14:16:23Z</time>
      </trkpt>
      <trkpt lat="43.38749" lon="6.10811">
        <ele>289.79998779297</ele>
        <time>2013-05-25T14:16:29Z</time>
      </trkpt>
      <trkpt lat="43.38741" lon="6.10838">
        <ele>289.79998779297</ele>
        <time>2013-05-25T14:16:35Z</time>
      </trkpt>
      <trkpt lat="43.38733" lon="6.10866">
        <ele>289.79998779297</ele>
        <time>2013-05-25T14:16:41Z</time>
      </trkpt>
      <trkpt lat="43.38727" lon="6.10891">
        <ele>289.79998779297</ele>
        <time>2013-05-25T14:16:47Z</time>
      </trkpt>
      <trkpt lat="43.38722" lon="6.10926">
        <ele>289.79998779297</ele>
        <time>2013-05-25T14:16:55Z</time>
      </trkpt>
      <trkpt lat="43.38718" lon="6.10957">
        <ele>289.79998779297</ele>
        <time>2013-05-25T14:17:02Z</time>
      </trkpt>
      <trkpt lat="43.38715" lon="6.10989">
        <ele>289.79998779297</ele>
        <time>2013-05-25T14:17:09Z</time>
      </trkpt>
      <trkpt lat="43.38712" lon="6.11014">
        <ele>289.79998779297</ele>
        <time>2013-05-25T14:17:15Z</time>
      </trkpt>
      <trkpt lat="43.38709" lon="6.11066">
        <ele>289.79998779297</ele>
        <time>2013-05-25T14:17:27Z</time>
      </trkpt>
      <trkpt lat="43.38709" lon="6.11096">
        <ele>289.79998779297</ele>
        <time>2013-05-25T14:17:34Z</time>
      </trkpt>
      <trkpt lat="43.38715" lon="6.11108">
        <ele>289.79998779297</ele>
        <time>2013-05-25T14:17:38Z</time>
      </trkpt>
      <trkpt lat="43.38732" lon="6.11113">
        <ele>289.79998779297</ele>
        <time>2013-05-25T14:17:43Z</time>
      </trkpt>
      <trkpt lat="43.38748" lon="6.11117">
        <ele>289.79998779297</ele>
        <time>2013-05-25T14:17:48Z</time>
      </trkpt>
      <trkpt lat="43.38773" lon="6.11124">
        <ele>289.79998779297</ele>
        <time>2013-05-25T14:17:56Z</time>
      </trkpt>
      <trkpt lat="43.38794" lon="6.11137">
        <ele>289.79998779297</ele>
        <time>2013-05-25T14:18:02Z</time>
      </trkpt>
      <trkpt lat="43.38815" lon="6.11154">
        <ele>289.79998779297</ele>
        <time>2013-05-25T14:18:09Z</time>
      </trkpt>
      <trkpt lat="43.38838" lon="6.11169">
        <ele>289.79998779297</ele>
        <time>2013-05-25T14:18:15Z</time>
      </trkpt>
      <trkpt lat="43.38842" lon="6.11171">
        <ele>289.39999389648</ele>
        <time>2013-05-25T14:18:16Z</time>
      </trkpt>
      <trkpt lat="43.38847" lon="6.11173">
        <ele>289</ele>
        <time>2013-05-25T14:18:17Z</time>
      </trkpt>
      <trkpt lat="43.3885" lon="6.11174">
        <ele>288.39999389648</ele>
        <time>2013-05-25T14:18:18Z</time>
      </trkpt>
      <trkpt lat="43.38855" lon="6.11174">
        <ele>287.60000610352</ele>
        <time>2013-05-25T14:18:19Z</time>
      </trkpt>
      <trkpt lat="43.38865" lon="6.11176">
        <ele>287.60000610352</ele>
        <time>2013-05-25T14:18:21Z</time>
      </trkpt>
      <trkpt lat="43.38896" lon="6.11182">
        <ele>287.60000610352</ele>
        <time>2013-05-25T14:18:27Z</time>
      </trkpt>
      <trkpt lat="43.3892" lon="6.11188">
        <ele>287.60000610352</ele>
        <time>2013-05-25T14:18:33Z</time>
      </trkpt>
      <trkpt lat="43.38939" lon="6.11195">
        <ele>287.60000610352</ele>
        <time>2013-05-25T14:18:39Z</time>
      </trkpt>
      <trkpt lat="43.38944" lon="6.11196">
        <ele>287.60000610352</ele>
        <time>2013-05-25T14:18:41Z</time>
      </trkpt>
      <trkpt lat="43.38956" lon="6.11195">
        <ele>287.60000610352</ele>
        <time>2013-05-25T14:18:47Z</time>
      </trkpt>
      <trkpt lat="43.38968" lon="6.11196">
        <ele>287.60000610352</ele>
        <time>2013-05-25T14:18:52Z</time>
      </trkpt>
      <trkpt lat="43.3897" lon="6.11197">
        <ele>287.60000610352</ele>
        <time>2013-05-25T14:18:53Z</time>
      </trkpt>
      <trkpt lat="43.38971" lon="6.11197">
        <ele>287.60000610352</ele>
        <time>2013-05-25T14:18:54Z</time>
      </trkpt>
      <trkpt lat="43.38975" lon="6.11196">
        <ele>288</ele>
        <time>2013-05-25T14:18:57Z</time>
      </trkpt>
      <trkpt lat="43.38976" lon="6.11195">
        <ele>288.39999389648</ele>
        <time>2013-05-25T14:18:58Z</time>
      </trkpt>
      <trkpt lat="43.38976" lon="6.11195">
        <ele>289</ele>
        <time>2013-05-25T14:18:59Z</time>
      </trkpt>
      <trkpt lat="43.38977" lon="6.11194">
        <ele>289.39999389648</ele>
        <time>2013-05-25T14:19:00Z</time>
      </trkpt>
      <trkpt lat="43.38977" lon="6.11194">
        <ele>289.79998779297</ele>
        <time>2013-05-25T14:19:01Z</time>
      </trkpt>
      <trkpt lat="43.38977" lon="6.11194">
        <ele>289.79998779297</ele>
        <time>2013-05-25T14:19:12Z</time>
      </trkpt>
      <trkpt lat="43.38977" lon="6.11194">
        <ele>289.79998779297</ele>
        <time>2013-05-25T14:19:25Z</time>
      </trkpt>
      <trkpt lat="43.38981" lon="6.11193">
        <ele>289.79998779297</ele>
        <time>2013-05-25T14:19:31Z</time>
      </trkpt>
      <trkpt lat="43.38982" lon="6.11193">
        <ele>289.79998779297</ele>
        <time>2013-05-25T14:19:32Z</time>
      </trkpt>
      <trkpt lat="43.38982" lon="6.11193">
        <ele>290.60000610352</ele>
        <time>2013-05-25T14:19:33Z</time>
      </trkpt>
      <trkpt lat="43.38984" lon="6.11192">
        <ele>291</ele>
        <time>2013-05-25T14:19:34Z</time>
      </trkpt>
      <trkpt lat="43.38985" lon="6.11192">
        <ele>291.39999389648</ele>
        <time>2013-05-25T14:19:35Z</time>
      </trkpt>
      <trkpt lat="43.38989" lon="6.11192">
        <ele>291.79998779297</ele>
        <time>2013-05-25T14:19:38Z</time>
      </trkpt>
      <trkpt lat="43.38996" lon="6.11193">
        <ele>291.79998779297</ele>
        <time>2013-05-25T14:19:43Z</time>
      </trkpt>
      <trkpt lat="43.39001" lon="6.11193">
        <ele>291.79998779297</ele>
        <time>2013-05-25T14:19:48Z</time>
      </trkpt>
      <trkpt lat="43.39009" lon="6.11196">
        <ele>291.79998779297</ele>
        <time>2013-05-25T14:19:53Z</time>
      </trkpt>
      <trkpt lat="43.39011" lon="6.11197">
        <ele>292.20001220703</ele>
        <time>2013-05-25T14:19:54Z</time>
      </trkpt>
      <trkpt lat="43.39012" lon="6.11198">
        <ele>292.60000610352</ele>
        <time>2013-05-25T14:19:55Z</time>
      </trkpt>
      <trkpt lat="43.39012" lon="6.11199">
        <ele>293</ele>
        <time>2013-05-25T14:19:56Z</time>
      </trkpt>
      <trkpt lat="43.39013" lon="6.11199">
        <ele>293.39999389648</ele>
        <time>2013-05-25T14:19:57Z</time>
      </trkpt>
      <trkpt lat="43.39023" lon="6.11209">
        <ele>294</ele>
        <time>2013-05-25T14:20:06Z</time>
      </trkpt>
      <trkpt lat="43.39025" lon="6.11218">
        <ele>294.39999389648</ele>
        <time>2013-05-25T14:20:11Z</time>
      </trkpt>
      <trkpt lat="43.39026" lon="6.1122">
        <ele>294.79998779297</ele>
        <time>2013-05-25T14:20:12Z</time>
      </trkpt>
      <trkpt lat="43.39029" lon="6.11223">
        <ele>295.79998779297</ele>
        <time>2013-05-25T14:20:14Z</time>
      </trkpt>
      <trkpt lat="43.3903" lon="6.11225">
        <ele>296.20001220703</ele>
        <time>2013-05-25T14:20:15Z</time>
      </trkpt>
      <trkpt lat="43.39033" lon="6.11228">
        <ele>296.20001220703</ele>
        <time>2013-05-25T14:20:17Z</time>
      </trkpt>
      <trkpt lat="43.39042" lon="6.1124">
        <ele>296.60000610352</ele>
        <time>2013-05-25T14:20:24Z</time>
      </trkpt>
      <trkpt lat="43.39045" lon="6.11246">
        <ele>298.20001220703</ele>
        <time>2013-05-25T14:20:28Z</time>
      </trkpt>
      <trkpt lat="43.39046" lon="6.11247">
        <ele>298.20001220703</ele>
        <time>2013-05-25T14:20:30Z</time>
      </trkpt>
      <trkpt lat="43.3905" lon="6.11251">
        <ele>298.20001220703</ele>
        <time>2013-05-25T14:20:34Z</time>
      </trkpt>
      <trkpt lat="43.39052" lon="6.11254">
        <ele>298.20001220703</ele>
        <time>2013-05-25T14:20:36Z</time>
      </trkpt>
      <trkpt lat="43.39054" lon="6.11256">
        <ele>298.20001220703</ele>
        <time>2013-05-25T14:20:40Z</time>
      </trkpt>
      <trkpt lat="43.39056" lon="6.11259">
        <ele>298.20001220703</ele>
        <time>2013-05-25T14:20:42Z</time>
      </trkpt>
      <trkpt lat="43.3906" lon="6.11266">
        <ele>298.20001220703</ele>
        <time>2013-05-25T14:20:48Z</time>
      </trkpt>
      <trkpt lat="43.39066" lon="6.11281">
        <ele>298.20001220703</ele>
        <time>2013-05-25T14:20:55Z</time>
      </trkpt>
      <trkpt lat="43.39067" lon="6.11283">
        <ele>298.20001220703</ele>
        <time>2013-05-25T14:20:56Z</time>
      </trkpt>
      <trkpt lat="43.39073" lon="6.11296">
        <ele>298.20001220703</ele>
        <time>2013-05-25T14:21:01Z</time>
      </trkpt>
      <trkpt lat="43.39075" lon="6.11297">
        <ele>298.20001220703</ele>
        <time>2013-05-25T14:21:02Z</time>
      </trkpt>
      <trkpt lat="43.39079" lon="6.11297">
        <ele>298.20001220703</ele>
        <time>2013-05-25T14:21:04Z</time>
      </trkpt>
      <trkpt lat="43.3908" lon="6.11296">
        <ele>298.20001220703</ele>
        <time>2013-05-25T14:21:05Z</time>
      </trkpt>
      <trkpt lat="43.39085" lon="6.11291">
        <ele>298.20001220703</ele>
        <time>2013-05-25T14:21:07Z</time>
      </trkpt>
      <trkpt lat="43.39089" lon="6.11288">
        <ele>297.79998779297</ele>
        <time>2013-05-25T14:21:08Z</time>
      </trkpt>
      <trkpt lat="43.39092" lon="6.11283">
        <ele>297.20001220703</ele>
        <time>2013-05-25T14:21:09Z</time>
      </trkpt>
      <trkpt lat="43.39096" lon="6.11277">
        <ele>296.20001220703</ele>
        <time>2013-05-25T14:21:11Z</time>
      </trkpt>
      <trkpt lat="43.39097" lon="6.11274">
        <ele>295.60000610352</ele>
        <time>2013-05-25T14:21:12Z</time>
      </trkpt>
      <trkpt lat="43.39098" lon="6.11272">
        <ele>295.60000610352</ele>
        <time>2013-05-25T14:21:13Z</time>
      </trkpt>
      <trkpt lat="43.391" lon="6.11267">
        <ele>295.60000610352</ele>
        <time>2013-05-25T14:21:15Z</time>
      </trkpt>
      <trkpt lat="43.391" lon="6.11263">
        <ele>295.60000610352</ele>
        <time>2013-05-25T14:21:17Z</time>
      </trkpt>
      <trkpt lat="43.39099" lon="6.11254">
        <ele>295.60000610352</ele>
        <time>2013-05-25T14:21:21Z</time>
      </trkpt>
      <trkpt lat="43.391" lon="6.11249">
        <ele>295.60000610352</ele>
        <time>2013-05-25T14:21:23Z</time>
      </trkpt>
      <trkpt lat="43.39105" lon="6.11238">
        <ele>295.60000610352</ele>
        <time>2013-05-25T14:21:28Z</time>
      </trkpt>
      <trkpt lat="43.39106" lon="6.11217">
        <ele>295.60000610352</ele>
        <time>2013-05-25T14:21:34Z</time>
      </trkpt>
      <trkpt lat="43.39109" lon="6.11197">
        <ele>295.60000610352</ele>
        <time>2013-05-25T14:21:39Z</time>
      </trkpt>
      <trkpt lat="43.39109" lon="6.11186">
        <ele>295.60000610352</ele>
        <time>2013-05-25T14:21:42Z</time>
      </trkpt>
      <trkpt lat="43.39109" lon="6.11182">
        <ele>295.60000610352</ele>
        <time>2013-05-25T14:21:43Z</time>
      </trkpt>
      <trkpt lat="43.39109" lon="6.11178">
        <ele>295.60000610352</ele>
        <time>2013-05-25T14:21:44Z</time>
      </trkpt>
      <trkpt lat="43.3911" lon="6.11174">
        <ele>295.60000610352</ele>
        <time>2013-05-25T14:21:46Z</time>
      </trkpt>
      <trkpt lat="43.39111" lon="6.11173">
        <ele>295.20001220703</ele>
        <time>2013-05-25T14:21:47Z</time>
      </trkpt>
      <trkpt lat="43.39112" lon="6.11172">
        <ele>294.79998779297</ele>
        <time>2013-05-25T14:21:48Z</time>
      </trkpt>
      <trkpt lat="43.39113" lon="6.11171">
        <ele>294.39999389648</ele>
        <time>2013-05-25T14:21:49Z</time>
      </trkpt>
      <trkpt lat="43.39114" lon="6.1117">
        <ele>294</ele>
        <time>2013-05-25T14:21:50Z</time>
      </trkpt>
      <trkpt lat="43.39116" lon="6.11171">
        <ele>293.60000610352</ele>
        <time>2013-05-25T14:21:51Z</time>
      </trkpt>
      <trkpt lat="43.3912" lon="6.11171">
        <ele>293</ele>
        <time>2013-05-25T14:21:55Z</time>
      </trkpt>
      <trkpt lat="43.39125" lon="6.11169">
        <ele>292.20001220703</ele>
        <time>2013-05-25T14:21:57Z</time>
      </trkpt>
      <trkpt lat="43.39127" lon="6.11167">
        <ele>291.60000610352</ele>
        <time>2013-05-25T14:21:58Z</time>
      </trkpt>
      <trkpt lat="43.3913" lon="6.11164">
        <ele>291.20001220703</ele>
        <time>2013-05-25T14:21:59Z</time>
      </trkpt>
      <trkpt lat="43.39132" lon="6.11162">
        <ele>290.60000610352</ele>
        <time>2013-05-25T14:22:00Z</time>
      </trkpt>
      <trkpt lat="43.39134" lon="6.11157">
        <ele>289.60000610352</ele>
        <time>2013-05-25T14:22:01Z</time>
      </trkpt>
      <trkpt lat="43.39135" lon="6.11152">
        <ele>289.20001220703</ele>
        <time>2013-05-25T14:22:02Z</time>
      </trkpt>
      <trkpt lat="43.39136" lon="6.11144">
        <ele>289.20001220703</ele>
        <time>2013-05-25T14:22:04Z</time>
      </trkpt>
      <trkpt lat="43.39137" lon="6.1114">
        <ele>289.20001220703</ele>
        <time>2013-05-25T14:22:05Z</time>
      </trkpt>
      <trkpt lat="43.3914" lon="6.11113">
        <ele>289.20001220703</ele>
        <time>2013-05-25T14:22:12Z</time>
      </trkpt>
      <trkpt lat="43.39142" lon="6.11096">
        <ele>288</ele>
        <time>2013-05-25T14:22:16Z</time>
      </trkpt>
      <trkpt lat="43.39144" lon="6.11087">
        <ele>287</ele>
        <time>2013-05-25T14:22:18Z</time>
      </trkpt>
      <trkpt lat="43.39144" lon="6.11062">
        <ele>287</ele>
        <time>2013-05-25T14:22:24Z</time>
      </trkpt>
      <trkpt lat="43.39149" lon="6.11042">
        <ele>287</ele>
        <time>2013-05-25T14:22:29Z</time>
      </trkpt>
      <trkpt lat="43.3915" lon="6.11035">
        <ele>287</ele>
        <time>2013-05-25T14:22:31Z</time>
      </trkpt>
      <trkpt lat="43.39151" lon="6.11023">
        <ele>287</ele>
        <time>2013-05-25T14:22:34Z</time>
      </trkpt>
      <trkpt lat="43.39148" lon="6.11003">
        <ele>287</ele>
        <time>2013-05-25T14:22:40Z</time>
      </trkpt>
      <trkpt lat="43.3915" lon="6.10992">
        <ele>287</ele>
        <time>2013-05-25T14:22:44Z</time>
      </trkpt>
      <trkpt lat="43.39151" lon="6.10988">
        <ele>287</ele>
        <time>2013-05-25T14:22:45Z</time>
      </trkpt>
      <trkpt lat="43.39162" lon="6.10973">
        <ele>286.60000610352</ele>
        <time>2013-05-25T14:22:50Z</time>
      </trkpt>
      <trkpt lat="43.39163" lon="6.10972">
        <ele>286.20001220703</ele>
        <time>2013-05-25T14:22:51Z</time>
      </trkpt>
      <trkpt lat="43.39165" lon="6.10971">
        <ele>285.79998779297</ele>
        <time>2013-05-25T14:22:52Z</time>
      </trkpt>
      <trkpt lat="43.39174" lon="6.10964">
        <ele>285</ele>
        <time>2013-05-25T14:22:58Z</time>
      </trkpt>
      <trkpt lat="43.39177" lon="6.10954">
        <ele>285</ele>
        <time>2013-05-25T14:23:04Z</time>
      </trkpt>
      <trkpt lat="43.3918" lon="6.1095">
        <ele>285</ele>
        <time>2013-05-25T14:23:06Z</time>
      </trkpt>
      <trkpt lat="43.39184" lon="6.10943">
        <ele>285</ele>
        <time>2013-05-25T14:23:10Z</time>
      </trkpt>
      <trkpt lat="43.39188" lon="6.10938">
        <ele>285</ele>
        <time>2013-05-25T14:23:13Z</time>
      </trkpt>
      <trkpt lat="43.39192" lon="6.10932">
        <ele>285</ele>
        <time>2013-05-25T14:23:16Z</time>
      </trkpt>
      <trkpt lat="43.39198" lon="6.1093">
        <ele>284.20001220703</ele>
        <time>2013-05-25T14:23:18Z</time>
      </trkpt>
      <trkpt lat="43.39202" lon="6.10928">
        <ele>283.39999389648</ele>
        <time>2013-05-25T14:23:20Z</time>
      </trkpt>
      <trkpt lat="43.39203" lon="6.10928">
        <ele>282.79998779297</ele>
        <time>2013-05-25T14:23:21Z</time>
      </trkpt>
      <trkpt lat="43.39207" lon="6.10924">
        <ele>282.79998779297</ele>
        <time>2013-05-25T14:23:25Z</time>
      </trkpt>
      <trkpt lat="43.3921" lon="6.10919">
        <ele>282.79998779297</ele>
        <time>2013-05-25T14:23:30Z</time>
      </trkpt>
      <trkpt lat="43.39212" lon="6.10917">
        <ele>282.79998779297</ele>
        <time>2013-05-25T14:23:31Z</time>
      </trkpt>
      <trkpt lat="43.39214" lon="6.10909">
        <ele>282.79998779297</ele>
        <time>2013-05-25T14:23:34Z</time>
      </trkpt>
      <trkpt lat="43.39217" lon="6.10905">
        <ele>282.79998779297</ele>
        <time>2013-05-25T14:23:36Z</time>
      </trkpt>
      <trkpt lat="43.39218" lon="6.10903">
        <ele>282.79998779297</ele>
        <time>2013-05-25T14:23:37Z</time>
      </trkpt>
      <trkpt lat="43.39222" lon="6.10895">
        <ele>282.79998779297</ele>
        <time>2013-05-25T14:23:40Z</time>
      </trkpt>
      <trkpt lat="43.3923" lon="6.10882">
        <ele>282.79998779297</ele>
        <time>2013-05-25T14:23:45Z</time>
      </trkpt>
      <trkpt lat="43.39229" lon="6.10878">
        <ele>282.79998779297</ele>
        <time>2013-05-25T14:23:46Z</time>
      </trkpt>
      <trkpt lat="43.39228" lon="6.10854">
        <ele>282.79998779297</ele>
        <time>2013-05-25T14:23:52Z</time>
      </trkpt>
      <trkpt lat="43.39225" lon="6.10836">
        <ele>282.79998779297</ele>
        <time>2013-05-25T14:23:57Z</time>
      </trkpt>
      <trkpt lat="43.39225" lon="6.10814">
        <ele>282.39999389648</ele>
        <time>2013-05-25T14:24:02Z</time>
      </trkpt>
      <trkpt lat="43.39224" lon="6.10805">
        <ele>281.20001220703</ele>
        <time>2013-05-25T14:24:04Z</time>
      </trkpt>
      <trkpt lat="43.39223" lon="6.108">
        <ele>280.60000610352</ele>
        <time>2013-05-25T14:24:05Z</time>
      </trkpt>
      <trkpt lat="43.39222" lon="6.10791">
        <ele>280.60000610352</ele>
        <time>2013-05-25T14:24:07Z</time>
      </trkpt>
      <trkpt lat="43.39222" lon="6.10771">
        <ele>280.60000610352</ele>
        <time>2013-05-25T14:24:12Z</time>
      </trkpt>
      <trkpt lat="43.39219" lon="6.10754">
        <ele>280.60000610352</ele>
        <time>2013-05-25T14:24:17Z</time>
      </trkpt>
      <trkpt lat="43.39217" lon="6.10737">
        <ele>280.60000610352</ele>
        <time>2013-05-25T14:24:23Z</time>
      </trkpt>
      <trkpt lat="43.39216" lon="6.10735">
        <ele>280.60000610352</ele>
        <time>2013-05-25T14:24:24Z</time>
      </trkpt>
      <trkpt lat="43.39209" lon="6.10719">
        <ele>280.60000610352</ele>
        <time>2013-05-25T14:24:28Z</time>
      </trkpt>
      <trkpt lat="43.39195" lon="6.10698">
        <ele>280.20001220703</ele>
        <time>2013-05-25T14:24:33Z</time>
      </trkpt>
      <trkpt lat="43.39192" lon="6.10695">
        <ele>279.79998779297</ele>
        <time>2013-05-25T14:24:34Z</time>
      </trkpt>
      <trkpt lat="43.3919" lon="6.10691">
        <ele>279.20001220703</ele>
        <time>2013-05-25T14:24:35Z</time>
      </trkpt>
      <trkpt lat="43.39184" lon="6.10688">
        <ele>278.39999389648</ele>
        <time>2013-05-25T14:24:37Z</time>
      </trkpt>
      <trkpt lat="43.39182" lon="6.10684">
        <ele>278.39999389648</ele>
        <time>2013-05-25T14:24:38Z</time>
      </trkpt>
      <trkpt lat="43.39182" lon="6.10676">
        <ele>278.39999389648</ele>
        <time>2013-05-25T14:24:40Z</time>
      </trkpt>
      <trkpt lat="43.39182" lon="6.10671">
        <ele>278.39999389648</ele>
        <time>2013-05-25T14:24:42Z</time>
      </trkpt>
      <trkpt lat="43.39184" lon="6.10666">
        <ele>278.39999389648</ele>
        <time>2013-05-25T14:24:45Z</time>
      </trkpt>
      <trkpt lat="43.39184" lon="6.10666">
        <ele>278.39999389648</ele>
        <time>2013-05-25T14:24:46Z</time>
      </trkpt>
      <trkpt lat="43.39184" lon="6.10666">
        <ele>278.39999389648</ele>
        <time>2013-05-25T14:25:07Z</time>
      </trkpt>
      <trkpt lat="43.39184" lon="6.10667">
        <ele>278.39999389648</ele>
        <time>2013-05-25T14:25:34Z</time>
      </trkpt>
      <trkpt lat="43.39184" lon="6.10667">
        <ele>278.39999389648</ele>
        <time>2013-05-25T14:25:52Z</time>
      </trkpt>
      <trkpt lat="43.39184" lon="6.10667">
        <ele>278.39999389648</ele>
        <time>2013-05-25T14:26:22Z</time>
      </trkpt>
      <trkpt lat="43.39184" lon="6.10667">
        <ele>278.39999389648</ele>
        <time>2013-05-25T14:26:43Z</time>
      </trkpt>
      <trkpt lat="43.39185" lon="6.10666">
        <ele>278.39999389648</ele>
        <time>2013-05-25T14:26:51Z</time>
      </trkpt>
      <trkpt lat="43.39191" lon="6.10655">
        <ele>278.39999389648</ele>
        <time>2013-05-25T14:26:58Z</time>
      </trkpt>
      <trkpt lat="43.39193" lon="6.10649">
        <ele>278.39999389648</ele>
        <time>2013-05-25T14:27:01Z</time>
      </trkpt>
      <trkpt lat="43.39196" lon="6.10643">
        <ele>278.39999389648</ele>
        <time>2013-05-25T14:27:04Z</time>
      </trkpt>
      <trkpt lat="43.39199" lon="6.1064">
        <ele>278.39999389648</ele>
        <time>2013-05-25T14:27:10Z</time>
      </trkpt>
      <trkpt lat="43.39203" lon="6.10638">
        <ele>278.39999389648</ele>
        <time>2013-05-25T14:27:13Z</time>
      </trkpt>
      <trkpt lat="43.39212" lon="6.10631">
        <ele>278.39999389648</ele>
        <time>2013-05-25T14:27:18Z</time>
      </trkpt>
      <trkpt lat="43.39217" lon="6.10626">
        <ele>278.39999389648</ele>
        <time>2013-05-25T14:27:20Z</time>
      </trkpt>
      <trkpt lat="43.39231" lon="6.10611">
        <ele>278.39999389648</ele>
        <time>2013-05-25T14:27:27Z</time>
      </trkpt>
      <trkpt lat="43.3924" lon="6.106">
        <ele>278.39999389648</ele>
        <time>2013-05-25T14:27:33Z</time>
      </trkpt>
      <trkpt lat="43.39243" lon="6.106">
        <ele>278.39999389648</ele>
        <time>2013-05-25T14:27:34Z</time>
      </trkpt>
      <trkpt lat="43.39253" lon="6.1059">
        <ele>278.39999389648</ele>
        <time>2013-05-25T14:27:39Z</time>
      </trkpt>
      <trkpt lat="43.39255" lon="6.10588">
        <ele>278.39999389648</ele>
        <time>2013-05-25T14:27:40Z</time>
      </trkpt>
      <trkpt lat="43.39264" lon="6.10569">
        <ele>278.39999389648</ele>
        <time>2013-05-25T14:27:45Z</time>
      </trkpt>
      <trkpt lat="43.39272" lon="6.10548">
        <ele>278.39999389648</ele>
        <time>2013-05-25T14:27:50Z</time>
      </trkpt>
      <trkpt lat="43.39275" lon="6.10539">
        <ele>278.39999389648</ele>
        <time>2013-05-25T14:27:52Z</time>
      </trkpt>
      <trkpt lat="43.39279" lon="6.10529">
        <ele>278.39999389648</ele>
        <time>2013-05-25T14:27:54Z</time>
      </trkpt>
      <trkpt lat="43.39288" lon="6.10507">
        <ele>278.39999389648</ele>
        <time>2013-05-25T14:27:58Z</time>
      </trkpt>
      <trkpt lat="43.39299" lon="6.10478">
        <ele>278.39999389648</ele>
        <time>2013-05-25T14:28:03Z</time>
      </trkpt>
      <trkpt lat="43.39302" lon="6.10473">
        <ele>278.39999389648</ele>
        <time>2013-05-25T14:28:04Z</time>
      </trkpt>
      <trkpt lat="43.39305" lon="6.10467">
        <ele>278.39999389648</ele>
        <time>2013-05-25T14:28:05Z</time>
      </trkpt>
      <trkpt lat="43.39311" lon="6.10455">
        <ele>278</ele>
        <time>2013-05-25T14:28:07Z</time>
      </trkpt>
      <trkpt lat="43.39314" lon="6.1045">
        <ele>277.60000610352</ele>
        <time>2013-05-25T14:28:08Z</time>
      </trkpt>
      <trkpt lat="43.39317" lon="6.10445">
        <ele>277.20001220703</ele>
        <time>2013-05-25T14:28:09Z</time>
      </trkpt>
      <trkpt lat="43.39321" lon="6.1044">
        <ele>276.39999389648</ele>
        <time>2013-05-25T14:28:10Z</time>
      </trkpt>
      <trkpt lat="43.39331" lon="6.10425">
        <ele>276.39999389648</ele>
        <time>2013-05-25T14:28:13Z</time>
      </trkpt>
      <trkpt lat="43.39342" lon="6.10418">
        <ele>276.39999389648</ele>
        <time>2013-05-25T14:28:16Z</time>
      </trkpt>
      <trkpt lat="43.3935" lon="6.10419">
        <ele>276</ele>
        <time>2013-05-25T14:28:18Z</time>
      </trkpt>
      <trkpt lat="43.39354" lon="6.10419">
        <ele>275.60000610352</ele>
        <time>2013-05-25T14:28:19Z</time>
      </trkpt>
      <trkpt lat="43.39357" lon="6.10418">
        <ele>275.20001220703</ele>
        <time>2013-05-25T14:28:20Z</time>
      </trkpt>
      <trkpt lat="43.3936" lon="6.10416">
        <ele>274.79998779297</ele>
        <time>2013-05-25T14:28:21Z</time>
      </trkpt>
      <trkpt lat="43.39363" lon="6.10414">
        <ele>274.39999389648</ele>
        <time>2013-05-25T14:28:22Z</time>
      </trkpt>
      <trkpt lat="43.39363" lon="6.10412">
        <ele>274.39999389648</ele>
        <time>2013-05-25T14:28:23Z</time>
      </trkpt>
      <trkpt lat="43.39365" lon="6.1041">
        <ele>274</ele>
        <time>2013-05-25T14:28:24Z</time>
      </trkpt>
      <trkpt lat="43.39365" lon="6.10408">
        <ele>273.39999389648</ele>
        <time>2013-05-25T14:28:25Z</time>
      </trkpt>
      <trkpt lat="43.39365" lon="6.10407">
        <ele>273</ele>
        <time>2013-05-25T14:28:26Z</time>
      </trkpt>
      <trkpt lat="43.39365" lon="6.10407">
        <ele>272.60000610352</ele>
        <time>2013-05-25T14:28:27Z</time>
      </trkpt>
      <trkpt lat="43.39365" lon="6.10407">
        <ele>272.20001220703</ele>
        <time>2013-05-25T14:28:31Z</time>
      </trkpt>
      <trkpt lat="43.39365" lon="6.10407">
        <ele>272.20001220703</ele>
        <time>2013-05-25T14:28:34Z</time>
      </trkpt>
      <trkpt lat="43.39364" lon="6.10409">
        <ele>272.20001220703</ele>
        <time>2013-05-25T14:28:36Z</time>
      </trkpt>
      <trkpt lat="43.39365" lon="6.10412">
        <ele>272.20001220703</ele>
        <time>2013-05-25T14:28:42Z</time>
      </trkpt>
      <trkpt lat="43.39366" lon="6.10413">
        <ele>272.20001220703</ele>
        <time>2013-05-25T14:28:48Z</time>
      </trkpt>
      <trkpt lat="43.39368" lon="6.10409">
        <ele>272.20001220703</ele>
        <time>2013-05-25T14:28:54Z</time>
      </trkpt>
      <trkpt lat="43.3937" lon="6.10406">
        <ele>272.20001220703</ele>
        <time>2013-05-25T14:29:00Z</time>
      </trkpt>
      <trkpt lat="43.3937" lon="6.10406">
        <ele>272.20001220703</ele>
        <time>2013-05-25T14:29:06Z</time>
      </trkpt>
      <trkpt lat="43.3937" lon="6.10406">
        <ele>272.20001220703</ele>
        <time>2013-05-25T14:29:39Z</time>
      </trkpt>
      <trkpt lat="43.3937" lon="6.10406">
        <ele>272.20001220703</ele>
        <time>2013-05-25T14:30:27Z</time>
      </trkpt>
      <trkpt lat="43.3937" lon="6.10406">
        <ele>272.20001220703</ele>
        <time>2013-05-25T14:30:53Z</time>
      </trkpt>
      <trkpt lat="43.3937" lon="6.10406">
        <ele>272.20001220703</ele>
        <time>2013-05-25T14:31:55Z</time>
      </trkpt>
      <trkpt lat="43.3937" lon="6.10406">
        <ele>272.20001220703</ele>
        <time>2013-05-25T14:32:18Z</time>
      </trkpt>
      <trkpt lat="43.3937" lon="6.10406">
        <ele>272.20001220703</ele>
        <time>2013-05-25T14:32:50Z</time>
      </trkpt>
      <trkpt lat="43.3937" lon="6.10406">
        <ele>272.20001220703</ele>
        <time>2013-05-25T14:33:02Z</time>
      </trkpt>
      <trkpt lat="43.3937" lon="6.10406">
        <ele>272.20001220703</ele>
        <time>2013-05-25T14:33:11Z</time>
      </trkpt>
      <trkpt lat="43.3937" lon="6.10406">
        <ele>272.20001220703</ele>
        <time>2013-05-25T14:33:32Z</time>
      </trkpt>
      <trkpt lat="43.3937" lon="6.10406">
        <ele>272.20001220703</ele>
        <time>2013-05-25T14:33:52Z</time>
      </trkpt>
      <trkpt lat="43.3937" lon="6.10406">
        <ele>272.20001220703</ele>
        <time>2013-05-25T14:34:40Z</time>
      </trkpt>
      <trkpt lat="43.3937" lon="6.10407">
        <ele>272.20001220703</ele>
        <time>2013-05-25T14:35:05Z</time>
      </trkpt>
      <trkpt lat="43.3937" lon="6.10407">
        <ele>272.20001220703</ele>
        <time>2013-05-25T14:35:17Z</time>
      </trkpt>
      <trkpt lat="43.39369" lon="6.10407">
        <ele>272.20001220703</ele>
        <time>2013-05-25T14:35:45Z</time>
      </trkpt>
      <trkpt lat="43.39369" lon="6.10407">
        <ele>272.20001220703</ele>
        <time>2013-05-25T14:36:13Z</time>
      </trkpt>
      <trkpt lat="43.39369" lon="6.10407">
        <ele>272.20001220703</ele>
        <time>2013-05-25T14:36:39Z</time>
      </trkpt>
      <trkpt lat="43.39369" lon="6.10407">
        <ele>272.20001220703</ele>
        <time>2013-05-25T14:36:53Z</time>
      </trkpt>
      <trkpt lat="43.3937" lon="6.10408">
        <ele>272.20001220703</ele>
        <time>2013-05-25T14:37:01Z</time>
      </trkpt>
      <trkpt lat="43.3937" lon="6.10408">
        <ele>272.20001220703</ele>
        <time>2013-05-25T14:37:24Z</time>
      </trkpt>
      <trkpt lat="43.3937" lon="6.10408">
        <ele>272.20001220703</ele>
        <time>2013-05-25T14:37:57Z</time>
      </trkpt>
      <trkpt lat="43.3937" lon="6.10408">
        <ele>272.20001220703</ele>
        <time>2013-05-25T14:38:09Z</time>
      </trkpt>
      <trkpt lat="43.3937" lon="6.10406">
        <ele>272.20001220703</ele>
        <time>2013-05-25T14:38:22Z</time>
      </trkpt>
      <trkpt lat="43.3937" lon="6.10406">
        <ele>272.20001220703</ele>
        <time>2013-05-25T14:38:48Z</time>
      </trkpt>
      <trkpt lat="43.3937" lon="6.10407">
        <ele>272.20001220703</ele>
        <time>2013-05-25T14:39:00Z</time>
      </trkpt>
      <trkpt lat="43.3937" lon="6.10407">
        <ele>272.20001220703</ele>
        <time>2013-05-25T14:39:13Z</time>
      </trkpt>
      <trkpt lat="43.39369" lon="6.10407">
        <ele>272.20001220703</ele>
        <time>2013-05-25T14:39:37Z</time>
      </trkpt>
      <trkpt lat="43.39369" lon="6.10407">
        <ele>272.20001220703</ele>
        <time>2013-05-25T14:39:49Z</time>
      </trkpt>
      <trkpt lat="43.39369" lon="6.10407">
        <ele>272.20001220703</ele>
        <time>2013-05-25T14:40:03Z</time>
      </trkpt>
      <trkpt lat="43.3937" lon="6.10406">
        <ele>272.20001220703</ele>
        <time>2013-05-25T14:40:10Z</time>
      </trkpt>
      <trkpt lat="43.3937" lon="6.10406">
        <ele>272.20001220703</ele>
        <time>2013-05-25T14:40:28Z</time>
      </trkpt>
      <trkpt lat="43.3937" lon="6.10406">
        <ele>272.20001220703</ele>
        <time>2013-05-25T14:40:42Z</time>
      </trkpt>
      <trkpt lat="43.39368" lon="6.10404">
        <ele>272.20001220703</ele>
        <time>2013-05-25T14:40:54Z</time>
      </trkpt>
      <trkpt lat="43.39368" lon="6.10403">
        <ele>272.20001220703</ele>
        <time>2013-05-25T14:40:56Z</time>
      </trkpt>
      <trkpt lat="43.39369" lon="6.10397">
        <ele>272.20001220703</ele>
        <time>2013-05-25T14:40:59Z</time>
      </trkpt>
      <trkpt lat="43.3937" lon="6.10395">
        <ele>272.20001220703</ele>
        <time>2013-05-25T14:41:00Z</time>
      </trkpt>
      <trkpt lat="43.39373" lon="6.10387">
        <ele>272.20001220703</ele>
        <time>2013-05-25T14:41:04Z</time>
      </trkpt>
      <trkpt lat="43.39376" lon="6.10383">
        <ele>272.20001220703</ele>
        <time>2013-05-25T14:41:06Z</time>
      </trkpt>
      <trkpt lat="43.39381" lon="6.10374">
        <ele>272.20001220703</ele>
        <time>2013-05-25T14:41:10Z</time>
      </trkpt>
      <trkpt lat="43.39389" lon="6.10361">
        <ele>272.20001220703</ele>
        <time>2013-05-25T14:41:16Z</time>
      </trkpt>
      <trkpt lat="43.394" lon="6.10344">
        <ele>272.20001220703</ele>
        <time>2013-05-25T14:41:22Z</time>
      </trkpt>
      <trkpt lat="43.39409" lon="6.10329">
        <ele>272.20001220703</ele>
        <time>2013-05-25T14:41:27Z</time>
      </trkpt>
      <trkpt lat="43.39419" lon="6.10311">
        <ele>272.20001220703</ele>
        <time>2013-05-25T14:41:33Z</time>
      </trkpt>
      <trkpt lat="43.39433" lon="6.10299">
        <ele>272.20001220703</ele>
        <time>2013-05-25T14:41:39Z</time>
      </trkpt>
      <trkpt lat="43.39449" lon="6.10285">
        <ele>272.20001220703</ele>
        <time>2013-05-25T14:41:45Z</time>
      </trkpt>
      <trkpt lat="43.39454" lon="6.10282">
        <ele>271.79998779297</ele>
        <time>2013-05-25T14:41:47Z</time>
      </trkpt>
      <trkpt lat="43.39459" lon="6.10277">
        <ele>271</ele>
        <time>2013-05-25T14:41:49Z</time>
      </trkpt>
      <trkpt lat="43.39464" lon="6.10271">
        <ele>270.20001220703</ele>
        <time>2013-05-25T14:41:51Z</time>
      </trkpt>
      <trkpt lat="43.39478" lon="6.10253">
        <ele>270.20001220703</ele>
        <time>2013-05-25T14:41:56Z</time>
      </trkpt>
      <trkpt lat="43.39486" lon="6.10241">
        <ele>269.79998779297</ele>
        <time>2013-05-25T14:41:59Z</time>
      </trkpt>
      <trkpt lat="43.39491" lon="6.10233">
        <ele>269</ele>
        <time>2013-05-25T14:42:01Z</time>
      </trkpt>
      <trkpt lat="43.39493" lon="6.10229">
        <ele>268.60000610352</ele>
        <time>2013-05-25T14:42:02Z</time>
      </trkpt>
      <trkpt lat="43.39502" lon="6.10202">
        <ele>267.79998779297</ele>
        <time>2013-05-25T14:42:08Z</time>
      </trkpt>
      <trkpt lat="43.39507" lon="6.10176">
        <ele>266</ele>
        <time>2013-05-25T14:42:13Z</time>
      </trkpt>
      <trkpt lat="43.39513" lon="6.10156">
        <ele>266</ele>
        <time>2013-05-25T14:42:17Z</time>
      </trkpt>
      <trkpt lat="43.39521" lon="6.10128">
        <ele>266</ele>
        <time>2013-05-25T14:42:23Z</time>
      </trkpt>
      <trkpt lat="43.39528" lon="6.10109">
        <ele>265.60000610352</ele>
        <time>2013-05-25T14:42:27Z</time>
      </trkpt>
      <trkpt lat="43.39533" lon="6.101">
        <ele>264.60000610352</ele>
        <time>2013-05-25T14:42:29Z</time>
      </trkpt>
      <trkpt lat="43.39538" lon="6.10092">
        <ele>263.79998779297</ele>
        <time>2013-05-25T14:42:31Z</time>
      </trkpt>
      <trkpt lat="43.3954" lon="6.10087">
        <ele>263.79998779297</ele>
        <time>2013-05-25T14:42:32Z</time>
      </trkpt>
      <trkpt lat="43.39544" lon="6.10075">
        <ele>263.79998779297</ele>
        <time>2013-05-25T14:42:34Z</time>
      </trkpt>
      <trkpt lat="43.39555" lon="6.10033">
        <ele>263.79998779297</ele>
        <time>2013-05-25T14:42:41Z</time>
      </trkpt>
      <trkpt lat="43.39557" lon="6.10018">
        <ele>263.79998779297</ele>
        <time>2013-05-25T14:42:44Z</time>
      </trkpt>
      <trkpt lat="43.39553" lon="6.1001">
        <ele>262.79998779297</ele>
        <time>2013-05-25T14:42:46Z</time>
      </trkpt>
      <trkpt lat="43.39552" lon="6.10006">
        <ele>262.39999389648</ele>
        <time>2013-05-25T14:42:47Z</time>
      </trkpt>
      <trkpt lat="43.39551" lon="6.10004">
        <ele>262</ele>
        <time>2013-05-25T14:42:48Z</time>
      </trkpt>
      <trkpt lat="43.3955" lon="6.1">
        <ele>261.39999389648</ele>
        <time>2013-05-25T14:42:52Z</time>
      </trkpt>
      <trkpt lat="43.39549" lon="6.09997">
        <ele>261.39999389648</ele>
        <time>2013-05-25T14:42:55Z</time>
      </trkpt>
      <trkpt lat="43.39552" lon="6.09979">
        <ele>261.39999389648</ele>
        <time>2013-05-25T14:43:04Z</time>
      </trkpt>
      <trkpt lat="43.39552" lon="6.0997">
        <ele>261.39999389648</ele>
        <time>2013-05-25T14:43:07Z</time>
      </trkpt>
      <trkpt lat="43.39553" lon="6.09954">
        <ele>261.39999389648</ele>
        <time>2013-05-25T14:43:14Z</time>
      </trkpt>
      <trkpt lat="43.39553" lon="6.09948">
        <ele>261.39999389648</ele>
        <time>2013-05-25T14:43:19Z</time>
      </trkpt>
      <trkpt lat="43.39553" lon="6.09948">
        <ele>263.39999389648</ele>
        <time>2013-05-25T14:43:30Z</time>
      </trkpt>
      <trkpt lat="43.39553" lon="6.09947">
        <ele>263.39999389648</ele>
        <time>2013-05-25T14:43:42Z</time>
      </trkpt>
      <trkpt lat="43.39554" lon="6.0995">
        <ele>263.39999389648</ele>
        <time>2013-05-25T14:43:45Z</time>
      </trkpt>
      <trkpt lat="43.39554" lon="6.09952">
        <ele>263.39999389648</ele>
        <time>2013-05-25T14:43:47Z</time>
      </trkpt>
      <trkpt lat="43.39554" lon="6.09957">
        <ele>263.39999389648</ele>
        <time>2013-05-25T14:43:53Z</time>
      </trkpt>
      <trkpt lat="43.39554" lon="6.09956">
        <ele>263.39999389648</ele>
        <time>2013-05-25T14:43:59Z</time>
      </trkpt>
      <trkpt lat="43.39554" lon="6.09957">
        <ele>263.39999389648</ele>
        <time>2013-05-25T14:44:04Z</time>
      </trkpt>
      <trkpt lat="43.39554" lon="6.09957">
        <ele>263.39999389648</ele>
        <time>2013-05-25T14:44:34Z</time>
      </trkpt>
      <trkpt lat="43.39554" lon="6.09957">
        <ele>263.39999389648</ele>
        <time>2013-05-25T14:46:48Z</time>
      </trkpt>
      <trkpt lat="43.39554" lon="6.09957">
        <ele>263.39999389648</ele>
        <time>2013-05-25T14:47:09Z</time>
      </trkpt>
      <trkpt lat="43.39554" lon="6.09957">
        <ele>263.39999389648</ele>
        <time>2013-05-25T14:47:36Z</time>
      </trkpt>
      <trkpt lat="43.39554" lon="6.09957">
        <ele>263.39999389648</ele>
        <time>2013-05-25T14:47:54Z</time>
      </trkpt>
      <trkpt lat="43.39554" lon="6.09957">
        <ele>263.39999389648</ele>
        <time>2013-05-25T14:48:08Z</time>
      </trkpt>
      <trkpt lat="43.39554" lon="6.09957">
        <ele>261.60000610352</ele>
        <time>2013-05-25T14:48:30Z</time>
      </trkpt>
      <trkpt lat="43.39555" lon="6.09957">
        <ele>261.20001220703</ele>
        <time>2013-05-25T14:50:14Z</time>
      </trkpt>
      <trkpt lat="43.39555" lon="6.09957">
        <ele>261.20001220703</ele>
        <time>2013-05-25T14:50:30Z</time>
      </trkpt>
      <trkpt lat="43.39555" lon="6.09957">
        <ele>261.20001220703</ele>
        <time>2013-05-25T14:50:39Z</time>
      </trkpt>
      <trkpt lat="43.39554" lon="6.09957">
        <ele>261.20001220703</ele>
        <time>2013-05-25T14:50:50Z</time>
      </trkpt>
      <trkpt lat="43.39554" lon="6.09957">
        <ele>261.20001220703</ele>
        <time>2013-05-25T14:51:08Z</time>
      </trkpt>
      <trkpt lat="43.39555" lon="6.09958">
        <ele>261.20001220703</ele>
        <time>2013-05-25T14:51:27Z</time>
      </trkpt>
      <trkpt lat="43.39555" lon="6.09958">
        <ele>261.20001220703</ele>
        <time>2013-05-25T14:51:41Z</time>
      </trkpt>
      <trkpt lat="43.39555" lon="6.09958">
        <ele>261.20001220703</ele>
        <time>2013-05-25T14:52:06Z</time>
      </trkpt>
      <trkpt lat="43.39555" lon="6.09958">
        <ele>261.20001220703</ele>
        <time>2013-05-25T14:52:30Z</time>
      </trkpt>
      <trkpt lat="43.39555" lon="6.09958">
        <ele>261.20001220703</ele>
        <time>2013-05-25T14:53:04Z</time>
      </trkpt>
      <trkpt lat="43.39555" lon="6.09958">
        <ele>261.20001220703</ele>
        <time>2013-05-25T14:53:19Z</time>
      </trkpt>
      <trkpt lat="43.39555" lon="6.09958">
        <ele>261.20001220703</ele>
        <time>2013-05-25T14:53:27Z</time>
      </trkpt>
      <trkpt lat="43.39555" lon="6.09958">
        <ele>261.20001220703</ele>
        <time>2013-05-25T14:53:52Z</time>
      </trkpt>
      <trkpt lat="43.39555" lon="6.09958">
        <ele>261.20001220703</ele>
        <time>2013-05-25T14:54:27Z</time>
      </trkpt>
      <trkpt lat="43.39555" lon="6.09958">
        <ele>261.20001220703</ele>
        <time>2013-05-25T14:54:39Z</time>
      </trkpt>
      <trkpt lat="43.39554" lon="6.09958">
        <ele>261.20001220703</ele>
        <time>2013-05-25T14:54:46Z</time>
      </trkpt>
      <trkpt lat="43.39554" lon="6.09958">
        <ele>261.20001220703</ele>
        <time>2013-05-25T14:54:53Z</time>
      </trkpt>
      <trkpt lat="43.39554" lon="6.09958">
        <ele>261.20001220703</ele>
        <time>2013-05-25T14:55:01Z</time>
      </trkpt>
      <trkpt lat="43.39554" lon="6.09957">
        <ele>261.20001220703</ele>
        <time>2013-05-25T14:55:09Z</time>
      </trkpt>
      <trkpt lat="43.39554" lon="6.09957">
        <ele>261.20001220703</ele>
        <time>2013-05-25T14:55:10Z</time>
      </trkpt>
      <trkpt lat="43.39554" lon="6.09951">
        <ele>261.20001220703</ele>
        <time>2013-05-25T14:55:15Z</time>
      </trkpt>
      <trkpt lat="43.39553" lon="6.09944">
        <ele>261.20001220703</ele>
        <time>2013-05-25T14:55:19Z</time>
      </trkpt>
      <trkpt lat="43.39553" lon="6.0994">
        <ele>261.20001220703</ele>
        <time>2013-05-25T14:55:21Z</time>
      </trkpt>
      <trkpt lat="43.39551" lon="6.09935">
        <ele>261.60000610352</ele>
        <time>2013-05-25T14:55:24Z</time>
      </trkpt>
      <trkpt lat="43.3955" lon="6.09933">
        <ele>262</ele>
        <time>2013-05-25T14:55:25Z</time>
      </trkpt>
      <trkpt lat="43.39549" lon="6.09931">
        <ele>262.39999389648</ele>
        <time>2013-05-25T14:55:26Z</time>
      </trkpt>
      <trkpt lat="43.39547" lon="6.09927">
        <ele>263.39999389648</ele>
        <time>2013-05-25T14:55:28Z</time>
      </trkpt>
      <trkpt lat="43.39544" lon="6.09923">
        <ele>264.20001220703</ele>
        <time>2013-05-25T14:55:31Z</time>
      </trkpt>
      <trkpt lat="43.39544" lon="6.09917">
        <ele>265.39999389648</ele>
        <time>2013-05-25T14:55:34Z</time>
      </trkpt>
      <trkpt lat="43.39543" lon="6.09915">
        <ele>265.39999389648</ele>
        <time>2013-05-25T14:55:35Z</time>
      </trkpt>
      <trkpt lat="43.39542" lon="6.09908">
        <ele>265.39999389648</ele>
        <time>2013-05-25T14:55:40Z</time>
      </trkpt>
      <trkpt lat="43.39544" lon="6.09902">
        <ele>265.39999389648</ele>
        <time>2013-05-25T14:55:44Z</time>
      </trkpt>
      <trkpt lat="43.39546" lon="6.09898">
        <ele>265.39999389648</ele>
        <time>2013-05-25T14:55:50Z</time>
      </trkpt>
      <trkpt lat="43.39547" lon="6.09896">
        <ele>265.39999389648</ele>
        <time>2013-05-25T14:56:01Z</time>
      </trkpt>
      <trkpt lat="43.39548" lon="6.09892">
        <ele>265.39999389648</ele>
        <time>2013-05-25T14:56:03Z</time>
      </trkpt>
      <trkpt lat="43.3955" lon="6.09887">
        <ele>265.39999389648</ele>
        <time>2013-05-25T14:56:05Z</time>
      </trkpt>
      <trkpt lat="43.39552" lon="6.09879">
        <ele>265.39999389648</ele>
        <time>2013-05-25T14:56:09Z</time>
      </trkpt>
      <trkpt lat="43.39553" lon="6.09877">
        <ele>265.39999389648</ele>
        <time>2013-05-25T14:56:10Z</time>
      </trkpt>
      <trkpt lat="43.39557" lon="6.09854">
        <ele>265.39999389648</ele>
        <time>2013-05-25T14:56:18Z</time>
      </trkpt>
      <trkpt lat="43.3956" lon="6.09835">
        <ele>265.39999389648</ele>
        <time>2013-05-25T14:56:25Z</time>
      </trkpt>
      <trkpt lat="43.39565" lon="6.09815">
        <ele>265.39999389648</ele>
        <time>2013-05-25T14:56:33Z</time>
      </trkpt>
      <trkpt lat="43.39569" lon="6.09797">
        <ele>265.39999389648</ele>
        <time>2013-05-25T14:56:40Z</time>
      </trkpt>
      <trkpt lat="43.39571" lon="6.09783">
        <ele>267.60000610352</ele>
        <time>2013-05-25T14:56:45Z</time>
      </trkpt>
      <trkpt lat="43.39576" lon="6.09763">
        <ele>267.60000610352</ele>
        <time>2013-05-25T14:56:52Z</time>
      </trkpt>
      <trkpt lat="43.39582" lon="6.09744">
        <ele>267.60000610352</ele>
        <time>2013-05-25T14:56:58Z</time>
      </trkpt>
      <trkpt lat="43.39589" lon="6.0972">
        <ele>267.60000610352</ele>
        <time>2013-05-25T14:57:04Z</time>
      </trkpt>
      <trkpt lat="43.39595" lon="6.09695">
        <ele>267.60000610352</ele>
        <time>2013-05-25T14:57:10Z</time>
      </trkpt>
      <trkpt lat="43.39599" lon="6.09667">
        <ele>267.60000610352</ele>
        <time>2013-05-25T14:57:17Z</time>
      </trkpt>
      <trkpt lat="43.39605" lon="6.09642">
        <ele>267.60000610352</ele>
        <time>2013-05-25T14:57:23Z</time>
      </trkpt>
      <trkpt lat="43.39612" lon="6.09611">
        <ele>267.60000610352</ele>
        <time>2013-05-25T14:57:30Z</time>
      </trkpt>
      <trkpt lat="43.39619" lon="6.09582">
        <ele>267.60000610352</ele>
        <time>2013-05-25T14:57:37Z</time>
      </trkpt>
      <trkpt lat="43.39626" lon="6.09564">
        <ele>267.60000610352</ele>
        <time>2013-05-25T14:57:41Z</time>
      </trkpt>
      <trkpt lat="43.39628" lon="6.09559">
        <ele>267.60000610352</ele>
        <time>2013-05-25T14:57:42Z</time>
      </trkpt>
      <trkpt lat="43.39631" lon="6.09553">
        <ele>267.60000610352</ele>
        <time>2013-05-25T14:57:43Z</time>
      </trkpt>
      <trkpt lat="43.3964" lon="6.09539">
        <ele>267</ele>
        <time>2013-05-25T14:57:46Z</time>
      </trkpt>
      <trkpt lat="43.39643" lon="6.09535">
        <ele>266.60000610352</ele>
        <time>2013-05-25T14:57:47Z</time>
      </trkpt>
      <trkpt lat="43.39646" lon="6.0953">
        <ele>266.20001220703</ele>
        <time>2013-05-25T14:57:48Z</time>
      </trkpt>
      <trkpt lat="43.39649" lon="6.09525">
        <ele>265.79998779297</ele>
        <time>2013-05-25T14:57:49Z</time>
      </trkpt>
      <trkpt lat="43.39655" lon="6.09518">
        <ele>264.39999389648</ele>
        <time>2013-05-25T14:57:51Z</time>
      </trkpt>
      <trkpt lat="43.39658" lon="6.09514">
        <ele>264</ele>
        <time>2013-05-25T14:57:52Z</time>
      </trkpt>
      <trkpt lat="43.3966" lon="6.09511">
        <ele>263.39999389648</ele>
        <time>2013-05-25T14:57:53Z</time>
      </trkpt>
      <trkpt lat="43.39662" lon="6.09508">
        <ele>262.79998779297</ele>
        <time>2013-05-25T14:57:54Z</time>
      </trkpt>
      <trkpt lat="43.39666" lon="6.09496">
        <ele>261</ele>
        <time>2013-05-25T14:57:57Z</time>
      </trkpt>
      <trkpt lat="43.39667" lon="6.09492">
        <ele>261</ele>
        <time>2013-05-25T14:57:58Z</time>
      </trkpt>
      <trkpt lat="43.39671" lon="6.09478">
        <ele>260.60000610352</ele>
        <time>2013-05-25T14:58:01Z</time>
      </trkpt>
      <trkpt lat="43.39672" lon="6.09471">
        <ele>259.79998779297</ele>
        <time>2013-05-25T14:58:03Z</time>
      </trkpt>
      <trkpt lat="43.39672" lon="6.09468">
        <ele>259.20001220703</ele>
        <time>2013-05-25T14:58:04Z</time>
      </trkpt>
      <trkpt lat="43.39672" lon="6.09466">
        <ele>258.79998779297</ele>
        <time>2013-05-25T14:58:05Z</time>
      </trkpt>
      <trkpt lat="43.39671" lon="6.09461">
        <ele>257.60000610352</ele>
        <time>2013-05-25T14:58:08Z</time>
      </trkpt>
      <trkpt lat="43.39672" lon="6.0946">
        <ele>257.20001220703</ele>
        <time>2013-05-25T14:58:09Z</time>
      </trkpt>
      <trkpt lat="43.39673" lon="6.0946">
        <ele>256.79998779297</ele>
        <time>2013-05-25T14:58:10Z</time>
      </trkpt>
      <trkpt lat="43.39679" lon="6.09463">
        <ele>256.79998779297</ele>
        <time>2013-05-25T14:58:13Z</time>
      </trkpt>
      <trkpt lat="43.39684" lon="6.09465">
        <ele>256.79998779297</ele>
        <time>2013-05-25T14:58:14Z</time>
      </trkpt>
      <trkpt lat="43.39688" lon="6.09466">
        <ele>256</ele>
        <time>2013-05-25T14:58:15Z</time>
      </trkpt>
      <trkpt lat="43.39694" lon="6.09463">
        <ele>254.80000305176</ele>
        <time>2013-05-25T14:58:17Z</time>
      </trkpt>
      <trkpt lat="43.39695" lon="6.09462">
        <ele>254</ele>
        <time>2013-05-25T14:58:18Z</time>
      </trkpt>
      <trkpt lat="43.39694" lon="6.09461">
        <ele>252.39999389648</ele>
        <time>2013-05-25T14:58:20Z</time>
      </trkpt>
      <trkpt lat="43.39694" lon="6.09462">
        <ele>251.60000610352</ele>
        <time>2013-05-25T14:58:21Z</time>
      </trkpt>
      <trkpt lat="43.39694" lon="6.09465">
        <ele>251.60000610352</ele>
        <time>2013-05-25T14:58:23Z</time>
      </trkpt>
      <trkpt lat="43.39693" lon="6.09468">
        <ele>251.60000610352</ele>
        <time>2013-05-25T14:58:25Z</time>
      </trkpt>
      <trkpt lat="43.39691" lon="6.09468">
        <ele>251.60000610352</ele>
        <time>2013-05-25T14:58:29Z</time>
      </trkpt>
      <trkpt lat="43.39691" lon="6.09468">
        <ele>251.60000610352</ele>
        <time>2013-05-25T14:58:51Z</time>
      </trkpt>
      <trkpt lat="43.39691" lon="6.09468">
        <ele>251.60000610352</ele>
        <time>2013-05-25T14:58:59Z</time>
      </trkpt>
      <trkpt lat="43.3969" lon="6.09469">
        <ele>251.60000610352</ele>
        <time>2013-05-25T14:59:01Z</time>
      </trkpt>
      <trkpt lat="43.39688" lon="6.09465">
        <ele>251.60000610352</ele>
        <time>2013-05-25T14:59:04Z</time>
      </trkpt>
      <trkpt lat="43.39689" lon="6.09464">
        <ele>251.60000610352</ele>
        <time>2013-05-25T14:59:05Z</time>
      </trkpt>
      <trkpt lat="43.39695" lon="6.09453">
        <ele>251.60000610352</ele>
        <time>2013-05-25T14:59:10Z</time>
      </trkpt>
      <trkpt lat="43.39697" lon="6.09449">
        <ele>251.60000610352</ele>
        <time>2013-05-25T14:59:12Z</time>
      </trkpt>
      <trkpt lat="43.39706" lon="6.09434">
        <ele>251.60000610352</ele>
        <time>2013-05-25T14:59:18Z</time>
      </trkpt>
      <trkpt lat="43.39719" lon="6.09412">
        <ele>251.60000610352</ele>
        <time>2013-05-25T14:59:25Z</time>
      </trkpt>
      <trkpt lat="43.39732" lon="6.09395">
        <ele>251.60000610352</ele>
        <time>2013-05-25T14:59:30Z</time>
      </trkpt>
      <trkpt lat="43.39744" lon="6.09372">
        <ele>251.60000610352</ele>
        <time>2013-05-25T14:59:36Z</time>
      </trkpt>
      <trkpt lat="43.39767" lon="6.09324">
        <ele>251.60000610352</ele>
        <time>2013-05-25T14:59:49Z</time>
      </trkpt>
      <trkpt lat="43.39779" lon="6.09302">
        <ele>251.60000610352</ele>
        <time>2013-05-25T14:59:55Z</time>
      </trkpt>
      <trkpt lat="43.39785" lon="6.09279">
        <ele>251.60000610352</ele>
        <time>2013-05-25T15:00:01Z</time>
      </trkpt>
      <trkpt lat="43.39789" lon="6.09261">
        <ele>251.60000610352</ele>
        <time>2013-05-25T15:00:06Z</time>
      </trkpt>
      <trkpt lat="43.39794" lon="6.09235">
        <ele>251.60000610352</ele>
        <time>2013-05-25T15:00:12Z</time>
      </trkpt>
      <trkpt lat="43.39798" lon="6.09207">
        <ele>251.60000610352</ele>
        <time>2013-05-25T15:00:18Z</time>
      </trkpt>
      <trkpt lat="43.39797" lon="6.0918">
        <ele>251.60000610352</ele>
        <time>2013-05-25T15:00:24Z</time>
      </trkpt>
      <trkpt lat="43.39798" lon="6.09154">
        <ele>251.60000610352</ele>
        <time>2013-05-25T15:00:30Z</time>
      </trkpt>
      <trkpt lat="43.39798" lon="6.09149">
        <ele>251.60000610352</ele>
        <time>2013-05-25T15:00:31Z</time>
      </trkpt>
      <trkpt lat="43.39804" lon="6.09119">
        <ele>251.60000610352</ele>
        <time>2013-05-25T15:00:38Z</time>
      </trkpt>
      <trkpt lat="43.3981" lon="6.09094">
        <ele>253.39999389648</ele>
        <time>2013-05-25T15:00:44Z</time>
      </trkpt>
      <trkpt lat="43.39811" lon="6.0909">
        <ele>253.80000305176</ele>
        <time>2013-05-25T15:00:45Z</time>
      </trkpt>
      <trkpt lat="43.39817" lon="6.09072">
        <ele>253.80000305176</ele>
        <time>2013-05-25T15:00:50Z</time>
      </trkpt>
      <trkpt lat="43.39825" lon="6.0905">
        <ele>253.80000305176</ele>
        <time>2013-05-25T15:00:56Z</time>
      </trkpt>
      <trkpt lat="43.39831" lon="6.09041">
        <ele>253.80000305176</ele>
        <time>2013-05-25T15:00:59Z</time>
      </trkpt>
      <trkpt lat="43.39835" lon="6.09036">
        <ele>253.80000305176</ele>
        <time>2013-05-25T15:01:01Z</time>
      </trkpt>
      <trkpt lat="43.3986" lon="6.09013">
        <ele>253.39999389648</ele>
        <time>2013-05-25T15:01:09Z</time>
      </trkpt>
      <trkpt lat="43.39865" lon="6.09006">
        <ele>252.60000610352</ele>
        <time>2013-05-25T15:01:11Z</time>
      </trkpt>
      <trkpt lat="43.3987" lon="6.09">
        <ele>251.80000305176</ele>
        <time>2013-05-25T15:01:13Z</time>
      </trkpt>
      <trkpt lat="43.39887" lon="6.08989">
        <ele>251.39999389648</ele>
        <time>2013-05-25T15:01:18Z</time>
      </trkpt>
      <trkpt lat="43.39897" lon="6.08987">
        <ele>250</ele>
        <time>2013-05-25T15:01:21Z</time>
      </trkpt>
      <trkpt lat="43.39901" lon="6.08986">
        <ele>249.60000610352</ele>
        <time>2013-05-25T15:01:22Z</time>
      </trkpt>
      <trkpt lat="43.39907" lon="6.08986">
        <ele>249.60000610352</ele>
        <time>2013-05-25T15:01:24Z</time>
      </trkpt>
      <trkpt lat="43.3993" lon="6.08986">
        <ele>249.60000610352</ele>
        <time>2013-05-25T15:01:30Z</time>
      </trkpt>
      <trkpt lat="43.39936" lon="6.08985">
        <ele>248.19999694824</ele>
        <time>2013-05-25T15:01:33Z</time>
      </trkpt>
      <trkpt lat="43.39939" lon="6.08985">
        <ele>247.80000305176</ele>
        <time>2013-05-25T15:01:34Z</time>
      </trkpt>
      <trkpt lat="43.39945" lon="6.08984">
        <ele>246.80000305176</ele>
        <time>2013-05-25T15:01:37Z</time>
      </trkpt>
      <trkpt lat="43.39947" lon="6.08984">
        <ele>246.39999389648</ele>
        <time>2013-05-25T15:01:38Z</time>
      </trkpt>
      <trkpt lat="43.39949" lon="6.08983">
        <ele>246</ele>
        <time>2013-05-25T15:01:39Z</time>
      </trkpt>
      <trkpt lat="43.39952" lon="6.08981">
        <ele>245.19999694824</ele>
        <time>2013-05-25T15:01:41Z</time>
      </trkpt>
      <trkpt lat="43.39967" lon="6.08979">
        <ele>245.19999694824</ele>
        <time>2013-05-25T15:01:46Z</time>
      </trkpt>
      <trkpt lat="43.3999" lon="6.08974">
        <ele>245.19999694824</ele>
        <time>2013-05-25T15:01:52Z</time>
      </trkpt>
      <trkpt lat="43.4001" lon="6.08967">
        <ele>245.19999694824</ele>
        <time>2013-05-25T15:01:58Z</time>
      </trkpt>
      <trkpt lat="43.40023" lon="6.08956">
        <ele>245.19999694824</ele>
        <time>2013-05-25T15:02:02Z</time>
      </trkpt>
      <trkpt lat="43.40031" lon="6.08936">
        <ele>245.19999694824</ele>
        <time>2013-05-25T15:02:07Z</time>
      </trkpt>
      <trkpt lat="43.40034" lon="6.08923">
        <ele>244.19999694824</ele>
        <time>2013-05-25T15:02:10Z</time>
      </trkpt>
      <trkpt lat="43.40035" lon="6.08916">
        <ele>243.19999694824</ele>
        <time>2013-05-25T15:02:12Z</time>
      </trkpt>
      <trkpt lat="43.40036" lon="6.08913">
        <ele>242.80000305176</ele>
        <time>2013-05-25T15:02:13Z</time>
      </trkpt>
      <trkpt lat="43.40044" lon="6.08884">
        <ele>242.80000305176</ele>
        <time>2013-05-25T15:02:20Z</time>
      </trkpt>
      <trkpt lat="43.40048" lon="6.08875">
        <ele>243.19999694824</ele>
        <time>2013-05-25T15:02:22Z</time>
      </trkpt>
      <trkpt lat="43.40051" lon="6.08863">
        <ele>244.39999389648</ele>
        <time>2013-05-25T15:02:25Z</time>
      </trkpt>
      <trkpt lat="43.40054" lon="6.08856">
        <ele>244.80000305176</ele>
        <time>2013-05-25T15:02:27Z</time>
      </trkpt>
      <trkpt lat="43.40063" lon="6.08832">
        <ele>244.80000305176</ele>
        <time>2013-05-25T15:02:33Z</time>
      </trkpt>
      <trkpt lat="43.40073" lon="6.08809">
        <ele>244.80000305176</ele>
        <time>2013-05-25T15:02:39Z</time>
      </trkpt>
      <trkpt lat="43.40083" lon="6.08782">
        <ele>244.80000305176</ele>
        <time>2013-05-25T15:02:46Z</time>
      </trkpt>
      <trkpt lat="43.40093" lon="6.08751">
        <ele>244.80000305176</ele>
        <time>2013-05-25T15:02:53Z</time>
      </trkpt>
      <trkpt lat="43.40099" lon="6.08721">
        <ele>244.80000305176</ele>
        <time>2013-05-25T15:02:59Z</time>
      </trkpt>
      <trkpt lat="43.40103" lon="6.08678">
        <ele>244.80000305176</ele>
        <time>2013-05-25T15:03:07Z</time>
      </trkpt>
      <trkpt lat="43.40102" lon="6.08672">
        <ele>244.80000305176</ele>
        <time>2013-05-25T15:03:08Z</time>
      </trkpt>
      <trkpt lat="43.40099" lon="6.08652">
        <ele>243.60000610352</ele>
        <time>2013-05-25T15:03:11Z</time>
      </trkpt>
      <trkpt lat="43.40102" lon="6.08638">
        <ele>242.60000610352</ele>
        <time>2013-05-25T15:03:13Z</time>
      </trkpt>
      <trkpt lat="43.40104" lon="6.08633">
        <ele>242.60000610352</ele>
        <time>2013-05-25T15:03:14Z</time>
      </trkpt>
      <trkpt lat="43.40108" lon="6.08628">
        <ele>242.19999694824</ele>
        <time>2013-05-25T15:03:15Z</time>
      </trkpt>
      <trkpt lat="43.40111" lon="6.08625">
        <ele>241.80000305176</ele>
        <time>2013-05-25T15:03:16Z</time>
      </trkpt>
      <trkpt lat="43.40115" lon="6.08621">
        <ele>241.39999389648</ele>
        <time>2013-05-25T15:03:17Z</time>
      </trkpt>
      <trkpt lat="43.4012" lon="6.08618">
        <ele>241</ele>
        <time>2013-05-25T15:03:18Z</time>
      </trkpt>
      <trkpt lat="43.40124" lon="6.08614">
        <ele>240.60000610352</ele>
        <time>2013-05-25T15:03:19Z</time>
      </trkpt>
      <trkpt lat="43.40144" lon="6.08596">
        <ele>240.60000610352</ele>
        <time>2013-05-25T15:03:24Z</time>
      </trkpt>
      <trkpt lat="43.40147" lon="6.08593">
        <ele>240.60000610352</ele>
        <time>2013-05-25T15:03:25Z</time>
      </trkpt>
      <trkpt lat="43.40155" lon="6.08588">
        <ele>240.19999694824</ele>
        <time>2013-05-25T15:03:27Z</time>
      </trkpt>
      <trkpt lat="43.40163" lon="6.08584">
        <ele>239.39999389648</ele>
        <time>2013-05-25T15:03:29Z</time>
      </trkpt>
      <trkpt lat="43.40166" lon="6.0858">
        <ele>239</ele>
        <time>2013-05-25T15:03:30Z</time>
      </trkpt>
      <trkpt lat="43.40169" lon="6.08574">
        <ele>238.60000610352</ele>
        <time>2013-05-25T15:03:31Z</time>
      </trkpt>
      <trkpt lat="43.4017" lon="6.0856">
        <ele>238.60000610352</ele>
        <time>2013-05-25T15:03:34Z</time>
      </trkpt>
      <trkpt lat="43.4017" lon="6.08556">
        <ele>238.60000610352</ele>
        <time>2013-05-25T15:03:35Z</time>
      </trkpt>
      <trkpt lat="43.40169" lon="6.08538">
        <ele>239.39999389648</ele>
        <time>2013-05-25T15:03:39Z</time>
      </trkpt>
      <trkpt lat="43.40169" lon="6.08529">
        <ele>240.39999389648</ele>
        <time>2013-05-25T15:03:41Z</time>
      </trkpt>
      <trkpt lat="43.40169" lon="6.08524">
        <ele>240.80000305176</ele>
        <time>2013-05-25T15:03:42Z</time>
      </trkpt>
      <trkpt lat="43.40169" lon="6.08511">
        <ele>240.80000305176</ele>
        <time>2013-05-25T15:03:45Z</time>
      </trkpt>
      <trkpt lat="43.4017" lon="6.08496">
        <ele>240.80000305176</ele>
        <time>2013-05-25T15:03:49Z</time>
      </trkpt>
      <trkpt lat="43.40171" lon="6.08465">
        <ele>240.80000305176</ele>
        <time>2013-05-25T15:03:56Z</time>
      </trkpt>
      <trkpt lat="43.40176" lon="6.08436">
        <ele>240.80000305176</ele>
        <time>2013-05-25T15:04:02Z</time>
      </trkpt>
      <trkpt lat="43.40178" lon="6.08404">
        <ele>240.80000305176</ele>
        <time>2013-05-25T15:04:08Z</time>
      </trkpt>
      <trkpt lat="43.40178" lon="6.08391">
        <ele>240.80000305176</ele>
        <time>2013-05-25T15:04:10Z</time>
      </trkpt>
      <trkpt lat="43.40178" lon="6.08371">
        <ele>240.80000305176</ele>
        <time>2013-05-25T15:04:13Z</time>
      </trkpt>
      <trkpt lat="43.40181" lon="6.08331">
        <ele>240.80000305176</ele>
        <time>2013-05-25T15:04:19Z</time>
      </trkpt>
      <trkpt lat="43.40182" lon="6.08295">
        <ele>240.80000305176</ele>
        <time>2013-05-25T15:04:24Z</time>
      </trkpt>
      <trkpt lat="43.40185" lon="6.08274">
        <ele>240.19999694824</ele>
        <time>2013-05-25T15:04:28Z</time>
      </trkpt>
      <trkpt lat="43.40184" lon="6.08267">
        <ele>239</ele>
        <time>2013-05-25T15:04:31Z</time>
      </trkpt>
      <trkpt lat="43.40183" lon="6.08266">
        <ele>238.39999389648</ele>
        <time>2013-05-25T15:04:32Z</time>
      </trkpt>
      <trkpt lat="43.40182" lon="6.08265">
        <ele>238.39999389648</ele>
        <time>2013-05-25T15:04:35Z</time>
      </trkpt>
      <trkpt lat="43.40182" lon="6.08257">
        <ele>238.39999389648</ele>
        <time>2013-05-25T15:04:40Z</time>
      </trkpt>
      <trkpt lat="43.40181" lon="6.08237">
        <ele>238.39999389648</ele>
        <time>2013-05-25T15:04:44Z</time>
      </trkpt>
      <trkpt lat="43.40187" lon="6.08211">
        <ele>238.39999389648</ele>
        <time>2013-05-25T15:04:49Z</time>
      </trkpt>
      <trkpt lat="43.40195" lon="6.08176">
        <ele>238.39999389648</ele>
        <time>2013-05-25T15:04:55Z</time>
      </trkpt>
      <trkpt lat="43.40198" lon="6.08143">
        <ele>238</ele>
        <time>2013-05-25T15:05:00Z</time>
      </trkpt>
      <trkpt lat="43.40198" lon="6.0813">
        <ele>237.19999694824</ele>
        <time>2013-05-25T15:05:02Z</time>
      </trkpt>
      <trkpt lat="43.40196" lon="6.08125">
        <ele>236.80000305176</ele>
        <time>2013-05-25T15:05:03Z</time>
      </trkpt>
      <trkpt lat="43.40194" lon="6.0812">
        <ele>236.39999389648</ele>
        <time>2013-05-25T15:05:04Z</time>
      </trkpt>
      <trkpt lat="43.40191" lon="6.08109">
        <ele>236.39999389648</ele>
        <time>2013-05-25T15:05:06Z</time>
      </trkpt>
      <trkpt lat="43.40194" lon="6.08083">
        <ele>236</ele>
        <time>2013-05-25T15:05:10Z</time>
      </trkpt>
      <trkpt lat="43.40196" lon="6.08077">
        <ele>235.60000610352</ele>
        <time>2013-05-25T15:05:11Z</time>
      </trkpt>
      <trkpt lat="43.40201" lon="6.08066">
        <ele>234.80000305176</ele>
        <time>2013-05-25T15:05:13Z</time>
      </trkpt>
      <trkpt lat="43.40203" lon="6.08061">
        <ele>234.39999389648</ele>
        <time>2013-05-25T15:05:14Z</time>
      </trkpt>
      <trkpt lat="43.4021" lon="6.08052">
        <ele>234.39999389648</ele>
        <time>2013-05-25T15:05:16Z</time>
      </trkpt>
      <trkpt lat="43.4023" lon="6.08028">
        <ele>234.39999389648</ele>
        <time>2013-05-25T15:05:22Z</time>
      </trkpt>
      <trkpt lat="43.40245" lon="6.08011">
        <ele>234.39999389648</ele>
        <time>2013-05-25T15:05:26Z</time>
      </trkpt>
      <trkpt lat="43.40255" lon="6.07996">
        <ele>233.80000305176</ele>
        <time>2013-05-25T15:05:29Z</time>
      </trkpt>
      <trkpt lat="43.40261" lon="6.07987">
        <ele>232.80000305176</ele>
        <time>2013-05-25T15:05:31Z</time>
      </trkpt>
      <trkpt lat="43.40264" lon="6.07983">
        <ele>232.19999694824</ele>
        <time>2013-05-25T15:05:32Z</time>
      </trkpt>
      <trkpt lat="43.40271" lon="6.07971">
        <ele>231.80000305176</ele>
        <time>2013-05-25T15:05:35Z</time>
      </trkpt>
      <trkpt lat="43.40285" lon="6.07942">
        <ele>231.80000305176</ele>
        <time>2013-05-25T15:05:42Z</time>
      </trkpt>
      <trkpt lat="43.4029" lon="6.07919">
        <ele>231.39999389648</ele>
        <time>2013-05-25T15:05:47Z</time>
      </trkpt>
      <trkpt lat="43.40292" lon="6.079">
        <ele>229.80000305176</ele>
        <time>2013-05-25T15:05:51Z</time>
      </trkpt>
      <trkpt lat="43.40295" lon="6.07882">
        <ele>229.19999694824</ele>
        <time>2013-05-25T15:05:55Z</time>
      </trkpt>
      <trkpt lat="43.40297" lon="6.07874">
        <ele>228.39999389648</ele>
        <time>2013-05-25T15:05:57Z</time>
      </trkpt>
      <trkpt lat="43.40298" lon="6.07857">
        <ele>227.60000610352</ele>
        <time>2013-05-25T15:06:01Z</time>
      </trkpt>
      <trkpt lat="43.40302" lon="6.07835">
        <ele>227.60000610352</ele>
        <time>2013-05-25T15:06:08Z</time>
      </trkpt>
      <trkpt lat="43.40304" lon="6.07813">
        <ele>227.60000610352</ele>
        <time>2013-05-25T15:06:14Z</time>
      </trkpt>
      <trkpt lat="43.40312" lon="6.07749">
        <ele>227.60000610352</ele>
        <time>2013-05-25T15:06:30Z</time>
      </trkpt>
      <trkpt lat="43.40318" lon="6.07719">
        <ele>227.60000610352</ele>
        <time>2013-05-25T15:06:37Z</time>
      </trkpt>
      <trkpt lat="43.40333" lon="6.07692">
        <ele>227.60000610352</ele>
        <time>2013-05-25T15:06:44Z</time>
      </trkpt>
      <trkpt lat="43.40348" lon="6.07677">
        <ele>227.60000610352</ele>
        <time>2013-05-25T15:06:48Z</time>
      </trkpt>
      <trkpt lat="43.40355" lon="6.07671">
        <ele>226.80000305176</ele>
        <time>2013-05-25T15:06:50Z</time>
      </trkpt>
      <trkpt lat="43.40361" lon="6.07664">
        <ele>226</ele>
        <time>2013-05-25T15:06:52Z</time>
      </trkpt>
      <trkpt lat="43.40363" lon="6.0766">
        <ele>225.60000610352</ele>
        <time>2013-05-25T15:06:53Z</time>
      </trkpt>
      <trkpt lat="43.40368" lon="6.0765">
        <ele>225.60000610352</ele>
        <time>2013-05-25T15:06:55Z</time>
      </trkpt>
      <trkpt lat="43.40372" lon="6.07625">
        <ele>225.60000610352</ele>
        <time>2013-05-25T15:07:00Z</time>
      </trkpt>
      <trkpt lat="43.40373" lon="6.07596">
        <ele>225.60000610352</ele>
        <time>2013-05-25T15:07:06Z</time>
      </trkpt>
      <trkpt lat="43.40374" lon="6.07591">
        <ele>225.60000610352</ele>
        <time>2013-05-25T15:07:07Z</time>
      </trkpt>
      <trkpt lat="43.40374" lon="6.07571">
        <ele>225.60000610352</ele>
        <time>2013-05-25T15:07:11Z</time>
      </trkpt>
      <trkpt lat="43.40374" lon="6.07551">
        <ele>225.60000610352</ele>
        <time>2013-05-25T15:07:15Z</time>
      </trkpt>
      <trkpt lat="43.40376" lon="6.0752">
        <ele>225.60000610352</ele>
        <time>2013-05-25T15:07:21Z</time>
      </trkpt>
      <trkpt lat="43.40378" lon="6.07505">
        <ele>225.60000610352</ele>
        <time>2013-05-25T15:07:24Z</time>
      </trkpt>
      <trkpt lat="43.40387" lon="6.0745">
        <ele>225.60000610352</ele>
        <time>2013-05-25T15:07:34Z</time>
      </trkpt>
      <trkpt lat="43.40392" lon="6.07405">
        <ele>225.60000610352</ele>
        <time>2013-05-25T15:07:42Z</time>
      </trkpt>
      <trkpt lat="43.40389" lon="6.07364">
        <ele>225.60000610352</ele>
        <time>2013-05-25T15:07:49Z</time>
      </trkpt>
      <trkpt lat="43.40382" lon="6.07323">
        <ele>225.60000610352</ele>
        <time>2013-05-25T15:07:56Z</time>
      </trkpt>
      <trkpt lat="43.40381" lon="6.07305">
        <ele>224.60000610352</ele>
        <time>2013-05-25T15:07:59Z</time>
      </trkpt>
      <trkpt lat="43.40381" lon="6.073">
        <ele>224</ele>
        <time>2013-05-25T15:08:00Z</time>
      </trkpt>
      <trkpt lat="43.40383" lon="6.07293">
        <ele>223.60000610352</ele>
        <time>2013-05-25T15:08:01Z</time>
      </trkpt>
      <trkpt lat="43.40385" lon="6.07287">
        <ele>223</ele>
        <time>2013-05-25T15:08:02Z</time>
      </trkpt>
      <trkpt lat="43.40392" lon="6.07276">
        <ele>222.60000610352</ele>
        <time>2013-05-25T15:08:04Z</time>
      </trkpt>
      <trkpt lat="43.40394" lon="6.07269">
        <ele>222.19999694824</ele>
        <time>2013-05-25T15:08:05Z</time>
      </trkpt>
      <trkpt lat="43.40392" lon="6.07254">
        <ele>221.39999389648</ele>
        <time>2013-05-25T15:08:07Z</time>
      </trkpt>
      <trkpt lat="43.4039" lon="6.07248">
        <ele>221</ele>
        <time>2013-05-25T15:08:08Z</time>
      </trkpt>
      <trkpt lat="43.40387" lon="6.07235">
        <ele>221</ele>
        <time>2013-05-25T15:08:10Z</time>
      </trkpt>
      <trkpt lat="43.40386" lon="6.07228">
        <ele>221</ele>
        <time>2013-05-25T15:08:11Z</time>
      </trkpt>
      <trkpt lat="43.40389" lon="6.07203">
        <ele>221</ele>
        <time>2013-05-25T15:08:15Z</time>
      </trkpt>
      <trkpt lat="43.40393" lon="6.07162">
        <ele>221</ele>
        <time>2013-05-25T15:08:22Z</time>
      </trkpt>
      <trkpt lat="43.40401" lon="6.07117">
        <ele>221</ele>
        <time>2013-05-25T15:08:30Z</time>
      </trkpt>
      <trkpt lat="43.40405" lon="6.07082">
        <ele>221</ele>
        <time>2013-05-25T15:08:37Z</time>
      </trkpt>
      <trkpt lat="43.40409" lon="6.07058">
        <ele>222.19999694824</ele>
        <time>2013-05-25T15:08:42Z</time>
      </trkpt>
      <trkpt lat="43.40409" lon="6.07048">
        <ele>223</ele>
        <time>2013-05-25T15:08:44Z</time>
      </trkpt>
      <trkpt lat="43.4041" lon="6.07043">
        <ele>223</ele>
        <time>2013-05-25T15:08:45Z</time>
      </trkpt>
      <trkpt lat="43.40413" lon="6.07025">
        <ele>223</ele>
        <time>2013-05-25T15:08:49Z</time>
      </trkpt>
      <trkpt lat="43.40415" lon="6.07016">
        <ele>224</ele>
        <time>2013-05-25T15:08:51Z</time>
      </trkpt>
      <trkpt lat="43.40417" lon="6.07007">
        <ele>224.80000305176</ele>
        <time>2013-05-25T15:08:53Z</time>
      </trkpt>
      <trkpt lat="43.40417" lon="6.07003">
        <ele>225.19999694824</ele>
        <time>2013-05-25T15:08:54Z</time>
      </trkpt>
      <trkpt lat="43.40421" lon="6.0698">
        <ele>225.19999694824</ele>
        <time>2013-05-25T15:08:59Z</time>
      </trkpt>
      <trkpt lat="43.40422" lon="6.06975">
        <ele>225.19999694824</ele>
        <time>2013-05-25T15:09:00Z</time>
      </trkpt>
      <trkpt lat="43.40427" lon="6.0695">
        <ele>225.19999694824</ele>
        <time>2013-05-25T15:09:05Z</time>
      </trkpt>
      <trkpt lat="43.4044" lon="6.06915">
        <ele>225.19999694824</ele>
        <time>2013-05-25T15:09:12Z</time>
      </trkpt>
      <trkpt lat="43.40443" lon="6.0691">
        <ele>225.19999694824</ele>
        <time>2013-05-25T15:09:13Z</time>
      </trkpt>
      <trkpt lat="43.40449" lon="6.069">
        <ele>224.80000305176</ele>
        <time>2013-05-25T15:09:17Z</time>
      </trkpt>
      <trkpt lat="43.4045" lon="6.06899">
        <ele>224.39999389648</ele>
        <time>2013-05-25T15:09:18Z</time>
      </trkpt>
      <trkpt lat="43.4045" lon="6.06897">
        <ele>223.80000305176</ele>
        <time>2013-05-25T15:09:19Z</time>
      </trkpt>
      <trkpt lat="43.40451" lon="6.06895">
        <ele>223.39999389648</ele>
        <time>2013-05-25T15:09:20Z</time>
      </trkpt>
      <trkpt lat="43.40451" lon="6.06892">
        <ele>223</ele>
        <time>2013-05-25T15:09:21Z</time>
      </trkpt>
      <trkpt lat="43.40452" lon="6.06885">
        <ele>223</ele>
        <time>2013-05-25T15:09:24Z</time>
      </trkpt>
      <trkpt lat="43.40454" lon="6.06879">
        <ele>223.60000610352</ele>
        <time>2013-05-25T15:09:26Z</time>
      </trkpt>
      <trkpt lat="43.40454" lon="6.06876">
        <ele>224</ele>
        <time>2013-05-25T15:09:27Z</time>
      </trkpt>
      <trkpt lat="43.40456" lon="6.06869">
        <ele>225</ele>
        <time>2013-05-25T15:09:29Z</time>
      </trkpt>
      <trkpt lat="43.40458" lon="6.06865">
        <ele>225.60000610352</ele>
        <time>2013-05-25T15:09:30Z</time>
      </trkpt>
      <trkpt lat="43.40462" lon="6.06835">
        <ele>225.60000610352</ele>
        <time>2013-05-25T15:09:37Z</time>
      </trkpt>
      <trkpt lat="43.40464" lon="6.06796">
        <ele>225.60000610352</ele>
        <time>2013-05-25T15:09:46Z</time>
      </trkpt>
      <trkpt lat="43.40463" lon="6.06758">
        <ele>225.60000610352</ele>
        <time>2013-05-25T15:09:55Z</time>
      </trkpt>
      <trkpt lat="43.40464" lon="6.0672">
        <ele>225.60000610352</ele>
        <time>2013-05-25T15:10:03Z</time>
      </trkpt>
      <trkpt lat="43.40466" lon="6.06715">
        <ele>225.60000610352</ele>
        <time>2013-05-25T15:10:04Z</time>
      </trkpt>
      <trkpt lat="43.40472" lon="6.0669">
        <ele>225.60000610352</ele>
        <time>2013-05-25T15:10:09Z</time>
      </trkpt>
      <trkpt lat="43.40481" lon="6.06649">
        <ele>225.60000610352</ele>
        <time>2013-05-25T15:10:17Z</time>
      </trkpt>
      <trkpt lat="43.40487" lon="6.06613">
        <ele>225.60000610352</ele>
        <time>2013-05-25T15:10:24Z</time>
      </trkpt>
      <trkpt lat="43.40484" lon="6.06588">
        <ele>225.60000610352</ele>
        <time>2013-05-25T15:10:29Z</time>
      </trkpt>
      <trkpt lat="43.40471" lon="6.06581">
        <ele>225.60000610352</ele>
        <time>2013-05-25T15:10:33Z</time>
      </trkpt>
      <trkpt lat="43.40446" lon="6.06574">
        <ele>225.60000610352</ele>
        <time>2013-05-25T15:10:40Z</time>
      </trkpt>
      <trkpt lat="43.40426" lon="6.06568">
        <ele>225.60000610352</ele>
        <time>2013-05-25T15:10:46Z</time>
      </trkpt>
      <trkpt lat="43.40415" lon="6.06566">
        <ele>226</ele>
        <time>2013-05-25T15:10:49Z</time>
      </trkpt>
      <trkpt lat="43.40411" lon="6.06565">
        <ele>226.39999389648</ele>
        <time>2013-05-25T15:10:50Z</time>
      </trkpt>
      <trkpt lat="43.40408" lon="6.06563">
        <ele>226.80000305176</ele>
        <time>2013-05-25T15:10:51Z</time>
      </trkpt>
      <trkpt lat="43.40406" lon="6.06562">
        <ele>227.19999694824</ele>
        <time>2013-05-25T15:10:52Z</time>
      </trkpt>
      <trkpt lat="43.40404" lon="6.0656">
        <ele>227.60000610352</ele>
        <time>2013-05-25T15:10:53Z</time>
      </trkpt>
      <trkpt lat="43.40401" lon="6.06554">
        <ele>227.60000610352</ele>
        <time>2013-05-25T15:10:56Z</time>
      </trkpt>
      <trkpt lat="43.40401" lon="6.06554">
        <ele>227.60000610352</ele>
        <time>2013-05-25T15:10:58Z</time>
      </trkpt>
      <trkpt lat="43.40401" lon="6.06554">
        <ele>227.60000610352</ele>
        <time>2013-05-25T15:11:01Z</time>
      </trkpt>
    </trkseg>
  </trk>
</gpx>